<?xml version="1.0" encoding="UTF-8" standalone="no" ?>
<gpx xmlns="http://www.topografix.com/GPX/1/1" xmlns:xsi="http://www.w3.org/2001/XMLSchema-instance" xsi:schemaLocation="http://www.topografix.com/GPX/1/1 http://www.topografix.com/GPX/1/1/gpx.xsd" version="1.1" creator="VisuGPX - https://www.visugpx.com">
  <metadata>
    <name>Tour du Jura loisir (Poligny - Dole)</name>
    <desc><![CDATA[Tour du jura loisir 15/06
Partie 2/2]]></desc>
  </metadata>
  <trk>
    <name><![CDATA[Poligny dole]]></name>
    <trkseg>
      <trkpt lat="46.83787" lon="5.70953">
        <ele>325</ele>
        <time>2014-06-15T09:02:14+0200</time>
      </trkpt>
      <trkpt lat="46.83786" lon="5.70943">
        <ele>325</ele>
        <time>2014-06-15T09:02:29+0200</time>
      </trkpt>
      <trkpt lat="46.83788" lon="5.70932">
        <ele>325</ele>
        <time>2014-06-15T09:02:44+0200</time>
      </trkpt>
      <trkpt lat="46.83791" lon="5.7093">
        <ele>325</ele>
        <time>2014-06-15T09:02:59+0200</time>
      </trkpt>
      <trkpt lat="46.83758" lon="5.70916">
        <ele>326</ele>
        <time>2014-06-15T09:03:14+0200</time>
      </trkpt>
      <trkpt lat="46.83707" lon="5.70894">
        <ele>326</ele>
        <time>2014-06-15T09:03:29+0200</time>
      </trkpt>
      <trkpt lat="46.83667" lon="5.70884">
        <ele>327</ele>
        <time>2014-06-15T09:03:45+0200</time>
      </trkpt>
      <trkpt lat="46.83619" lon="5.70864">
        <ele>331</ele>
        <time>2014-06-15T09:04:00+0200</time>
      </trkpt>
      <trkpt lat="46.83581" lon="5.70855">
        <ele>334</ele>
        <time>2014-06-15T09:04:16+0200</time>
      </trkpt>
      <trkpt lat="46.83546" lon="5.7085">
        <ele>334</ele>
        <time>2014-06-15T09:04:32+0200</time>
      </trkpt>
      <trkpt lat="46.83508" lon="5.7085">
        <ele>334</ele>
        <time>2014-06-15T09:04:48+0200</time>
      </trkpt>
      <trkpt lat="46.83466" lon="5.70854">
        <ele>334</ele>
        <time>2014-06-15T09:05:04+0200</time>
      </trkpt>
      <trkpt lat="46.83429" lon="5.70865">
        <ele>335</ele>
        <time>2014-06-15T09:05:19+0200</time>
      </trkpt>
      <trkpt lat="46.83414" lon="5.70874">
        <ele>335</ele>
        <time>2014-06-15T09:05:34+0200</time>
      </trkpt>
      <trkpt lat="46.83413" lon="5.70878">
        <ele>335</ele>
        <time>2014-06-15T09:05:50+0200</time>
      </trkpt>
      <trkpt lat="46.8342" lon="5.70861">
        <ele>334</ele>
        <time>2014-06-15T09:06:05+0200</time>
      </trkpt>
      <trkpt lat="46.83421" lon="5.70865">
        <ele>335</ele>
        <time>2014-06-15T09:06:21+0200</time>
      </trkpt>
      <trkpt lat="46.83421" lon="5.70865">
        <ele>335</ele>
        <time>2014-06-15T09:06:36+0200</time>
      </trkpt>
      <trkpt lat="46.83421" lon="5.70865">
        <ele>335</ele>
        <time>2014-06-15T09:06:52+0200</time>
      </trkpt>
      <trkpt lat="46.83421" lon="5.70868">
        <ele>335</ele>
        <time>2014-06-15T09:07:07+0200</time>
      </trkpt>
      <trkpt lat="46.83421" lon="5.70869">
        <ele>335</ele>
        <time>2014-06-15T09:07:23+0200</time>
      </trkpt>
      <trkpt lat="46.83421" lon="5.70869">
        <ele>335</ele>
        <time>2014-06-15T09:07:38+0200</time>
      </trkpt>
      <trkpt lat="46.83421" lon="5.70869">
        <ele>335</ele>
        <time>2014-06-15T09:07:54+0200</time>
      </trkpt>
      <trkpt lat="46.83421" lon="5.70869">
        <ele>335</ele>
        <time>2014-06-15T09:08:09+0200</time>
      </trkpt>
      <trkpt lat="46.83421" lon="5.70873">
        <ele>335</ele>
        <time>2014-06-15T09:08:25+0200</time>
      </trkpt>
      <trkpt lat="46.83418" lon="5.70877">
        <ele>335</ele>
        <time>2014-06-15T09:08:41+0200</time>
      </trkpt>
      <trkpt lat="46.83417" lon="5.7087">
        <ele>335</ele>
        <time>2014-06-15T09:08:56+0200</time>
      </trkpt>
      <trkpt lat="46.83416" lon="5.70866">
        <ele>335</ele>
        <time>2014-06-15T09:09:12+0200</time>
      </trkpt>
      <trkpt lat="46.83415" lon="5.70863">
        <ele>335</ele>
        <time>2014-06-15T09:09:27+0200</time>
      </trkpt>
      <trkpt lat="46.83414" lon="5.70867">
        <ele>335</ele>
        <time>2014-06-15T09:09:42+0200</time>
      </trkpt>
      <trkpt lat="46.83414" lon="5.70867">
        <ele>335</ele>
        <time>2014-06-15T09:09:58+0200</time>
      </trkpt>
      <trkpt lat="46.83418" lon="5.7086">
        <ele>334</ele>
        <time>2014-06-15T09:10:13+0200</time>
      </trkpt>
      <trkpt lat="46.83414" lon="5.70859">
        <ele>335</ele>
        <time>2014-06-15T09:10:30+0200</time>
      </trkpt>
      <trkpt lat="46.83409" lon="5.70857">
        <ele>335</ele>
        <time>2014-06-15T09:10:45+0200</time>
      </trkpt>
      <trkpt lat="46.83409" lon="5.70857">
        <ele>335</ele>
        <time>2014-06-15T09:11:01+0200</time>
      </trkpt>
      <trkpt lat="46.83409" lon="5.70857">
        <ele>335</ele>
        <time>2014-06-15T09:11:16+0200</time>
      </trkpt>
      <trkpt lat="46.83409" lon="5.70857">
        <ele>335</ele>
        <time>2014-06-15T09:11:32+0200</time>
      </trkpt>
      <trkpt lat="46.83409" lon="5.70857">
        <ele>335</ele>
        <time>2014-06-15T09:11:47+0200</time>
      </trkpt>
      <trkpt lat="46.83409" lon="5.70857">
        <ele>335</ele>
        <time>2014-06-15T09:12:03+0200</time>
      </trkpt>
      <trkpt lat="46.83409" lon="5.70857">
        <ele>335</ele>
        <time>2014-06-15T09:12:19+0200</time>
      </trkpt>
      <trkpt lat="46.83409" lon="5.70857">
        <ele>335</ele>
        <time>2014-06-15T09:12:34+0200</time>
      </trkpt>
      <trkpt lat="46.83409" lon="5.70857">
        <ele>335</ele>
        <time>2014-06-15T09:12:50+0200</time>
      </trkpt>
      <trkpt lat="46.83409" lon="5.70857">
        <ele>335</ele>
        <time>2014-06-15T09:13:05+0200</time>
      </trkpt>
      <trkpt lat="46.83409" lon="5.70856">
        <ele>335</ele>
        <time>2014-06-15T09:13:20+0200</time>
      </trkpt>
      <trkpt lat="46.83424" lon="5.70865">
        <ele>335</ele>
        <time>2014-06-15T09:13:36+0200</time>
      </trkpt>
      <trkpt lat="46.83411" lon="5.70871">
        <ele>335</ele>
        <time>2014-06-15T09:13:51+0200</time>
      </trkpt>
      <trkpt lat="46.83377" lon="5.70845">
        <ele>335</ele>
        <time>2014-06-15T09:14:08+0200</time>
      </trkpt>
      <trkpt lat="46.83335" lon="5.70789">
        <ele>333</ele>
        <time>2014-06-15T09:14:23+0200</time>
      </trkpt>
      <trkpt lat="46.83319" lon="5.70741">
        <ele>333</ele>
        <time>2014-06-15T09:14:39+0200</time>
      </trkpt>
      <trkpt lat="46.83319" lon="5.70748">
        <ele>333</ele>
        <time>2014-06-15T09:14:54+0200</time>
      </trkpt>
      <trkpt lat="46.83312" lon="5.70738">
        <ele>333</ele>
        <time>2014-06-15T09:15:09+0200</time>
      </trkpt>
      <trkpt lat="46.83271" lon="5.70685">
        <ele>333</ele>
        <time>2014-06-15T09:15:26+0200</time>
      </trkpt>
      <trkpt lat="46.83218" lon="5.70599">
        <ele>331</ele>
        <time>2014-06-15T09:15:41+0200</time>
      </trkpt>
      <trkpt lat="46.83174" lon="5.70517">
        <ele>329</ele>
        <time>2014-06-15T09:15:57+0200</time>
      </trkpt>
      <trkpt lat="46.83131" lon="5.70455">
        <ele>335</ele>
        <time>2014-06-15T09:16:12+0200</time>
      </trkpt>
      <trkpt lat="46.83094" lon="5.70398">
        <ele>335</ele>
        <time>2014-06-15T09:16:28+0200</time>
      </trkpt>
      <trkpt lat="46.83071" lon="5.70353">
        <ele>341</ele>
        <time>2014-06-15T09:16:44+0200</time>
      </trkpt>
      <trkpt lat="46.83048" lon="5.70304">
        <ele>340</ele>
        <time>2014-06-15T09:16:59+0200</time>
      </trkpt>
      <trkpt lat="46.83022" lon="5.70246">
        <ele>337</ele>
        <time>2014-06-15T09:17:16+0200</time>
      </trkpt>
      <trkpt lat="46.82998" lon="5.70188">
        <ele>343</ele>
        <time>2014-06-15T09:17:31+0200</time>
      </trkpt>
      <trkpt lat="46.8297" lon="5.70137">
        <ele>339</ele>
        <time>2014-06-15T09:17:46+0200</time>
      </trkpt>
      <trkpt lat="46.82926" lon="5.701">
        <ele>340</ele>
        <time>2014-06-15T09:18:02+0200</time>
      </trkpt>
      <trkpt lat="46.82886" lon="5.70062">
        <ele>346</ele>
        <time>2014-06-15T09:18:18+0200</time>
      </trkpt>
      <trkpt lat="46.82856" lon="5.69993">
        <ele>343</ele>
        <time>2014-06-15T09:18:33+0200</time>
      </trkpt>
      <trkpt lat="46.82823" lon="5.6994">
        <ele>347</ele>
        <time>2014-06-15T09:18:48+0200</time>
      </trkpt>
      <trkpt lat="46.82773" lon="5.69903">
        <ele>343</ele>
        <time>2014-06-15T09:19:04+0200</time>
      </trkpt>
      <trkpt lat="46.82719" lon="5.69882">
        <ele>347</ele>
        <time>2014-06-15T09:19:19+0200</time>
      </trkpt>
      <trkpt lat="46.82664" lon="5.69867">
        <ele>351</ele>
        <time>2014-06-15T09:19:34+0200</time>
      </trkpt>
      <trkpt lat="46.82613" lon="5.69852">
        <ele>352</ele>
        <time>2014-06-15T09:19:50+0200</time>
      </trkpt>
      <trkpt lat="46.82563" lon="5.69834">
        <ele>355</ele>
        <time>2014-06-15T09:20:06+0200</time>
      </trkpt>
      <trkpt lat="46.8252" lon="5.69789">
        <ele>349</ele>
        <time>2014-06-15T09:20:21+0200</time>
      </trkpt>
      <trkpt lat="46.82475" lon="5.69738">
        <ele>351</ele>
        <time>2014-06-15T09:20:38+0200</time>
      </trkpt>
      <trkpt lat="46.82437" lon="5.69667">
        <ele>351</ele>
        <time>2014-06-15T09:20:54+0200</time>
      </trkpt>
      <trkpt lat="46.82417" lon="5.69585">
        <ele>354</ele>
        <time>2014-06-15T09:21:10+0200</time>
      </trkpt>
      <trkpt lat="46.82401" lon="5.69524">
        <ele>360</ele>
        <time>2014-06-15T09:21:26+0200</time>
      </trkpt>
      <trkpt lat="46.82388" lon="5.69472">
        <ele>363</ele>
        <time>2014-06-15T09:21:42+0200</time>
      </trkpt>
      <trkpt lat="46.82374" lon="5.69421">
        <ele>366</ele>
        <time>2014-06-15T09:21:57+0200</time>
      </trkpt>
      <trkpt lat="46.82354" lon="5.69379">
        <ele>370</ele>
        <time>2014-06-15T09:22:12+0200</time>
      </trkpt>
      <trkpt lat="46.82331" lon="5.69338">
        <ele>375</ele>
        <time>2014-06-15T09:22:27+0200</time>
      </trkpt>
      <trkpt lat="46.82313" lon="5.69289">
        <ele>377</ele>
        <time>2014-06-15T09:22:43+0200</time>
      </trkpt>
      <trkpt lat="46.82294" lon="5.69245">
        <ele>376</ele>
        <time>2014-06-15T09:22:58+0200</time>
      </trkpt>
      <trkpt lat="46.82279" lon="5.69206">
        <ele>376</ele>
        <time>2014-06-15T09:23:14+0200</time>
      </trkpt>
      <trkpt lat="46.82258" lon="5.69176">
        <ele>377</ele>
        <time>2014-06-15T09:23:29+0200</time>
      </trkpt>
      <trkpt lat="46.82232" lon="5.69135">
        <ele>381</ele>
        <time>2014-06-15T09:23:45+0200</time>
      </trkpt>
      <trkpt lat="46.82208" lon="5.69092">
        <ele>381</ele>
        <time>2014-06-15T09:24:01+0200</time>
      </trkpt>
      <trkpt lat="46.82181" lon="5.6905">
        <ele>379</ele>
        <time>2014-06-15T09:24:17+0200</time>
      </trkpt>
      <trkpt lat="46.82149" lon="5.69001">
        <ele>382</ele>
        <time>2014-06-15T09:24:32+0200</time>
      </trkpt>
      <trkpt lat="46.8211" lon="5.68966">
        <ele>380</ele>
        <time>2014-06-15T09:24:48+0200</time>
      </trkpt>
      <trkpt lat="46.82071" lon="5.68907">
        <ele>380</ele>
        <time>2014-06-15T09:25:03+0200</time>
      </trkpt>
      <trkpt lat="46.82028" lon="5.68832">
        <ele>381</ele>
        <time>2014-06-15T09:25:19+0200</time>
      </trkpt>
      <trkpt lat="46.82001" lon="5.68761">
        <ele>381</ele>
        <time>2014-06-15T09:25:34+0200</time>
      </trkpt>
      <trkpt lat="46.81967" lon="5.68711">
        <ele>385</ele>
        <time>2014-06-15T09:25:50+0200</time>
      </trkpt>
      <trkpt lat="46.81934" lon="5.68643">
        <ele>382</ele>
        <time>2014-06-15T09:26:06+0200</time>
      </trkpt>
      <trkpt lat="46.81925" lon="5.6854">
        <ele>379</ele>
        <time>2014-06-15T09:26:21+0200</time>
      </trkpt>
      <trkpt lat="46.81918" lon="5.68436">
        <ele>378</ele>
        <time>2014-06-15T09:26:37+0200</time>
      </trkpt>
      <trkpt lat="46.81914" lon="5.68358">
        <ele>380</ele>
        <time>2014-06-15T09:26:52+0200</time>
      </trkpt>
      <trkpt lat="46.81919" lon="5.68358">
        <ele>378</ele>
        <time>2014-06-15T09:27:08+0200</time>
      </trkpt>
      <trkpt lat="46.81914" lon="5.68355">
        <ele>380</ele>
        <time>2014-06-15T09:27:24+0200</time>
      </trkpt>
      <trkpt lat="46.81909" lon="5.68354">
        <ele>380</ele>
        <time>2014-06-15T09:27:39+0200</time>
      </trkpt>
      <trkpt lat="46.8191" lon="5.68356">
        <ele>380</ele>
        <time>2014-06-15T09:27:55+0200</time>
      </trkpt>
      <trkpt lat="46.81913" lon="5.68356">
        <ele>380</ele>
        <time>2014-06-15T09:28:10+0200</time>
      </trkpt>
      <trkpt lat="46.81913" lon="5.68356">
        <ele>380</ele>
        <time>2014-06-15T09:28:26+0200</time>
      </trkpt>
      <trkpt lat="46.81913" lon="5.68356">
        <ele>380</ele>
        <time>2014-06-15T09:28:42+0200</time>
      </trkpt>
      <trkpt lat="46.81914" lon="5.68356">
        <ele>380</ele>
        <time>2014-06-15T09:28:57+0200</time>
      </trkpt>
      <trkpt lat="46.81913" lon="5.68358">
        <ele>380</ele>
        <time>2014-06-15T09:29:13+0200</time>
      </trkpt>
      <trkpt lat="46.81912" lon="5.68358">
        <ele>380</ele>
        <time>2014-06-15T09:29:28+0200</time>
      </trkpt>
      <trkpt lat="46.81915" lon="5.6836">
        <ele>380</ele>
        <time>2014-06-15T09:29:43+0200</time>
      </trkpt>
      <trkpt lat="46.81916" lon="5.68357">
        <ele>380</ele>
        <time>2014-06-15T09:29:59+0200</time>
      </trkpt>
      <trkpt lat="46.81916" lon="5.68357">
        <ele>380</ele>
        <time>2014-06-15T09:30:15+0200</time>
      </trkpt>
      <trkpt lat="46.81915" lon="5.68359">
        <ele>380</ele>
        <time>2014-06-15T09:30:30+0200</time>
      </trkpt>
      <trkpt lat="46.8191" lon="5.68356">
        <ele>380</ele>
        <time>2014-06-15T09:30:46+0200</time>
      </trkpt>
      <trkpt lat="46.8191" lon="5.68356">
        <ele>380</ele>
        <time>2014-06-15T09:31:01+0200</time>
      </trkpt>
      <trkpt lat="46.81913" lon="5.68357">
        <ele>380</ele>
        <time>2014-06-15T09:31:16+0200</time>
      </trkpt>
      <trkpt lat="46.81915" lon="5.68359">
        <ele>380</ele>
        <time>2014-06-15T09:31:32+0200</time>
      </trkpt>
      <trkpt lat="46.81918" lon="5.68354">
        <ele>378</ele>
        <time>2014-06-15T09:31:47+0200</time>
      </trkpt>
      <trkpt lat="46.81917" lon="5.68355">
        <ele>380</ele>
        <time>2014-06-15T09:32:04+0200</time>
      </trkpt>
      <trkpt lat="46.81918" lon="5.68357">
        <ele>378</ele>
        <time>2014-06-15T09:32:19+0200</time>
      </trkpt>
      <trkpt lat="46.81919" lon="5.68355">
        <ele>378</ele>
        <time>2014-06-15T09:32:34+0200</time>
      </trkpt>
      <trkpt lat="46.8192" lon="5.68356">
        <ele>378</ele>
        <time>2014-06-15T09:32:50+0200</time>
      </trkpt>
      <trkpt lat="46.81915" lon="5.68357">
        <ele>380</ele>
        <time>2014-06-15T09:33:06+0200</time>
      </trkpt>
      <trkpt lat="46.81911" lon="5.68356">
        <ele>380</ele>
        <time>2014-06-15T09:33:21+0200</time>
      </trkpt>
      <trkpt lat="46.81915" lon="5.68355">
        <ele>380</ele>
        <time>2014-06-15T09:33:36+0200</time>
      </trkpt>
      <trkpt lat="46.81914" lon="5.68352">
        <ele>380</ele>
        <time>2014-06-15T09:33:52+0200</time>
      </trkpt>
      <trkpt lat="46.81914" lon="5.68352">
        <ele>380</ele>
        <time>2014-06-15T09:34:08+0200</time>
      </trkpt>
      <trkpt lat="46.81915" lon="5.68356">
        <ele>380</ele>
        <time>2014-06-15T09:34:23+0200</time>
      </trkpt>
      <trkpt lat="46.81895" lon="5.68334">
        <ele>381</ele>
        <time>2014-06-15T09:34:40+0200</time>
      </trkpt>
      <trkpt lat="46.81866" lon="5.68294">
        <ele>381</ele>
        <time>2014-06-15T09:34:55+0200</time>
      </trkpt>
      <trkpt lat="46.81833" lon="5.68239">
        <ele>381</ele>
        <time>2014-06-15T09:35:11+0200</time>
      </trkpt>
      <trkpt lat="46.81787" lon="5.68175">
        <ele>381</ele>
        <time>2014-06-15T09:35:26+0200</time>
      </trkpt>
      <trkpt lat="46.81737" lon="5.68121">
        <ele>382</ele>
        <time>2014-06-15T09:35:42+0200</time>
      </trkpt>
      <trkpt lat="46.81687" lon="5.68054">
        <ele>381</ele>
        <time>2014-06-15T09:35:57+0200</time>
      </trkpt>
      <trkpt lat="46.81637" lon="5.67996">
        <ele>383</ele>
        <time>2014-06-15T09:36:13+0200</time>
      </trkpt>
      <trkpt lat="46.81638" lon="5.67956">
        <ele>384</ele>
        <time>2014-06-15T09:36:29+0200</time>
      </trkpt>
      <trkpt lat="46.81655" lon="5.679">
        <ele>383</ele>
        <time>2014-06-15T09:36:45+0200</time>
      </trkpt>
      <trkpt lat="46.81696" lon="5.67846">
        <ele>382</ele>
        <time>2014-06-15T09:37:01+0200</time>
      </trkpt>
      <trkpt lat="46.8177" lon="5.67825">
        <ele>378</ele>
        <time>2014-06-15T09:37:16+0200</time>
      </trkpt>
      <trkpt lat="46.81855" lon="5.67632">
        <ele>365</ele>
        <time>2014-06-15T09:37:32+0200</time>
      </trkpt>
      <trkpt lat="46.81955" lon="5.67448">
        <ele>362</ele>
        <time>2014-06-15T09:37:47+0200</time>
      </trkpt>
      <trkpt lat="46.82019" lon="5.67322">
        <ele>367</ele>
        <time>2014-06-15T09:38:02+0200</time>
      </trkpt>
      <trkpt lat="46.82097" lon="5.67258">
        <ele>371</ele>
        <time>2014-06-15T09:38:18+0200</time>
      </trkpt>
      <trkpt lat="46.82162" lon="5.67191">
        <ele>371</ele>
        <time>2014-06-15T09:38:33+0200</time>
      </trkpt>
      <trkpt lat="46.82209" lon="5.67105">
        <ele>370</ele>
        <time>2014-06-15T09:38:48+0200</time>
      </trkpt>
      <trkpt lat="46.82251" lon="5.67013">
        <ele>373</ele>
        <time>2014-06-15T09:39:04+0200</time>
      </trkpt>
      <trkpt lat="46.82276" lon="5.66935">
        <ele>372</ele>
        <time>2014-06-15T09:39:19+0200</time>
      </trkpt>
      <trkpt lat="46.8229" lon="5.66837">
        <ele>368</ele>
        <time>2014-06-15T09:39:34+0200</time>
      </trkpt>
      <trkpt lat="46.82305" lon="5.66682">
        <ele>363</ele>
        <time>2014-06-15T09:39:50+0200</time>
      </trkpt>
      <trkpt lat="46.8232" lon="5.6653">
        <ele>358</ele>
        <time>2014-06-15T09:40:05+0200</time>
      </trkpt>
      <trkpt lat="46.82329" lon="5.66381">
        <ele>355</ele>
        <time>2014-06-15T09:40:20+0200</time>
      </trkpt>
      <trkpt lat="46.82328" lon="5.66182">
        <ele>358</ele>
        <time>2014-06-15T09:40:36+0200</time>
      </trkpt>
      <trkpt lat="46.82319" lon="5.65989">
        <ele>348</ele>
        <time>2014-06-15T09:40:51+0200</time>
      </trkpt>
      <trkpt lat="46.82293" lon="5.65762">
        <ele>338</ele>
        <time>2014-06-15T09:41:07+0200</time>
      </trkpt>
      <trkpt lat="46.82254" lon="5.65576">
        <ele>329</ele>
        <time>2014-06-15T09:41:22+0200</time>
      </trkpt>
      <trkpt lat="46.82234" lon="5.65433">
        <ele>327</ele>
        <time>2014-06-15T09:41:37+0200</time>
      </trkpt>
      <trkpt lat="46.82235" lon="5.65394">
        <ele>327</ele>
        <time>2014-06-15T09:41:52+0200</time>
      </trkpt>
      <trkpt lat="46.82235" lon="5.65394">
        <ele>327</ele>
        <time>2014-06-15T09:42:07+0200</time>
      </trkpt>
      <trkpt lat="46.82235" lon="5.65394">
        <ele>327</ele>
        <time>2014-06-15T09:42:23+0200</time>
      </trkpt>
      <trkpt lat="46.82235" lon="5.65395">
        <ele>327</ele>
        <time>2014-06-15T09:42:38+0200</time>
      </trkpt>
      <trkpt lat="46.82235" lon="5.65394">
        <ele>327</ele>
        <time>2014-06-15T09:42:53+0200</time>
      </trkpt>
      <trkpt lat="46.82235" lon="5.65394">
        <ele>327</ele>
        <time>2014-06-15T09:43:08+0200</time>
      </trkpt>
      <trkpt lat="46.82235" lon="5.65394">
        <ele>327</ele>
        <time>2014-06-15T09:43:24+0200</time>
      </trkpt>
      <trkpt lat="46.82235" lon="5.65394">
        <ele>327</ele>
        <time>2014-06-15T09:43:40+0200</time>
      </trkpt>
      <trkpt lat="46.82233" lon="5.65397">
        <ele>326</ele>
        <time>2014-06-15T09:43:55+0200</time>
      </trkpt>
      <trkpt lat="46.82221" lon="5.65311">
        <ele>324</ele>
        <time>2014-06-15T09:44:11+0200</time>
      </trkpt>
      <trkpt lat="46.82192" lon="5.65124">
        <ele>316</ele>
        <time>2014-06-15T09:44:27+0200</time>
      </trkpt>
      <trkpt lat="46.82211" lon="5.64907">
        <ele>307</ele>
        <time>2014-06-15T09:44:43+0200</time>
      </trkpt>
      <trkpt lat="46.82272" lon="5.64693">
        <ele>298</ele>
        <time>2014-06-15T09:44:58+0200</time>
      </trkpt>
      <trkpt lat="46.82353" lon="5.64548">
        <ele>295</ele>
        <time>2014-06-15T09:45:13+0200</time>
      </trkpt>
      <trkpt lat="46.82414" lon="5.64488">
        <ele>296</ele>
        <time>2014-06-15T09:45:28+0200</time>
      </trkpt>
      <trkpt lat="46.82444" lon="5.64444">
        <ele>300</ele>
        <time>2014-06-15T09:45:44+0200</time>
      </trkpt>
      <trkpt lat="46.82468" lon="5.64408">
        <ele>303</ele>
        <time>2014-06-15T09:46:00+0200</time>
      </trkpt>
      <trkpt lat="46.82492" lon="5.64379">
        <ele>303</ele>
        <time>2014-06-15T09:46:16+0200</time>
      </trkpt>
      <trkpt lat="46.82503" lon="5.64347">
        <ele>307</ele>
        <time>2014-06-15T09:46:32+0200</time>
      </trkpt>
      <trkpt lat="46.82445" lon="5.64307">
        <ele>305</ele>
        <time>2014-06-15T09:46:47+0200</time>
      </trkpt>
      <trkpt lat="46.82414" lon="5.64247">
        <ele>306</ele>
        <time>2014-06-15T09:47:02+0200</time>
      </trkpt>
      <trkpt lat="46.8239" lon="5.64195">
        <ele>306</ele>
        <time>2014-06-15T09:47:18+0200</time>
      </trkpt>
      <trkpt lat="46.82359" lon="5.64104">
        <ele>308</ele>
        <time>2014-06-15T09:47:34+0200</time>
      </trkpt>
      <trkpt lat="46.82342" lon="5.63981">
        <ele>308</ele>
        <time>2014-06-15T09:47:50+0200</time>
      </trkpt>
      <trkpt lat="46.82352" lon="5.63819">
        <ele>297</ele>
        <time>2014-06-15T09:48:05+0200</time>
      </trkpt>
      <trkpt lat="46.82285" lon="5.63739">
        <ele>284</ele>
        <time>2014-06-15T09:48:20+0200</time>
      </trkpt>
      <trkpt lat="46.82139" lon="5.63605">
        <ele>287</ele>
        <time>2014-06-15T09:48:35+0200</time>
      </trkpt>
      <trkpt lat="46.82056" lon="5.63487">
        <ele>286</ele>
        <time>2014-06-15T09:48:51+0200</time>
      </trkpt>
      <trkpt lat="46.81973" lon="5.63427">
        <ele>295</ele>
        <time>2014-06-15T09:49:07+0200</time>
      </trkpt>
      <trkpt lat="46.81915" lon="5.63379">
        <ele>294</ele>
        <time>2014-06-15T09:49:23+0200</time>
      </trkpt>
      <trkpt lat="46.81886" lon="5.63338">
        <ele>291</ele>
        <time>2014-06-15T09:49:38+0200</time>
      </trkpt>
      <trkpt lat="46.81852" lon="5.63288">
        <ele>286</ele>
        <time>2014-06-15T09:49:54+0200</time>
      </trkpt>
      <trkpt lat="46.81836" lon="5.63222">
        <ele>284</ele>
        <time>2014-06-15T09:50:10+0200</time>
      </trkpt>
      <trkpt lat="46.81814" lon="5.63172">
        <ele>291</ele>
        <time>2014-06-15T09:50:26+0200</time>
      </trkpt>
      <trkpt lat="46.81775" lon="5.63135">
        <ele>292</ele>
        <time>2014-06-15T09:50:42+0200</time>
      </trkpt>
      <trkpt lat="46.81745" lon="5.63102">
        <ele>295</ele>
        <time>2014-06-15T09:50:57+0200</time>
      </trkpt>
      <trkpt lat="46.8171" lon="5.63065">
        <ele>294</ele>
        <time>2014-06-15T09:51:12+0200</time>
      </trkpt>
      <trkpt lat="46.81672" lon="5.63028">
        <ele>295</ele>
        <time>2014-06-15T09:51:28+0200</time>
      </trkpt>
      <trkpt lat="46.81637" lon="5.62997">
        <ele>299</ele>
        <time>2014-06-15T09:51:43+0200</time>
      </trkpt>
      <trkpt lat="46.81606" lon="5.62965">
        <ele>301</ele>
        <time>2014-06-15T09:51:59+0200</time>
      </trkpt>
      <trkpt lat="46.81577" lon="5.62927">
        <ele>304</ele>
        <time>2014-06-15T09:52:14+0200</time>
      </trkpt>
      <trkpt lat="46.81512" lon="5.62877">
        <ele>303</ele>
        <time>2014-06-15T09:52:29+0200</time>
      </trkpt>
      <trkpt lat="46.81416" lon="5.62759">
        <ele>302</ele>
        <time>2014-06-15T09:52:45+0200</time>
      </trkpt>
      <trkpt lat="46.81354" lon="5.62672">
        <ele>305</ele>
        <time>2014-06-15T09:53:01+0200</time>
      </trkpt>
      <trkpt lat="46.81328" lon="5.62602">
        <ele>308</ele>
        <time>2014-06-15T09:53:16+0200</time>
      </trkpt>
      <trkpt lat="46.81313" lon="5.62528">
        <ele>308</ele>
        <time>2014-06-15T09:53:32+0200</time>
      </trkpt>
      <trkpt lat="46.81291" lon="5.62466">
        <ele>310</ele>
        <time>2014-06-15T09:53:48+0200</time>
      </trkpt>
      <trkpt lat="46.81271" lon="5.62412">
        <ele>312</ele>
        <time>2014-06-15T09:54:03+0200</time>
      </trkpt>
      <trkpt lat="46.81251" lon="5.62355">
        <ele>312</ele>
        <time>2014-06-15T09:54:19+0200</time>
      </trkpt>
      <trkpt lat="46.81219" lon="5.62309">
        <ele>315</ele>
        <time>2014-06-15T09:54:34+0200</time>
      </trkpt>
      <trkpt lat="46.81183" lon="5.62282">
        <ele>317</ele>
        <time>2014-06-15T09:54:49+0200</time>
      </trkpt>
      <trkpt lat="46.81141" lon="5.6227">
        <ele>321</ele>
        <time>2014-06-15T09:55:04+0200</time>
      </trkpt>
      <trkpt lat="46.81096" lon="5.62265">
        <ele>322</ele>
        <time>2014-06-15T09:55:20+0200</time>
      </trkpt>
      <trkpt lat="46.81054" lon="5.62263">
        <ele>325</ele>
        <time>2014-06-15T09:55:36+0200</time>
      </trkpt>
      <trkpt lat="46.81013" lon="5.62268">
        <ele>326</ele>
        <time>2014-06-15T09:55:51+0200</time>
      </trkpt>
      <trkpt lat="46.8097" lon="5.62266">
        <ele>330</ele>
        <time>2014-06-15T09:56:06+0200</time>
      </trkpt>
      <trkpt lat="46.80924" lon="5.6224">
        <ele>329</ele>
        <time>2014-06-15T09:56:22+0200</time>
      </trkpt>
      <trkpt lat="46.80876" lon="5.62212">
        <ele>332</ele>
        <time>2014-06-15T09:56:38+0200</time>
      </trkpt>
      <trkpt lat="46.80851" lon="5.62191">
        <ele>332</ele>
        <time>2014-06-15T09:56:54+0200</time>
      </trkpt>
      <trkpt lat="46.80853" lon="5.62191">
        <ele>332</ele>
        <time>2014-06-15T09:57:10+0200</time>
      </trkpt>
      <trkpt lat="46.80853" lon="5.62191">
        <ele>332</ele>
        <time>2014-06-15T09:57:25+0200</time>
      </trkpt>
      <trkpt lat="46.80854" lon="5.62194">
        <ele>332</ele>
        <time>2014-06-15T09:57:41+0200</time>
      </trkpt>
      <trkpt lat="46.80849" lon="5.62193">
        <ele>332</ele>
        <time>2014-06-15T09:57:57+0200</time>
      </trkpt>
      <trkpt lat="46.80799" lon="5.62142">
        <ele>331</ele>
        <time>2014-06-15T09:58:13+0200</time>
      </trkpt>
      <trkpt lat="46.80774" lon="5.62107">
        <ele>331</ele>
        <time>2014-06-15T09:58:29+0200</time>
      </trkpt>
      <trkpt lat="46.80774" lon="5.62114">
        <ele>331</ele>
        <time>2014-06-15T09:58:44+0200</time>
      </trkpt>
      <trkpt lat="46.80773" lon="5.62112">
        <ele>331</ele>
        <time>2014-06-15T09:59:00+0200</time>
      </trkpt>
      <trkpt lat="46.80773" lon="5.62112">
        <ele>331</ele>
        <time>2014-06-15T09:59:15+0200</time>
      </trkpt>
      <trkpt lat="46.80774" lon="5.6211">
        <ele>331</ele>
        <time>2014-06-15T09:59:30+0200</time>
      </trkpt>
      <trkpt lat="46.80776" lon="5.6211">
        <ele>331</ele>
        <time>2014-06-15T09:59:46+0200</time>
      </trkpt>
      <trkpt lat="46.80775" lon="5.62109">
        <ele>331</ele>
        <time>2014-06-15T10:00:01+0200</time>
      </trkpt>
      <trkpt lat="46.80775" lon="5.62109">
        <ele>331</ele>
        <time>2014-06-15T10:00:16+0200</time>
      </trkpt>
      <trkpt lat="46.80775" lon="5.62109">
        <ele>331</ele>
        <time>2014-06-15T10:00:32+0200</time>
      </trkpt>
      <trkpt lat="46.80775" lon="5.62109">
        <ele>331</ele>
        <time>2014-06-15T10:00:47+0200</time>
      </trkpt>
      <trkpt lat="46.80775" lon="5.62109">
        <ele>331</ele>
        <time>2014-06-15T10:01:03+0200</time>
      </trkpt>
      <trkpt lat="46.80775" lon="5.62109">
        <ele>331</ele>
        <time>2014-06-15T10:01:19+0200</time>
      </trkpt>
      <trkpt lat="46.80775" lon="5.62109">
        <ele>331</ele>
        <time>2014-06-15T10:01:34+0200</time>
      </trkpt>
      <trkpt lat="46.80775" lon="5.62109">
        <ele>331</ele>
        <time>2014-06-15T10:01:49+0200</time>
      </trkpt>
      <trkpt lat="46.80775" lon="5.62109">
        <ele>331</ele>
        <time>2014-06-15T10:02:05+0200</time>
      </trkpt>
      <trkpt lat="46.80775" lon="5.62109">
        <ele>331</ele>
        <time>2014-06-15T10:02:20+0200</time>
      </trkpt>
      <trkpt lat="46.80775" lon="5.62109">
        <ele>331</ele>
        <time>2014-06-15T10:02:35+0200</time>
      </trkpt>
      <trkpt lat="46.80775" lon="5.62109">
        <ele>331</ele>
        <time>2014-06-15T10:02:51+0200</time>
      </trkpt>
      <trkpt lat="46.80775" lon="5.62109">
        <ele>331</ele>
        <time>2014-06-15T10:03:06+0200</time>
      </trkpt>
      <trkpt lat="46.80775" lon="5.62109">
        <ele>331</ele>
        <time>2014-06-15T10:03:22+0200</time>
      </trkpt>
      <trkpt lat="46.8077" lon="5.62111">
        <ele>331</ele>
        <time>2014-06-15T10:03:38+0200</time>
      </trkpt>
      <trkpt lat="46.8077" lon="5.62111">
        <ele>331</ele>
        <time>2014-06-15T10:03:54+0200</time>
      </trkpt>
      <trkpt lat="46.8077" lon="5.62111">
        <ele>331</ele>
        <time>2014-06-15T10:04:09+0200</time>
      </trkpt>
      <trkpt lat="46.8077" lon="5.62111">
        <ele>331</ele>
        <time>2014-06-15T10:04:25+0200</time>
      </trkpt>
      <trkpt lat="46.80773" lon="5.62108">
        <ele>331</ele>
        <time>2014-06-15T10:04:41+0200</time>
      </trkpt>
      <trkpt lat="46.80774" lon="5.62108">
        <ele>331</ele>
        <time>2014-06-15T10:04:57+0200</time>
      </trkpt>
      <trkpt lat="46.80771" lon="5.62109">
        <ele>331</ele>
        <time>2014-06-15T10:05:12+0200</time>
      </trkpt>
      <trkpt lat="46.8077" lon="5.62111">
        <ele>331</ele>
        <time>2014-06-15T10:05:28+0200</time>
      </trkpt>
      <trkpt lat="46.80775" lon="5.6211">
        <ele>331</ele>
        <time>2014-06-15T10:05:44+0200</time>
      </trkpt>
      <trkpt lat="46.80777" lon="5.62102">
        <ele>331</ele>
        <time>2014-06-15T10:05:59+0200</time>
      </trkpt>
      <trkpt lat="46.80777" lon="5.62102">
        <ele>331</ele>
        <time>2014-06-15T10:06:15+0200</time>
      </trkpt>
      <trkpt lat="46.80776" lon="5.62104">
        <ele>331</ele>
        <time>2014-06-15T10:06:31+0200</time>
      </trkpt>
      <trkpt lat="46.80773" lon="5.62106">
        <ele>331</ele>
        <time>2014-06-15T10:06:46+0200</time>
      </trkpt>
      <trkpt lat="46.80775" lon="5.62108">
        <ele>331</ele>
        <time>2014-06-15T10:07:01+0200</time>
      </trkpt>
      <trkpt lat="46.80774" lon="5.62108">
        <ele>331</ele>
        <time>2014-06-15T10:07:16+0200</time>
      </trkpt>
      <trkpt lat="46.80774" lon="5.62111">
        <ele>331</ele>
        <time>2014-06-15T10:07:32+0200</time>
      </trkpt>
      <trkpt lat="46.8078" lon="5.62113">
        <ele>331</ele>
        <time>2014-06-15T10:07:48+0200</time>
      </trkpt>
      <trkpt lat="46.80779" lon="5.62112">
        <ele>331</ele>
        <time>2014-06-15T10:08:04+0200</time>
      </trkpt>
      <trkpt lat="46.80781" lon="5.62112">
        <ele>331</ele>
        <time>2014-06-15T10:08:20+0200</time>
      </trkpt>
      <trkpt lat="46.80777" lon="5.62114">
        <ele>331</ele>
        <time>2014-06-15T10:08:35+0200</time>
      </trkpt>
      <trkpt lat="46.80774" lon="5.62112">
        <ele>331</ele>
        <time>2014-06-15T10:08:51+0200</time>
      </trkpt>
      <trkpt lat="46.80778" lon="5.62114">
        <ele>331</ele>
        <time>2014-06-15T10:09:06+0200</time>
      </trkpt>
      <trkpt lat="46.80774" lon="5.62111">
        <ele>331</ele>
        <time>2014-06-15T10:09:22+0200</time>
      </trkpt>
      <trkpt lat="46.80774" lon="5.62112">
        <ele>331</ele>
        <time>2014-06-15T10:09:38+0200</time>
      </trkpt>
      <trkpt lat="46.80776" lon="5.6211">
        <ele>331</ele>
        <time>2014-06-15T10:09:53+0200</time>
      </trkpt>
      <trkpt lat="46.8076" lon="5.62103">
        <ele>331</ele>
        <time>2014-06-15T10:10:09+0200</time>
      </trkpt>
      <trkpt lat="46.80633" lon="5.62056">
        <ele>324</ele>
        <time>2014-06-15T10:10:25+0200</time>
      </trkpt>
      <trkpt lat="46.80461" lon="5.62016">
        <ele>320</ele>
        <time>2014-06-15T10:10:40+0200</time>
      </trkpt>
      <trkpt lat="46.80283" lon="5.61981">
        <ele>315</ele>
        <time>2014-06-15T10:10:55+0200</time>
      </trkpt>
      <trkpt lat="46.80159" lon="5.6192">
        <ele>327</ele>
        <time>2014-06-15T10:11:11+0200</time>
      </trkpt>
      <trkpt lat="46.80095" lon="5.61893">
        <ele>324</ele>
        <time>2014-06-15T10:11:27+0200</time>
      </trkpt>
      <trkpt lat="46.80033" lon="5.61865">
        <ele>327</ele>
        <time>2014-06-15T10:11:43+0200</time>
      </trkpt>
      <trkpt lat="46.79988" lon="5.61868">
        <ele>329</ele>
        <time>2014-06-15T10:11:58+0200</time>
      </trkpt>
      <trkpt lat="46.79946" lon="5.6188">
        <ele>330</ele>
        <time>2014-06-15T10:12:14+0200</time>
      </trkpt>
      <trkpt lat="46.7991" lon="5.61878">
        <ele>330</ele>
        <time>2014-06-15T10:12:30+0200</time>
      </trkpt>
      <trkpt lat="46.79836" lon="5.61871">
        <ele>329</ele>
        <time>2014-06-15T10:12:45+0200</time>
      </trkpt>
      <trkpt lat="46.79746" lon="5.61859">
        <ele>328</ele>
        <time>2014-06-15T10:13:01+0200</time>
      </trkpt>
      <trkpt lat="46.79694" lon="5.61871">
        <ele>329</ele>
        <time>2014-06-15T10:13:16+0200</time>
      </trkpt>
      <trkpt lat="46.79655" lon="5.61906">
        <ele>331</ele>
        <time>2014-06-15T10:13:31+0200</time>
      </trkpt>
      <trkpt lat="46.79624" lon="5.61907">
        <ele>331</ele>
        <time>2014-06-15T10:13:47+0200</time>
      </trkpt>
      <trkpt lat="46.79593" lon="5.61887">
        <ele>331</ele>
        <time>2014-06-15T10:14:03+0200</time>
      </trkpt>
      <trkpt lat="46.79562" lon="5.61859">
        <ele>334</ele>
        <time>2014-06-15T10:14:18+0200</time>
      </trkpt>
      <trkpt lat="46.79532" lon="5.6183">
        <ele>332</ele>
        <time>2014-06-15T10:14:33+0200</time>
      </trkpt>
      <trkpt lat="46.79501" lon="5.61806">
        <ele>333</ele>
        <time>2014-06-15T10:14:49+0200</time>
      </trkpt>
      <trkpt lat="46.79469" lon="5.61795">
        <ele>335</ele>
        <time>2014-06-15T10:15:05+0200</time>
      </trkpt>
      <trkpt lat="46.79438" lon="5.61783">
        <ele>335</ele>
        <time>2014-06-15T10:15:21+0200</time>
      </trkpt>
      <trkpt lat="46.79398" lon="5.61772">
        <ele>338</ele>
        <time>2014-06-15T10:15:37+0200</time>
      </trkpt>
      <trkpt lat="46.79364" lon="5.61764">
        <ele>340</ele>
        <time>2014-06-15T10:15:53+0200</time>
      </trkpt>
      <trkpt lat="46.79338" lon="5.61752">
        <ele>341</ele>
        <time>2014-06-15T10:16:08+0200</time>
      </trkpt>
      <trkpt lat="46.79296" lon="5.61739">
        <ele>341</ele>
        <time>2014-06-15T10:16:24+0200</time>
      </trkpt>
      <trkpt lat="46.79238" lon="5.61721">
        <ele>343</ele>
        <time>2014-06-15T10:16:40+0200</time>
      </trkpt>
      <trkpt lat="46.79201" lon="5.61708">
        <ele>343</ele>
        <time>2014-06-15T10:16:55+0200</time>
      </trkpt>
      <trkpt lat="46.79141" lon="5.61701">
        <ele>343</ele>
        <time>2014-06-15T10:17:11+0200</time>
      </trkpt>
      <trkpt lat="46.79026" lon="5.61666">
        <ele>342</ele>
        <time>2014-06-15T10:17:27+0200</time>
      </trkpt>
      <trkpt lat="46.78957" lon="5.61592">
        <ele>347</ele>
        <time>2014-06-15T10:17:43+0200</time>
      </trkpt>
      <trkpt lat="46.78909" lon="5.61565">
        <ele>350</ele>
        <time>2014-06-15T10:17:59+0200</time>
      </trkpt>
      <trkpt lat="46.78854" lon="5.61541">
        <ele>350</ele>
        <time>2014-06-15T10:18:14+0200</time>
      </trkpt>
      <trkpt lat="46.78827" lon="5.61469">
        <ele>348</ele>
        <time>2014-06-15T10:18:30+0200</time>
      </trkpt>
      <trkpt lat="46.78721" lon="5.61317">
        <ele>332</ele>
        <time>2014-06-15T10:18:45+0200</time>
      </trkpt>
      <trkpt lat="46.78599" lon="5.61217">
        <ele>323</ele>
        <time>2014-06-15T10:19:01+0200</time>
      </trkpt>
      <trkpt lat="46.7849" lon="5.61195">
        <ele>314</ele>
        <time>2014-06-15T10:19:16+0200</time>
      </trkpt>
      <trkpt lat="46.78375" lon="5.61287">
        <ele>317</ele>
        <time>2014-06-15T10:19:32+0200</time>
      </trkpt>
      <trkpt lat="46.78314" lon="5.6123">
        <ele>323</ele>
        <time>2014-06-15T10:19:47+0200</time>
      </trkpt>
      <trkpt lat="46.78297" lon="5.6115">
        <ele>321</ele>
        <time>2014-06-15T10:20:02+0200</time>
      </trkpt>
      <trkpt lat="46.7828" lon="5.61073">
        <ele>319</ele>
        <time>2014-06-15T10:20:18+0200</time>
      </trkpt>
      <trkpt lat="46.78224" lon="5.61042">
        <ele>323</ele>
        <time>2014-06-15T10:20:34+0200</time>
      </trkpt>
      <trkpt lat="46.78165" lon="5.61019">
        <ele>324</ele>
        <time>2014-06-15T10:20:50+0200</time>
      </trkpt>
      <trkpt lat="46.78109" lon="5.60996">
        <ele>323</ele>
        <time>2014-06-15T10:21:05+0200</time>
      </trkpt>
      <trkpt lat="46.78056" lon="5.6095">
        <ele>327</ele>
        <time>2014-06-15T10:21:21+0200</time>
      </trkpt>
      <trkpt lat="46.78012" lon="5.609">
        <ele>325</ele>
        <time>2014-06-15T10:21:36+0200</time>
      </trkpt>
      <trkpt lat="46.77962" lon="5.60844">
        <ele>329</ele>
        <time>2014-06-15T10:21:52+0200</time>
      </trkpt>
      <trkpt lat="46.77911" lon="5.60785">
        <ele>329</ele>
        <time>2014-06-15T10:22:08+0200</time>
      </trkpt>
      <trkpt lat="46.7786" lon="5.60746">
        <ele>326</ele>
        <time>2014-06-15T10:22:23+0200</time>
      </trkpt>
      <trkpt lat="46.77792" lon="5.6071">
        <ele>329</ele>
        <time>2014-06-15T10:22:39+0200</time>
      </trkpt>
      <trkpt lat="46.77712" lon="5.60663">
        <ele>326</ele>
        <time>2014-06-15T10:22:54+0200</time>
      </trkpt>
      <trkpt lat="46.7758" lon="5.60527">
        <ele>320</ele>
        <time>2014-06-15T10:23:10+0200</time>
      </trkpt>
      <trkpt lat="46.77405" lon="5.60414">
        <ele>303</ele>
        <time>2014-06-15T10:23:26+0200</time>
      </trkpt>
      <trkpt lat="46.77247" lon="5.60325">
        <ele>293</ele>
        <time>2014-06-15T10:23:41+0200</time>
      </trkpt>
      <trkpt lat="46.77134" lon="5.60368">
        <ele>281</ele>
        <time>2014-06-15T10:23:56+0200</time>
      </trkpt>
      <trkpt lat="46.7707" lon="5.60556">
        <ele>273</ele>
        <time>2014-06-15T10:24:11+0200</time>
      </trkpt>
      <trkpt lat="46.77035" lon="5.60655">
        <ele>272</ele>
        <time>2014-06-15T10:24:27+0200</time>
      </trkpt>
      <trkpt lat="46.77005" lon="5.6049">
        <ele>264</ele>
        <time>2014-06-15T10:24:43+0200</time>
      </trkpt>
      <trkpt lat="46.76903" lon="5.60313">
        <ele>251</ele>
        <time>2014-06-15T10:24:59+0200</time>
      </trkpt>
      <trkpt lat="46.76781" lon="5.60147">
        <ele>244</ele>
        <time>2014-06-15T10:25:15+0200</time>
      </trkpt>
      <trkpt lat="46.76704" lon="5.60036">
        <ele>244</ele>
        <time>2014-06-15T10:25:30+0200</time>
      </trkpt>
      <trkpt lat="46.76651" lon="5.59969">
        <ele>245</ele>
        <time>2014-06-15T10:25:46+0200</time>
      </trkpt>
      <trkpt lat="46.76632" lon="5.59914">
        <ele>246</ele>
        <time>2014-06-15T10:26:01+0200</time>
      </trkpt>
      <trkpt lat="46.7661" lon="5.59835">
        <ele>247</ele>
        <time>2014-06-15T10:26:17+0200</time>
      </trkpt>
      <trkpt lat="46.76613" lon="5.59848">
        <ele>247</ele>
        <time>2014-06-15T10:26:33+0200</time>
      </trkpt>
      <trkpt lat="46.76611" lon="5.59847">
        <ele>247</ele>
        <time>2014-06-15T10:26:48+0200</time>
      </trkpt>
      <trkpt lat="46.76611" lon="5.59853">
        <ele>247</ele>
        <time>2014-06-15T10:27:04+0200</time>
      </trkpt>
      <trkpt lat="46.7661" lon="5.59832">
        <ele>247</ele>
        <time>2014-06-15T10:27:20+0200</time>
      </trkpt>
      <trkpt lat="46.76582" lon="5.5979">
        <ele>251</ele>
        <time>2014-06-15T10:27:36+0200</time>
      </trkpt>
      <trkpt lat="46.76538" lon="5.59758">
        <ele>251</ele>
        <time>2014-06-15T10:27:51+0200</time>
      </trkpt>
      <trkpt lat="46.76519" lon="5.59745">
        <ele>252</ele>
        <time>2014-06-15T10:28:07+0200</time>
      </trkpt>
      <trkpt lat="46.7652" lon="5.59746">
        <ele>252</ele>
        <time>2014-06-15T10:28:23+0200</time>
      </trkpt>
      <trkpt lat="46.7652" lon="5.59746">
        <ele>252</ele>
        <time>2014-06-15T10:28:38+0200</time>
      </trkpt>
      <trkpt lat="46.7652" lon="5.59746">
        <ele>252</ele>
        <time>2014-06-15T10:28:53+0200</time>
      </trkpt>
      <trkpt lat="46.7652" lon="5.59746">
        <ele>252</ele>
        <time>2014-06-15T10:29:09+0200</time>
      </trkpt>
      <trkpt lat="46.76519" lon="5.59745">
        <ele>252</ele>
        <time>2014-06-15T10:29:25+0200</time>
      </trkpt>
      <trkpt lat="46.76519" lon="5.59745">
        <ele>252</ele>
        <time>2014-06-15T10:29:40+0200</time>
      </trkpt>
      <trkpt lat="46.76519" lon="5.59745">
        <ele>252</ele>
        <time>2014-06-15T10:29:55+0200</time>
      </trkpt>
      <trkpt lat="46.7652" lon="5.59746">
        <ele>252</ele>
        <time>2014-06-15T10:30:11+0200</time>
      </trkpt>
      <trkpt lat="46.7652" lon="5.59746">
        <ele>252</ele>
        <time>2014-06-15T10:30:26+0200</time>
      </trkpt>
      <trkpt lat="46.76519" lon="5.59745">
        <ele>252</ele>
        <time>2014-06-15T10:30:42+0200</time>
      </trkpt>
      <trkpt lat="46.7652" lon="5.59746">
        <ele>252</ele>
        <time>2014-06-15T10:30:58+0200</time>
      </trkpt>
      <trkpt lat="46.7652" lon="5.59746">
        <ele>252</ele>
        <time>2014-06-15T10:31:13+0200</time>
      </trkpt>
      <trkpt lat="46.7652" lon="5.59746">
        <ele>252</ele>
        <time>2014-06-15T10:31:29+0200</time>
      </trkpt>
      <trkpt lat="46.7652" lon="5.59746">
        <ele>252</ele>
        <time>2014-06-15T10:31:45+0200</time>
      </trkpt>
      <trkpt lat="46.76521" lon="5.59746">
        <ele>252</ele>
        <time>2014-06-15T10:32:01+0200</time>
      </trkpt>
      <trkpt lat="46.76521" lon="5.59746">
        <ele>252</ele>
        <time>2014-06-15T10:32:16+0200</time>
      </trkpt>
      <trkpt lat="46.76521" lon="5.59746">
        <ele>252</ele>
        <time>2014-06-15T10:32:31+0200</time>
      </trkpt>
      <trkpt lat="46.76521" lon="5.59746">
        <ele>252</ele>
        <time>2014-06-15T10:32:46+0200</time>
      </trkpt>
      <trkpt lat="46.76521" lon="5.59746">
        <ele>252</ele>
        <time>2014-06-15T10:33:02+0200</time>
      </trkpt>
      <trkpt lat="46.76521" lon="5.59746">
        <ele>252</ele>
        <time>2014-06-15T10:33:17+0200</time>
      </trkpt>
      <trkpt lat="46.76521" lon="5.59746">
        <ele>252</ele>
        <time>2014-06-15T10:33:33+0200</time>
      </trkpt>
      <trkpt lat="46.76521" lon="5.59746">
        <ele>252</ele>
        <time>2014-06-15T10:33:49+0200</time>
      </trkpt>
      <trkpt lat="46.76521" lon="5.59746">
        <ele>252</ele>
        <time>2014-06-15T10:34:05+0200</time>
      </trkpt>
      <trkpt lat="46.7652" lon="5.59746">
        <ele>252</ele>
        <time>2014-06-15T10:34:20+0200</time>
      </trkpt>
      <trkpt lat="46.7652" lon="5.59746">
        <ele>252</ele>
        <time>2014-06-15T10:34:36+0200</time>
      </trkpt>
      <trkpt lat="46.76519" lon="5.59745">
        <ele>252</ele>
        <time>2014-06-15T10:34:52+0200</time>
      </trkpt>
      <trkpt lat="46.76519" lon="5.59745">
        <ele>252</ele>
        <time>2014-06-15T10:35:08+0200</time>
      </trkpt>
      <trkpt lat="46.76521" lon="5.59747">
        <ele>252</ele>
        <time>2014-06-15T10:35:24+0200</time>
      </trkpt>
      <trkpt lat="46.7652" lon="5.59746">
        <ele>252</ele>
        <time>2014-06-15T10:35:39+0200</time>
      </trkpt>
      <trkpt lat="46.7652" lon="5.59746">
        <ele>252</ele>
        <time>2014-06-15T10:35:55+0200</time>
      </trkpt>
      <trkpt lat="46.76523" lon="5.59748">
        <ele>252</ele>
        <time>2014-06-15T10:36:11+0200</time>
      </trkpt>
      <trkpt lat="46.76523" lon="5.59748">
        <ele>252</ele>
        <time>2014-06-15T10:36:27+0200</time>
      </trkpt>
      <trkpt lat="46.76499" lon="5.59735">
        <ele>253</ele>
        <time>2014-06-15T10:36:43+0200</time>
      </trkpt>
      <trkpt lat="46.76466" lon="5.59717">
        <ele>253</ele>
        <time>2014-06-15T10:36:58+0200</time>
      </trkpt>
      <trkpt lat="46.76419" lon="5.5969">
        <ele>253</ele>
        <time>2014-06-15T10:37:14+0200</time>
      </trkpt>
      <trkpt lat="46.76375" lon="5.59664">
        <ele>252</ele>
        <time>2014-06-15T10:37:29+0200</time>
      </trkpt>
      <trkpt lat="46.76374" lon="5.59608">
        <ele>253</ele>
        <time>2014-06-15T10:37:45+0200</time>
      </trkpt>
      <trkpt lat="46.76386" lon="5.59527">
        <ele>253</ele>
        <time>2014-06-15T10:38:00+0200</time>
      </trkpt>
      <trkpt lat="46.76393" lon="5.59455">
        <ele>253</ele>
        <time>2014-06-15T10:38:16+0200</time>
      </trkpt>
      <trkpt lat="46.76379" lon="5.59388">
        <ele>252</ele>
        <time>2014-06-15T10:38:32+0200</time>
      </trkpt>
      <trkpt lat="46.76366" lon="5.59321">
        <ele>252</ele>
        <time>2014-06-15T10:38:47+0200</time>
      </trkpt>
      <trkpt lat="46.7635" lon="5.59239">
        <ele>251</ele>
        <time>2014-06-15T10:39:03+0200</time>
      </trkpt>
      <trkpt lat="46.76333" lon="5.59154">
        <ele>252</ele>
        <time>2014-06-15T10:39:19+0200</time>
      </trkpt>
      <trkpt lat="46.76311" lon="5.59065">
        <ele>251</ele>
        <time>2014-06-15T10:39:35+0200</time>
      </trkpt>
      <trkpt lat="46.76292" lon="5.58984">
        <ele>251</ele>
        <time>2014-06-15T10:39:50+0200</time>
      </trkpt>
      <trkpt lat="46.76272" lon="5.58899">
        <ele>251</ele>
        <time>2014-06-15T10:40:06+0200</time>
      </trkpt>
      <trkpt lat="46.76256" lon="5.5882">
        <ele>251</ele>
        <time>2014-06-15T10:40:21+0200</time>
      </trkpt>
      <trkpt lat="46.76235" lon="5.58722">
        <ele>251</ele>
        <time>2014-06-15T10:40:37+0200</time>
      </trkpt>
      <trkpt lat="46.76211" lon="5.5862">
        <ele>250</ele>
        <time>2014-06-15T10:40:52+0200</time>
      </trkpt>
      <trkpt lat="46.76181" lon="5.58511">
        <ele>249</ele>
        <time>2014-06-15T10:41:07+0200</time>
      </trkpt>
      <trkpt lat="46.76149" lon="5.58384">
        <ele>248</ele>
        <time>2014-06-15T10:41:23+0200</time>
      </trkpt>
      <trkpt lat="46.76111" lon="5.5824">
        <ele>248</ele>
        <time>2014-06-15T10:41:39+0200</time>
      </trkpt>
      <trkpt lat="46.76085" lon="5.58136">
        <ele>248</ele>
        <time>2014-06-15T10:41:54+0200</time>
      </trkpt>
      <trkpt lat="46.7603" lon="5.58055">
        <ele>250</ele>
        <time>2014-06-15T10:42:10+0200</time>
      </trkpt>
      <trkpt lat="46.75972" lon="5.57976">
        <ele>249</ele>
        <time>2014-06-15T10:42:26+0200</time>
      </trkpt>
      <trkpt lat="46.75915" lon="5.57881">
        <ele>251</ele>
        <time>2014-06-15T10:42:42+0200</time>
      </trkpt>
      <trkpt lat="46.75855" lon="5.57791">
        <ele>248</ele>
        <time>2014-06-15T10:42:57+0200</time>
      </trkpt>
      <trkpt lat="46.75784" lon="5.57696">
        <ele>245</ele>
        <time>2014-06-15T10:43:13+0200</time>
      </trkpt>
      <trkpt lat="46.75714" lon="5.57603">
        <ele>246</ele>
        <time>2014-06-15T10:43:28+0200</time>
      </trkpt>
      <trkpt lat="46.75629" lon="5.57528">
        <ele>244</ele>
        <time>2014-06-15T10:43:43+0200</time>
      </trkpt>
      <trkpt lat="46.75585" lon="5.57401">
        <ele>243</ele>
        <time>2014-06-15T10:43:59+0200</time>
      </trkpt>
      <trkpt lat="46.75628" lon="5.57328">
        <ele>240</ele>
        <time>2014-06-15T10:44:14+0200</time>
      </trkpt>
      <trkpt lat="46.75683" lon="5.57262">
        <ele>238</ele>
        <time>2014-06-15T10:44:30+0200</time>
      </trkpt>
      <trkpt lat="46.75772" lon="5.57206">
        <ele>237</ele>
        <time>2014-06-15T10:44:45+0200</time>
      </trkpt>
      <trkpt lat="46.75803" lon="5.57092">
        <ele>238</ele>
        <time>2014-06-15T10:45:01+0200</time>
      </trkpt>
      <trkpt lat="46.75827" lon="5.57015">
        <ele>244</ele>
        <time>2014-06-15T10:45:17+0200</time>
      </trkpt>
      <trkpt lat="46.75866" lon="5.56964">
        <ele>242</ele>
        <time>2014-06-15T10:45:32+0200</time>
      </trkpt>
      <trkpt lat="46.75902" lon="5.56887">
        <ele>244</ele>
        <time>2014-06-15T10:45:47+0200</time>
      </trkpt>
      <trkpt lat="46.7589" lon="5.56806">
        <ele>244</ele>
        <time>2014-06-15T10:46:03+0200</time>
      </trkpt>
      <trkpt lat="46.75875" lon="5.56718">
        <ele>245</ele>
        <time>2014-06-15T10:46:19+0200</time>
      </trkpt>
      <trkpt lat="46.75888" lon="5.56625">
        <ele>245</ele>
        <time>2014-06-15T10:46:35+0200</time>
      </trkpt>
      <trkpt lat="46.75926" lon="5.56511">
        <ele>241</ele>
        <time>2014-06-15T10:46:50+0200</time>
      </trkpt>
      <trkpt lat="46.75949" lon="5.56418">
        <ele>242</ele>
        <time>2014-06-15T10:47:06+0200</time>
      </trkpt>
      <trkpt lat="46.75956" lon="5.56358">
        <ele>244</ele>
        <time>2014-06-15T10:47:21+0200</time>
      </trkpt>
      <trkpt lat="46.75952" lon="5.563">
        <ele>248</ele>
        <time>2014-06-15T10:47:36+0200</time>
      </trkpt>
      <trkpt lat="46.75922" lon="5.56231">
        <ele>250</ele>
        <time>2014-06-15T10:47:52+0200</time>
      </trkpt>
      <trkpt lat="46.75881" lon="5.56188">
        <ele>253</ele>
        <time>2014-06-15T10:48:07+0200</time>
      </trkpt>
      <trkpt lat="46.75878" lon="5.56093">
        <ele>249</ele>
        <time>2014-06-15T10:48:23+0200</time>
      </trkpt>
      <trkpt lat="46.7595" lon="5.55983">
        <ele>241</ele>
        <time>2014-06-15T10:48:38+0200</time>
      </trkpt>
      <trkpt lat="46.75982" lon="5.55939">
        <ele>240</ele>
        <time>2014-06-15T10:48:54+0200</time>
      </trkpt>
      <trkpt lat="46.75982" lon="5.55939">
        <ele>240</ele>
        <time>2014-06-15T10:49:10+0200</time>
      </trkpt>
      <trkpt lat="46.75983" lon="5.55937">
        <ele>240</ele>
        <time>2014-06-15T10:49:25+0200</time>
      </trkpt>
      <trkpt lat="46.75983" lon="5.55937">
        <ele>240</ele>
        <time>2014-06-15T10:49:41+0200</time>
      </trkpt>
      <trkpt lat="46.75983" lon="5.55937">
        <ele>240</ele>
        <time>2014-06-15T10:49:56+0200</time>
      </trkpt>
      <trkpt lat="46.75982" lon="5.55939">
        <ele>240</ele>
        <time>2014-06-15T10:50:12+0200</time>
      </trkpt>
      <trkpt lat="46.75982" lon="5.55939">
        <ele>240</ele>
        <time>2014-06-15T10:50:28+0200</time>
      </trkpt>
      <trkpt lat="46.75986" lon="5.55934">
        <ele>240</ele>
        <time>2014-06-15T10:50:43+0200</time>
      </trkpt>
      <trkpt lat="46.75987" lon="5.55933">
        <ele>240</ele>
        <time>2014-06-15T10:50:58+0200</time>
      </trkpt>
      <trkpt lat="46.75986" lon="5.55933">
        <ele>240</ele>
        <time>2014-06-15T10:51:14+0200</time>
      </trkpt>
      <trkpt lat="46.75987" lon="5.55933">
        <ele>240</ele>
        <time>2014-06-15T10:51:30+0200</time>
      </trkpt>
      <trkpt lat="46.75986" lon="5.55933">
        <ele>240</ele>
        <time>2014-06-15T10:51:45+0200</time>
      </trkpt>
      <trkpt lat="46.75987" lon="5.55933">
        <ele>240</ele>
        <time>2014-06-15T10:52:01+0200</time>
      </trkpt>
      <trkpt lat="46.75987" lon="5.55933">
        <ele>240</ele>
        <time>2014-06-15T10:52:16+0200</time>
      </trkpt>
      <trkpt lat="46.75987" lon="5.55933">
        <ele>240</ele>
        <time>2014-06-15T10:52:31+0200</time>
      </trkpt>
      <trkpt lat="46.75987" lon="5.55933">
        <ele>240</ele>
        <time>2014-06-15T10:52:47+0200</time>
      </trkpt>
      <trkpt lat="46.75987" lon="5.55933">
        <ele>240</ele>
        <time>2014-06-15T10:53:03+0200</time>
      </trkpt>
      <trkpt lat="46.75987" lon="5.55933">
        <ele>240</ele>
        <time>2014-06-15T10:53:19+0200</time>
      </trkpt>
      <trkpt lat="46.75987" lon="5.55933">
        <ele>240</ele>
        <time>2014-06-15T10:53:35+0200</time>
      </trkpt>
      <trkpt lat="46.75987" lon="5.55933">
        <ele>240</ele>
        <time>2014-06-15T10:53:50+0200</time>
      </trkpt>
      <trkpt lat="46.75987" lon="5.55933">
        <ele>240</ele>
        <time>2014-06-15T10:54:06+0200</time>
      </trkpt>
      <trkpt lat="46.75986" lon="5.55933">
        <ele>240</ele>
        <time>2014-06-15T10:54:22+0200</time>
      </trkpt>
      <trkpt lat="46.75987" lon="5.55933">
        <ele>240</ele>
        <time>2014-06-15T10:54:38+0200</time>
      </trkpt>
      <trkpt lat="46.75987" lon="5.55933">
        <ele>240</ele>
        <time>2014-06-15T10:54:53+0200</time>
      </trkpt>
      <trkpt lat="46.75986" lon="5.55933">
        <ele>240</ele>
        <time>2014-06-15T10:55:09+0200</time>
      </trkpt>
      <trkpt lat="46.75986" lon="5.55934">
        <ele>240</ele>
        <time>2014-06-15T10:55:24+0200</time>
      </trkpt>
      <trkpt lat="46.75987" lon="5.55933">
        <ele>240</ele>
        <time>2014-06-15T10:55:39+0200</time>
      </trkpt>
      <trkpt lat="46.75987" lon="5.55933">
        <ele>240</ele>
        <time>2014-06-15T10:55:54+0200</time>
      </trkpt>
      <trkpt lat="46.75987" lon="5.55933">
        <ele>240</ele>
        <time>2014-06-15T10:56:10+0200</time>
      </trkpt>
      <trkpt lat="46.75987" lon="5.55933">
        <ele>240</ele>
        <time>2014-06-15T10:56:26+0200</time>
      </trkpt>
      <trkpt lat="46.75986" lon="5.55933">
        <ele>240</ele>
        <time>2014-06-15T10:56:42+0200</time>
      </trkpt>
      <trkpt lat="46.75987" lon="5.55933">
        <ele>240</ele>
        <time>2014-06-15T10:56:57+0200</time>
      </trkpt>
      <trkpt lat="46.75986" lon="5.55934">
        <ele>240</ele>
        <time>2014-06-15T10:57:13+0200</time>
      </trkpt>
      <trkpt lat="46.75987" lon="5.55933">
        <ele>240</ele>
        <time>2014-06-15T10:57:29+0200</time>
      </trkpt>
      <trkpt lat="46.75986" lon="5.55933">
        <ele>240</ele>
        <time>2014-06-15T10:57:44+0200</time>
      </trkpt>
      <trkpt lat="46.75987" lon="5.55933">
        <ele>240</ele>
        <time>2014-06-15T10:58:00+0200</time>
      </trkpt>
      <trkpt lat="46.75986" lon="5.55933">
        <ele>240</ele>
        <time>2014-06-15T10:58:16+0200</time>
      </trkpt>
      <trkpt lat="46.75987" lon="5.55933">
        <ele>240</ele>
        <time>2014-06-15T10:58:31+0200</time>
      </trkpt>
      <trkpt lat="46.75986" lon="5.55934">
        <ele>240</ele>
        <time>2014-06-15T10:58:46+0200</time>
      </trkpt>
      <trkpt lat="46.75987" lon="5.55933">
        <ele>240</ele>
        <time>2014-06-15T10:59:01+0200</time>
      </trkpt>
      <trkpt lat="46.75987" lon="5.55933">
        <ele>240</ele>
        <time>2014-06-15T10:59:17+0200</time>
      </trkpt>
      <trkpt lat="46.75987" lon="5.55933">
        <ele>240</ele>
        <time>2014-06-15T10:59:32+0200</time>
      </trkpt>
      <trkpt lat="46.75987" lon="5.55933">
        <ele>240</ele>
        <time>2014-06-15T10:59:48+0200</time>
      </trkpt>
      <trkpt lat="46.75987" lon="5.55933">
        <ele>240</ele>
        <time>2014-06-15T11:00:03+0200</time>
      </trkpt>
      <trkpt lat="46.75987" lon="5.55933">
        <ele>240</ele>
        <time>2014-06-15T11:00:19+0200</time>
      </trkpt>
      <trkpt lat="46.75987" lon="5.55933">
        <ele>240</ele>
        <time>2014-06-15T11:00:35+0200</time>
      </trkpt>
      <trkpt lat="46.75987" lon="5.55933">
        <ele>240</ele>
        <time>2014-06-15T11:00:50+0200</time>
      </trkpt>
      <trkpt lat="46.75987" lon="5.55933">
        <ele>240</ele>
        <time>2014-06-15T11:01:05+0200</time>
      </trkpt>
      <trkpt lat="46.75987" lon="5.55933">
        <ele>240</ele>
        <time>2014-06-15T11:01:20+0200</time>
      </trkpt>
      <trkpt lat="46.75987" lon="5.55933">
        <ele>240</ele>
        <time>2014-06-15T11:01:36+0200</time>
      </trkpt>
      <trkpt lat="46.75987" lon="5.55933">
        <ele>240</ele>
        <time>2014-06-15T11:01:51+0200</time>
      </trkpt>
      <trkpt lat="46.75987" lon="5.55933">
        <ele>240</ele>
        <time>2014-06-15T11:02:07+0200</time>
      </trkpt>
      <trkpt lat="46.75986" lon="5.55933">
        <ele>240</ele>
        <time>2014-06-15T11:02:22+0200</time>
      </trkpt>
      <trkpt lat="46.75987" lon="5.55933">
        <ele>240</ele>
        <time>2014-06-15T11:02:38+0200</time>
      </trkpt>
      <trkpt lat="46.75987" lon="5.55933">
        <ele>240</ele>
        <time>2014-06-15T11:02:54+0200</time>
      </trkpt>
      <trkpt lat="46.75987" lon="5.55933">
        <ele>240</ele>
        <time>2014-06-15T11:03:09+0200</time>
      </trkpt>
      <trkpt lat="46.75987" lon="5.55933">
        <ele>240</ele>
        <time>2014-06-15T11:03:25+0200</time>
      </trkpt>
      <trkpt lat="46.75987" lon="5.55933">
        <ele>240</ele>
        <time>2014-06-15T11:03:40+0200</time>
      </trkpt>
      <trkpt lat="46.75987" lon="5.55933">
        <ele>240</ele>
        <time>2014-06-15T11:03:56+0200</time>
      </trkpt>
      <trkpt lat="46.75987" lon="5.55933">
        <ele>240</ele>
        <time>2014-06-15T11:04:11+0200</time>
      </trkpt>
      <trkpt lat="46.75987" lon="5.55933">
        <ele>240</ele>
        <time>2014-06-15T11:04:27+0200</time>
      </trkpt>
      <trkpt lat="46.75987" lon="5.55933">
        <ele>240</ele>
        <time>2014-06-15T11:04:42+0200</time>
      </trkpt>
      <trkpt lat="46.75987" lon="5.55933">
        <ele>240</ele>
        <time>2014-06-15T11:04:58+0200</time>
      </trkpt>
      <trkpt lat="46.75987" lon="5.55933">
        <ele>240</ele>
        <time>2014-06-15T11:05:14+0200</time>
      </trkpt>
      <trkpt lat="46.75987" lon="5.55933">
        <ele>240</ele>
        <time>2014-06-15T11:05:29+0200</time>
      </trkpt>
      <trkpt lat="46.75987" lon="5.55933">
        <ele>240</ele>
        <time>2014-06-15T11:05:44+0200</time>
      </trkpt>
      <trkpt lat="46.75987" lon="5.55933">
        <ele>240</ele>
        <time>2014-06-15T11:06:00+0200</time>
      </trkpt>
      <trkpt lat="46.75987" lon="5.55933">
        <ele>240</ele>
        <time>2014-06-15T11:06:15+0200</time>
      </trkpt>
      <trkpt lat="46.75987" lon="5.55933">
        <ele>240</ele>
        <time>2014-06-15T11:06:31+0200</time>
      </trkpt>
      <trkpt lat="46.75987" lon="5.55933">
        <ele>240</ele>
        <time>2014-06-15T11:06:46+0200</time>
      </trkpt>
      <trkpt lat="46.75987" lon="5.55933">
        <ele>240</ele>
        <time>2014-06-15T11:07:02+0200</time>
      </trkpt>
      <trkpt lat="46.75987" lon="5.55933">
        <ele>240</ele>
        <time>2014-06-15T11:07:17+0200</time>
      </trkpt>
      <trkpt lat="46.75986" lon="5.55934">
        <ele>240</ele>
        <time>2014-06-15T11:07:33+0200</time>
      </trkpt>
      <trkpt lat="46.75987" lon="5.55933">
        <ele>240</ele>
        <time>2014-06-15T11:07:49+0200</time>
      </trkpt>
      <trkpt lat="46.75987" lon="5.55933">
        <ele>240</ele>
        <time>2014-06-15T11:08:05+0200</time>
      </trkpt>
      <trkpt lat="46.75987" lon="5.55933">
        <ele>240</ele>
        <time>2014-06-15T11:08:20+0200</time>
      </trkpt>
      <trkpt lat="46.75987" lon="5.55933">
        <ele>240</ele>
        <time>2014-06-15T11:08:35+0200</time>
      </trkpt>
      <trkpt lat="46.75987" lon="5.55933">
        <ele>240</ele>
        <time>2014-06-15T11:08:50+0200</time>
      </trkpt>
      <trkpt lat="46.75987" lon="5.55933">
        <ele>240</ele>
        <time>2014-06-15T11:09:05+0200</time>
      </trkpt>
      <trkpt lat="46.75987" lon="5.55933">
        <ele>240</ele>
        <time>2014-06-15T11:09:21+0200</time>
      </trkpt>
      <trkpt lat="46.75987" lon="5.55933">
        <ele>240</ele>
        <time>2014-06-15T11:09:36+0200</time>
      </trkpt>
      <trkpt lat="46.75987" lon="5.55933">
        <ele>240</ele>
        <time>2014-06-15T11:09:52+0200</time>
      </trkpt>
      <trkpt lat="46.75987" lon="5.55933">
        <ele>240</ele>
        <time>2014-06-15T11:10:08+0200</time>
      </trkpt>
      <trkpt lat="46.75987" lon="5.55933">
        <ele>240</ele>
        <time>2014-06-15T11:10:24+0200</time>
      </trkpt>
      <trkpt lat="46.75986" lon="5.55933">
        <ele>240</ele>
        <time>2014-06-15T11:10:40+0200</time>
      </trkpt>
      <trkpt lat="46.75987" lon="5.55933">
        <ele>240</ele>
        <time>2014-06-15T11:10:55+0200</time>
      </trkpt>
      <trkpt lat="46.75987" lon="5.55933">
        <ele>240</ele>
        <time>2014-06-15T11:11:11+0200</time>
      </trkpt>
      <trkpt lat="46.75987" lon="5.55933">
        <ele>240</ele>
        <time>2014-06-15T11:11:27+0200</time>
      </trkpt>
      <trkpt lat="46.75987" lon="5.55933">
        <ele>240</ele>
        <time>2014-06-15T11:11:42+0200</time>
      </trkpt>
      <trkpt lat="46.75987" lon="5.55933">
        <ele>240</ele>
        <time>2014-06-15T11:11:57+0200</time>
      </trkpt>
      <trkpt lat="46.75987" lon="5.55933">
        <ele>240</ele>
        <time>2014-06-15T11:12:13+0200</time>
      </trkpt>
      <trkpt lat="46.75986" lon="5.55933">
        <ele>240</ele>
        <time>2014-06-15T11:12:28+0200</time>
      </trkpt>
      <trkpt lat="46.75986" lon="5.55933">
        <ele>240</ele>
        <time>2014-06-15T11:12:44+0200</time>
      </trkpt>
      <trkpt lat="46.75987" lon="5.55933">
        <ele>240</ele>
        <time>2014-06-15T11:13:00+0200</time>
      </trkpt>
      <trkpt lat="46.75987" lon="5.55933">
        <ele>240</ele>
        <time>2014-06-15T11:13:16+0200</time>
      </trkpt>
      <trkpt lat="46.75987" lon="5.55933">
        <ele>240</ele>
        <time>2014-06-15T11:13:31+0200</time>
      </trkpt>
      <trkpt lat="46.75987" lon="5.55933">
        <ele>240</ele>
        <time>2014-06-15T11:13:47+0200</time>
      </trkpt>
      <trkpt lat="46.75987" lon="5.55933">
        <ele>240</ele>
        <time>2014-06-15T11:14:02+0200</time>
      </trkpt>
      <trkpt lat="46.75987" lon="5.55933">
        <ele>240</ele>
        <time>2014-06-15T11:14:18+0200</time>
      </trkpt>
      <trkpt lat="46.75987" lon="5.55933">
        <ele>240</ele>
        <time>2014-06-15T11:14:34+0200</time>
      </trkpt>
      <trkpt lat="46.75987" lon="5.55933">
        <ele>240</ele>
        <time>2014-06-15T11:14:50+0200</time>
      </trkpt>
      <trkpt lat="46.75987" lon="5.55933">
        <ele>240</ele>
        <time>2014-06-15T11:15:05+0200</time>
      </trkpt>
      <trkpt lat="46.75986" lon="5.55933">
        <ele>240</ele>
        <time>2014-06-15T11:15:20+0200</time>
      </trkpt>
      <trkpt lat="46.75986" lon="5.55933">
        <ele>240</ele>
        <time>2014-06-15T11:15:36+0200</time>
      </trkpt>
      <trkpt lat="46.75987" lon="5.55933">
        <ele>240</ele>
        <time>2014-06-15T11:15:51+0200</time>
      </trkpt>
      <trkpt lat="46.75987" lon="5.55933">
        <ele>240</ele>
        <time>2014-06-15T11:16:06+0200</time>
      </trkpt>
      <trkpt lat="46.75986" lon="5.55933">
        <ele>240</ele>
        <time>2014-06-15T11:16:21+0200</time>
      </trkpt>
      <trkpt lat="46.75987" lon="5.55933">
        <ele>240</ele>
        <time>2014-06-15T11:16:37+0200</time>
      </trkpt>
      <trkpt lat="46.75987" lon="5.55933">
        <ele>240</ele>
        <time>2014-06-15T11:16:53+0200</time>
      </trkpt>
      <trkpt lat="46.75987" lon="5.55933">
        <ele>240</ele>
        <time>2014-06-15T11:17:09+0200</time>
      </trkpt>
      <trkpt lat="46.75987" lon="5.55933">
        <ele>240</ele>
        <time>2014-06-15T11:17:24+0200</time>
      </trkpt>
      <trkpt lat="46.75986" lon="5.55933">
        <ele>240</ele>
        <time>2014-06-15T11:17:40+0200</time>
      </trkpt>
      <trkpt lat="46.75965" lon="5.55902">
        <ele>240</ele>
        <time>2014-06-15T11:17:56+0200</time>
      </trkpt>
      <trkpt lat="46.75942" lon="5.55867">
        <ele>240</ele>
        <time>2014-06-15T11:18:11+0200</time>
      </trkpt>
      <trkpt lat="46.75967" lon="5.55779">
        <ele>238</ele>
        <time>2014-06-15T11:18:27+0200</time>
      </trkpt>
      <trkpt lat="46.75982" lon="5.5568">
        <ele>237</ele>
        <time>2014-06-15T11:18:42+0200</time>
      </trkpt>
      <trkpt lat="46.75994" lon="5.55558">
        <ele>236</ele>
        <time>2014-06-15T11:18:58+0200</time>
      </trkpt>
      <trkpt lat="46.76003" lon="5.55433">
        <ele>231</ele>
        <time>2014-06-15T11:19:14+0200</time>
      </trkpt>
      <trkpt lat="46.76009" lon="5.55319">
        <ele>232</ele>
        <time>2014-06-15T11:19:30+0200</time>
      </trkpt>
      <trkpt lat="46.76006" lon="5.55196">
        <ele>232</ele>
        <time>2014-06-15T11:19:45+0200</time>
      </trkpt>
      <trkpt lat="46.76006" lon="5.55077">
        <ele>230</ele>
        <time>2014-06-15T11:20:00+0200</time>
      </trkpt>
      <trkpt lat="46.76003" lon="5.5495">
        <ele>230</ele>
        <time>2014-06-15T11:20:16+0200</time>
      </trkpt>
      <trkpt lat="46.7601" lon="5.5483">
        <ele>231</ele>
        <time>2014-06-15T11:20:32+0200</time>
      </trkpt>
      <trkpt lat="46.76023" lon="5.54716">
        <ele>233</ele>
        <time>2014-06-15T11:20:48+0200</time>
      </trkpt>
      <trkpt lat="46.76034" lon="5.54604">
        <ele>232</ele>
        <time>2014-06-15T11:21:04+0200</time>
      </trkpt>
      <trkpt lat="46.76019" lon="5.54462">
        <ele>227</ele>
        <time>2014-06-15T11:21:20+0200</time>
      </trkpt>
      <trkpt lat="46.75995" lon="5.54284">
        <ele>229</ele>
        <time>2014-06-15T11:21:36+0200</time>
      </trkpt>
      <trkpt lat="46.75978" lon="5.54145">
        <ele>230</ele>
        <time>2014-06-15T11:21:51+0200</time>
      </trkpt>
      <trkpt lat="46.75965" lon="5.54031">
        <ele>232</ele>
        <time>2014-06-15T11:22:07+0200</time>
      </trkpt>
      <trkpt lat="46.75982" lon="5.53861">
        <ele>233</ele>
        <time>2014-06-15T11:22:23+0200</time>
      </trkpt>
      <trkpt lat="46.75992" lon="5.53725">
        <ele>238</ele>
        <time>2014-06-15T11:22:39+0200</time>
      </trkpt>
      <trkpt lat="46.75972" lon="5.53608">
        <ele>240</ele>
        <time>2014-06-15T11:22:55+0200</time>
      </trkpt>
      <trkpt lat="46.75991" lon="5.53438">
        <ele>228</ele>
        <time>2014-06-15T11:23:11+0200</time>
      </trkpt>
      <trkpt lat="46.76007" lon="5.53245">
        <ele>222</ele>
        <time>2014-06-15T11:23:27+0200</time>
      </trkpt>
      <trkpt lat="46.76036" lon="5.53097">
        <ele>223</ele>
        <time>2014-06-15T11:23:43+0200</time>
      </trkpt>
      <trkpt lat="46.76072" lon="5.52976">
        <ele>223</ele>
        <time>2014-06-15T11:23:58+0200</time>
      </trkpt>
      <trkpt lat="46.76103" lon="5.52843">
        <ele>221</ele>
        <time>2014-06-15T11:24:14+0200</time>
      </trkpt>
      <trkpt lat="46.76078" lon="5.52714">
        <ele>222</ele>
        <time>2014-06-15T11:24:29+0200</time>
      </trkpt>
      <trkpt lat="46.76071" lon="5.52589">
        <ele>220</ele>
        <time>2014-06-15T11:24:44+0200</time>
      </trkpt>
      <trkpt lat="46.76073" lon="5.52456">
        <ele>222</ele>
        <time>2014-06-15T11:24:59+0200</time>
      </trkpt>
      <trkpt lat="46.76077" lon="5.52331">
        <ele>219</ele>
        <time>2014-06-15T11:25:14+0200</time>
      </trkpt>
      <trkpt lat="46.76129" lon="5.52252">
        <ele>219</ele>
        <time>2014-06-15T11:25:30+0200</time>
      </trkpt>
      <trkpt lat="46.76151" lon="5.52127">
        <ele>217</ele>
        <time>2014-06-15T11:25:46+0200</time>
      </trkpt>
      <trkpt lat="46.7612" lon="5.52007">
        <ele>216</ele>
        <time>2014-06-15T11:26:02+0200</time>
      </trkpt>
      <trkpt lat="46.76088" lon="5.51877">
        <ele>215</ele>
        <time>2014-06-15T11:26:17+0200</time>
      </trkpt>
      <trkpt lat="46.76087" lon="5.51763">
        <ele>214</ele>
        <time>2014-06-15T11:26:33+0200</time>
      </trkpt>
      <trkpt lat="46.76115" lon="5.51766">
        <ele>214</ele>
        <time>2014-06-15T11:26:49+0200</time>
      </trkpt>
      <trkpt lat="46.76114" lon="5.51766">
        <ele>214</ele>
        <time>2014-06-15T11:27:05+0200</time>
      </trkpt>
      <trkpt lat="46.76115" lon="5.51766">
        <ele>214</ele>
        <time>2014-06-15T11:27:20+0200</time>
      </trkpt>
      <trkpt lat="46.76113" lon="5.51766">
        <ele>214</ele>
        <time>2014-06-15T11:27:36+0200</time>
      </trkpt>
      <trkpt lat="46.76113" lon="5.51766">
        <ele>214</ele>
        <time>2014-06-15T11:27:51+0200</time>
      </trkpt>
      <trkpt lat="46.76113" lon="5.51766">
        <ele>214</ele>
        <time>2014-06-15T11:28:07+0200</time>
      </trkpt>
      <trkpt lat="46.76113" lon="5.51766">
        <ele>214</ele>
        <time>2014-06-15T11:28:22+0200</time>
      </trkpt>
      <trkpt lat="46.76113" lon="5.51766">
        <ele>214</ele>
        <time>2014-06-15T11:28:38+0200</time>
      </trkpt>
      <trkpt lat="46.76114" lon="5.51766">
        <ele>214</ele>
        <time>2014-06-15T11:28:53+0200</time>
      </trkpt>
      <trkpt lat="46.76157" lon="5.51781">
        <ele>214</ele>
        <time>2014-06-15T11:29:09+0200</time>
      </trkpt>
      <trkpt lat="46.76217" lon="5.51802">
        <ele>215</ele>
        <time>2014-06-15T11:29:25+0200</time>
      </trkpt>
      <trkpt lat="46.76273" lon="5.51825">
        <ele>215</ele>
        <time>2014-06-15T11:29:40+0200</time>
      </trkpt>
      <trkpt lat="46.76335" lon="5.51844">
        <ele>216</ele>
        <time>2014-06-15T11:29:56+0200</time>
      </trkpt>
      <trkpt lat="46.76382" lon="5.51838">
        <ele>216</ele>
        <time>2014-06-15T11:30:11+0200</time>
      </trkpt>
      <trkpt lat="46.76462" lon="5.51846">
        <ele>216</ele>
        <time>2014-06-15T11:30:27+0200</time>
      </trkpt>
      <trkpt lat="46.76515" lon="5.51898">
        <ele>216</ele>
        <time>2014-06-15T11:30:42+0200</time>
      </trkpt>
      <trkpt lat="46.76557" lon="5.5195">
        <ele>218</ele>
        <time>2014-06-15T11:30:57+0200</time>
      </trkpt>
      <trkpt lat="46.76604" lon="5.51913">
        <ele>218</ele>
        <time>2014-06-15T11:31:12+0200</time>
      </trkpt>
      <trkpt lat="46.76665" lon="5.51889">
        <ele>220</ele>
        <time>2014-06-15T11:31:28+0200</time>
      </trkpt>
      <trkpt lat="46.7672" lon="5.51878">
        <ele>223</ele>
        <time>2014-06-15T11:31:44+0200</time>
      </trkpt>
      <trkpt lat="46.76767" lon="5.51834">
        <ele>227</ele>
        <time>2014-06-15T11:32:00+0200</time>
      </trkpt>
      <trkpt lat="46.76821" lon="5.51746">
        <ele>224</ele>
        <time>2014-06-15T11:32:16+0200</time>
      </trkpt>
      <trkpt lat="46.76874" lon="5.51653">
        <ele>216</ele>
        <time>2014-06-15T11:32:31+0200</time>
      </trkpt>
      <trkpt lat="46.7692" lon="5.51542">
        <ele>216</ele>
        <time>2014-06-15T11:32:47+0200</time>
      </trkpt>
      <trkpt lat="46.76955" lon="5.51435">
        <ele>216</ele>
        <time>2014-06-15T11:33:03+0200</time>
      </trkpt>
      <trkpt lat="46.76983" lon="5.51335">
        <ele>215</ele>
        <time>2014-06-15T11:33:18+0200</time>
      </trkpt>
      <trkpt lat="46.76996" lon="5.51223">
        <ele>212</ele>
        <time>2014-06-15T11:33:34+0200</time>
      </trkpt>
      <trkpt lat="46.77036" lon="5.5113">
        <ele>211</ele>
        <time>2014-06-15T11:33:49+0200</time>
      </trkpt>
      <trkpt lat="46.77094" lon="5.51084">
        <ele>211</ele>
        <time>2014-06-15T11:34:05+0200</time>
      </trkpt>
      <trkpt lat="46.77089" lon="5.51003">
        <ele>211</ele>
        <time>2014-06-15T11:34:24+0200</time>
      </trkpt>
      <trkpt lat="46.77125" lon="5.50881">
        <ele>211</ele>
        <time>2014-06-15T11:34:40+0200</time>
      </trkpt>
      <trkpt lat="46.77153" lon="5.50791">
        <ele>209</ele>
        <time>2014-06-15T11:34:56+0200</time>
      </trkpt>
      <trkpt lat="46.77187" lon="5.50695">
        <ele>208</ele>
        <time>2014-06-15T11:35:12+0200</time>
      </trkpt>
      <trkpt lat="46.7722" lon="5.50601">
        <ele>209</ele>
        <time>2014-06-15T11:35:28+0200</time>
      </trkpt>
      <trkpt lat="46.7725" lon="5.50506">
        <ele>210</ele>
        <time>2014-06-15T11:35:44+0200</time>
      </trkpt>
      <trkpt lat="46.77273" lon="5.50422">
        <ele>209</ele>
        <time>2014-06-15T11:35:59+0200</time>
      </trkpt>
      <trkpt lat="46.77332" lon="5.50412">
        <ele>209</ele>
        <time>2014-06-15T11:36:15+0200</time>
      </trkpt>
      <trkpt lat="46.77386" lon="5.50436">
        <ele>209</ele>
        <time>2014-06-15T11:36:31+0200</time>
      </trkpt>
      <trkpt lat="46.77438" lon="5.50474">
        <ele>210</ele>
        <time>2014-06-15T11:36:47+0200</time>
      </trkpt>
      <trkpt lat="46.77485" lon="5.50504">
        <ele>211</ele>
        <time>2014-06-15T11:37:02+0200</time>
      </trkpt>
      <trkpt lat="46.77536" lon="5.50531">
        <ele>210</ele>
        <time>2014-06-15T11:37:18+0200</time>
      </trkpt>
      <trkpt lat="46.77584" lon="5.50566">
        <ele>211</ele>
        <time>2014-06-15T11:37:34+0200</time>
      </trkpt>
      <trkpt lat="46.77635" lon="5.50603">
        <ele>212</ele>
        <time>2014-06-15T11:37:50+0200</time>
      </trkpt>
      <trkpt lat="46.77679" lon="5.50627">
        <ele>216</ele>
        <time>2014-06-15T11:38:05+0200</time>
      </trkpt>
      <trkpt lat="46.77719" lon="5.5063">
        <ele>217</ele>
        <time>2014-06-15T11:38:21+0200</time>
      </trkpt>
      <trkpt lat="46.77752" lon="5.50614">
        <ele>222</ele>
        <time>2014-06-15T11:38:36+0200</time>
      </trkpt>
      <trkpt lat="46.77777" lon="5.50589">
        <ele>222</ele>
        <time>2014-06-15T11:38:51+0200</time>
      </trkpt>
      <trkpt lat="46.77806" lon="5.50558">
        <ele>222</ele>
        <time>2014-06-15T11:39:06+0200</time>
      </trkpt>
      <trkpt lat="46.77843" lon="5.50533">
        <ele>226</ele>
        <time>2014-06-15T11:39:22+0200</time>
      </trkpt>
      <trkpt lat="46.7788" lon="5.50523">
        <ele>227</ele>
        <time>2014-06-15T11:39:37+0200</time>
      </trkpt>
      <trkpt lat="46.77917" lon="5.50512">
        <ele>229</ele>
        <time>2014-06-15T11:39:53+0200</time>
      </trkpt>
      <trkpt lat="46.77954" lon="5.50505">
        <ele>230</ele>
        <time>2014-06-15T11:40:09+0200</time>
      </trkpt>
      <trkpt lat="46.77991" lon="5.50504">
        <ele>231</ele>
        <time>2014-06-15T11:40:24+0200</time>
      </trkpt>
      <trkpt lat="46.78031" lon="5.50517">
        <ele>234</ele>
        <time>2014-06-15T11:40:40+0200</time>
      </trkpt>
      <trkpt lat="46.7807" lon="5.50532">
        <ele>235</ele>
        <time>2014-06-15T11:40:56+0200</time>
      </trkpt>
      <trkpt lat="46.78107" lon="5.50546">
        <ele>239</ele>
        <time>2014-06-15T11:41:12+0200</time>
      </trkpt>
      <trkpt lat="46.78143" lon="5.50565">
        <ele>240</ele>
        <time>2014-06-15T11:41:28+0200</time>
      </trkpt>
      <trkpt lat="46.78174" lon="5.50595">
        <ele>243</ele>
        <time>2014-06-15T11:41:43+0200</time>
      </trkpt>
      <trkpt lat="46.78204" lon="5.50635">
        <ele>245</ele>
        <time>2014-06-15T11:41:59+0200</time>
      </trkpt>
      <trkpt lat="46.78235" lon="5.50672">
        <ele>247</ele>
        <time>2014-06-15T11:42:15+0200</time>
      </trkpt>
      <trkpt lat="46.78263" lon="5.50669">
        <ele>248</ele>
        <time>2014-06-15T11:42:31+0200</time>
      </trkpt>
      <trkpt lat="46.78277" lon="5.5062">
        <ele>249</ele>
        <time>2014-06-15T11:42:46+0200</time>
      </trkpt>
      <trkpt lat="46.78293" lon="5.50571">
        <ele>249</ele>
        <time>2014-06-15T11:43:01+0200</time>
      </trkpt>
      <trkpt lat="46.78306" lon="5.50528">
        <ele>249</ele>
        <time>2014-06-15T11:43:16+0200</time>
      </trkpt>
      <trkpt lat="46.78304" lon="5.50532">
        <ele>249</ele>
        <time>2014-06-15T11:43:32+0200</time>
      </trkpt>
      <trkpt lat="46.78304" lon="5.5053">
        <ele>249</ele>
        <time>2014-06-15T11:43:48+0200</time>
      </trkpt>
      <trkpt lat="46.78302" lon="5.50529">
        <ele>249</ele>
        <time>2014-06-15T11:44:03+0200</time>
      </trkpt>
      <trkpt lat="46.78302" lon="5.50529">
        <ele>249</ele>
        <time>2014-06-15T11:44:18+0200</time>
      </trkpt>
      <trkpt lat="46.78302" lon="5.50529">
        <ele>249</ele>
        <time>2014-06-15T11:44:34+0200</time>
      </trkpt>
      <trkpt lat="46.78303" lon="5.50527">
        <ele>249</ele>
        <time>2014-06-15T11:44:49+0200</time>
      </trkpt>
      <trkpt lat="46.783" lon="5.50532">
        <ele>249</ele>
        <time>2014-06-15T11:45:05+0200</time>
      </trkpt>
      <trkpt lat="46.78297" lon="5.50533">
        <ele>249</ele>
        <time>2014-06-15T11:45:21+0200</time>
      </trkpt>
      <trkpt lat="46.78298" lon="5.50529">
        <ele>249</ele>
        <time>2014-06-15T11:45:37+0200</time>
      </trkpt>
      <trkpt lat="46.78302" lon="5.5053">
        <ele>249</ele>
        <time>2014-06-15T11:45:52+0200</time>
      </trkpt>
      <trkpt lat="46.78298" lon="5.50534">
        <ele>249</ele>
        <time>2014-06-15T11:46:07+0200</time>
      </trkpt>
      <trkpt lat="46.78298" lon="5.50534">
        <ele>249</ele>
        <time>2014-06-15T11:46:22+0200</time>
      </trkpt>
      <trkpt lat="46.78298" lon="5.50534">
        <ele>249</ele>
        <time>2014-06-15T11:46:37+0200</time>
      </trkpt>
      <trkpt lat="46.78298" lon="5.50534">
        <ele>249</ele>
        <time>2014-06-15T11:46:52+0200</time>
      </trkpt>
      <trkpt lat="46.78297" lon="5.50533">
        <ele>249</ele>
        <time>2014-06-15T11:47:08+0200</time>
      </trkpt>
      <trkpt lat="46.78297" lon="5.50533">
        <ele>249</ele>
        <time>2014-06-15T11:47:23+0200</time>
      </trkpt>
      <trkpt lat="46.78299" lon="5.50535">
        <ele>249</ele>
        <time>2014-06-15T11:47:39+0200</time>
      </trkpt>
      <trkpt lat="46.78299" lon="5.50535">
        <ele>249</ele>
        <time>2014-06-15T11:47:55+0200</time>
      </trkpt>
      <trkpt lat="46.78301" lon="5.50532">
        <ele>249</ele>
        <time>2014-06-15T11:48:11+0200</time>
      </trkpt>
      <trkpt lat="46.78299" lon="5.50536">
        <ele>249</ele>
        <time>2014-06-15T11:48:26+0200</time>
      </trkpt>
      <trkpt lat="46.78298" lon="5.50535">
        <ele>249</ele>
        <time>2014-06-15T11:48:41+0200</time>
      </trkpt>
      <trkpt lat="46.78299" lon="5.50535">
        <ele>249</ele>
        <time>2014-06-15T11:48:56+0200</time>
      </trkpt>
      <trkpt lat="46.78301" lon="5.50537">
        <ele>249</ele>
        <time>2014-06-15T11:49:12+0200</time>
      </trkpt>
      <trkpt lat="46.78302" lon="5.50537">
        <ele>249</ele>
        <time>2014-06-15T11:49:27+0200</time>
      </trkpt>
      <trkpt lat="46.78303" lon="5.50539">
        <ele>249</ele>
        <time>2014-06-15T11:49:43+0200</time>
      </trkpt>
      <trkpt lat="46.78303" lon="5.50539">
        <ele>249</ele>
        <time>2014-06-15T11:49:58+0200</time>
      </trkpt>
      <trkpt lat="46.783" lon="5.50537">
        <ele>249</ele>
        <time>2014-06-15T11:50:14+0200</time>
      </trkpt>
      <trkpt lat="46.783" lon="5.50537">
        <ele>249</ele>
        <time>2014-06-15T11:50:29+0200</time>
      </trkpt>
      <trkpt lat="46.78302" lon="5.50535">
        <ele>249</ele>
        <time>2014-06-15T11:50:45+0200</time>
      </trkpt>
      <trkpt lat="46.78302" lon="5.50534">
        <ele>249</ele>
        <time>2014-06-15T11:51:00+0200</time>
      </trkpt>
      <trkpt lat="46.783" lon="5.50535">
        <ele>249</ele>
        <time>2014-06-15T11:51:15+0200</time>
      </trkpt>
      <trkpt lat="46.783" lon="5.50534">
        <ele>249</ele>
        <time>2014-06-15T11:51:31+0200</time>
      </trkpt>
      <trkpt lat="46.78302" lon="5.50535">
        <ele>249</ele>
        <time>2014-06-15T11:51:47+0200</time>
      </trkpt>
      <trkpt lat="46.78299" lon="5.50535">
        <ele>249</ele>
        <time>2014-06-15T11:52:03+0200</time>
      </trkpt>
      <trkpt lat="46.783" lon="5.50537">
        <ele>249</ele>
        <time>2014-06-15T11:52:19+0200</time>
      </trkpt>
      <trkpt lat="46.783" lon="5.50536">
        <ele>249</ele>
        <time>2014-06-15T11:52:34+0200</time>
      </trkpt>
      <trkpt lat="46.78299" lon="5.50535">
        <ele>249</ele>
        <time>2014-06-15T11:52:49+0200</time>
      </trkpt>
      <trkpt lat="46.78298" lon="5.50534">
        <ele>249</ele>
        <time>2014-06-15T11:53:05+0200</time>
      </trkpt>
      <trkpt lat="46.78298" lon="5.50534">
        <ele>249</ele>
        <time>2014-06-15T11:53:21+0200</time>
      </trkpt>
      <trkpt lat="46.78301" lon="5.50539">
        <ele>249</ele>
        <time>2014-06-15T11:53:37+0200</time>
      </trkpt>
      <trkpt lat="46.78301" lon="5.50539">
        <ele>249</ele>
        <time>2014-06-15T11:53:53+0200</time>
      </trkpt>
      <trkpt lat="46.78301" lon="5.50539">
        <ele>249</ele>
        <time>2014-06-15T11:54:08+0200</time>
      </trkpt>
      <trkpt lat="46.78301" lon="5.50539">
        <ele>249</ele>
        <time>2014-06-15T11:54:24+0200</time>
      </trkpt>
      <trkpt lat="46.78298" lon="5.50532">
        <ele>249</ele>
        <time>2014-06-15T11:54:40+0200</time>
      </trkpt>
      <trkpt lat="46.78299" lon="5.50532">
        <ele>249</ele>
        <time>2014-06-15T11:54:56+0200</time>
      </trkpt>
      <trkpt lat="46.78299" lon="5.50532">
        <ele>249</ele>
        <time>2014-06-15T11:55:12+0200</time>
      </trkpt>
      <trkpt lat="46.78299" lon="5.50529">
        <ele>249</ele>
        <time>2014-06-15T11:55:28+0200</time>
      </trkpt>
      <trkpt lat="46.78301" lon="5.50529">
        <ele>249</ele>
        <time>2014-06-15T11:55:43+0200</time>
      </trkpt>
      <trkpt lat="46.78301" lon="5.50529">
        <ele>249</ele>
        <time>2014-06-15T11:55:58+0200</time>
      </trkpt>
      <trkpt lat="46.78301" lon="5.50529">
        <ele>249</ele>
        <time>2014-06-15T11:56:14+0200</time>
      </trkpt>
      <trkpt lat="46.78301" lon="5.50532">
        <ele>249</ele>
        <time>2014-06-15T11:56:29+0200</time>
      </trkpt>
      <trkpt lat="46.78279" lon="5.50477">
        <ele>249</ele>
        <time>2014-06-15T11:56:45+0200</time>
      </trkpt>
      <trkpt lat="46.78241" lon="5.50383">
        <ele>247</ele>
        <time>2014-06-15T11:57:00+0200</time>
      </trkpt>
      <trkpt lat="46.78205" lon="5.50278">
        <ele>246</ele>
        <time>2014-06-15T11:57:15+0200</time>
      </trkpt>
      <trkpt lat="46.78218" lon="5.50174">
        <ele>246</ele>
        <time>2014-06-15T11:57:31+0200</time>
      </trkpt>
      <trkpt lat="46.7824" lon="5.50051">
        <ele>245</ele>
        <time>2014-06-15T11:57:46+0200</time>
      </trkpt>
      <trkpt lat="46.78235" lon="5.49772">
        <ele>227</ele>
        <time>2014-06-15T11:58:02+0200</time>
      </trkpt>
      <trkpt lat="46.78292" lon="5.49544">
        <ele>221</ele>
        <time>2014-06-15T11:58:17+0200</time>
      </trkpt>
      <trkpt lat="46.78345" lon="5.49373">
        <ele>218</ele>
        <time>2014-06-15T11:58:33+0200</time>
      </trkpt>
      <trkpt lat="46.78338" lon="5.49229">
        <ele>219</ele>
        <time>2014-06-15T11:58:48+0200</time>
      </trkpt>
      <trkpt lat="46.7837" lon="5.49174">
        <ele>218</ele>
        <time>2014-06-15T11:59:04+0200</time>
      </trkpt>
      <trkpt lat="46.78411" lon="5.49192">
        <ele>218</ele>
        <time>2014-06-15T11:59:19+0200</time>
      </trkpt>
      <trkpt lat="46.78473" lon="5.49219">
        <ele>218</ele>
        <time>2014-06-15T11:59:35+0200</time>
      </trkpt>
      <trkpt lat="46.78521" lon="5.49214">
        <ele>217</ele>
        <time>2014-06-15T11:59:50+0200</time>
      </trkpt>
      <trkpt lat="46.78545" lon="5.49136">
        <ele>217</ele>
        <time>2014-06-15T12:00:06+0200</time>
      </trkpt>
      <trkpt lat="46.78566" lon="5.49055">
        <ele>217</ele>
        <time>2014-06-15T12:00:22+0200</time>
      </trkpt>
      <trkpt lat="46.78596" lon="5.48965">
        <ele>218</ele>
        <time>2014-06-15T12:00:37+0200</time>
      </trkpt>
      <trkpt lat="46.78645" lon="5.48919">
        <ele>219</ele>
        <time>2014-06-15T12:00:53+0200</time>
      </trkpt>
      <trkpt lat="46.78702" lon="5.48889">
        <ele>219</ele>
        <time>2014-06-15T12:01:09+0200</time>
      </trkpt>
      <trkpt lat="46.78751" lon="5.48835">
        <ele>219</ele>
        <time>2014-06-15T12:01:24+0200</time>
      </trkpt>
      <trkpt lat="46.78805" lon="5.48781">
        <ele>220</ele>
        <time>2014-06-15T12:01:39+0200</time>
      </trkpt>
      <trkpt lat="46.78863" lon="5.48764">
        <ele>220</ele>
        <time>2014-06-15T12:01:54+0200</time>
      </trkpt>
      <trkpt lat="46.78921" lon="5.48762">
        <ele>219</ele>
        <time>2014-06-15T12:02:09+0200</time>
      </trkpt>
      <trkpt lat="46.78976" lon="5.48741">
        <ele>218</ele>
        <time>2014-06-15T12:02:24+0200</time>
      </trkpt>
      <trkpt lat="46.79063" lon="5.48716">
        <ele>216</ele>
        <time>2014-06-15T12:02:40+0200</time>
      </trkpt>
      <trkpt lat="46.79164" lon="5.48733">
        <ele>212</ele>
        <time>2014-06-15T12:02:55+0200</time>
      </trkpt>
      <trkpt lat="46.79248" lon="5.48779">
        <ele>210</ele>
        <time>2014-06-15T12:03:10+0200</time>
      </trkpt>
      <trkpt lat="46.79315" lon="5.48864">
        <ele>213</ele>
        <time>2014-06-15T12:03:26+0200</time>
      </trkpt>
      <trkpt lat="46.7936" lon="5.48897">
        <ele>216</ele>
        <time>2014-06-15T12:03:41+0200</time>
      </trkpt>
      <trkpt lat="46.79404" lon="5.48917">
        <ele>218</ele>
        <time>2014-06-15T12:03:56+0200</time>
      </trkpt>
      <trkpt lat="46.79454" lon="5.48927">
        <ele>223</ele>
        <time>2014-06-15T12:04:12+0200</time>
      </trkpt>
      <trkpt lat="46.79495" lon="5.48915">
        <ele>225</ele>
        <time>2014-06-15T12:04:27+0200</time>
      </trkpt>
      <trkpt lat="46.79565" lon="5.4891">
        <ele>226</ele>
        <time>2014-06-15T12:04:43+0200</time>
      </trkpt>
      <trkpt lat="46.79687" lon="5.48879">
        <ele>222</ele>
        <time>2014-06-15T12:04:58+0200</time>
      </trkpt>
      <trkpt lat="46.79785" lon="5.48861">
        <ele>222</ele>
        <time>2014-06-15T12:05:14+0200</time>
      </trkpt>
      <trkpt lat="46.79861" lon="5.48844">
        <ele>224</ele>
        <time>2014-06-15T12:05:30+0200</time>
      </trkpt>
      <trkpt lat="46.7993" lon="5.48834">
        <ele>227</ele>
        <time>2014-06-15T12:05:45+0200</time>
      </trkpt>
      <trkpt lat="46.79992" lon="5.48823">
        <ele>227</ele>
        <time>2014-06-15T12:06:00+0200</time>
      </trkpt>
      <trkpt lat="46.80076" lon="5.48817">
        <ele>221</ele>
        <time>2014-06-15T12:06:15+0200</time>
      </trkpt>
      <trkpt lat="46.80176" lon="5.48856">
        <ele>215</ele>
        <time>2014-06-15T12:06:31+0200</time>
      </trkpt>
      <trkpt lat="46.80273" lon="5.48858">
        <ele>212</ele>
        <time>2014-06-15T12:06:46+0200</time>
      </trkpt>
      <trkpt lat="46.80407" lon="5.48781">
        <ele>208</ele>
        <time>2014-06-15T12:07:02+0200</time>
      </trkpt>
      <trkpt lat="46.80499" lon="5.48729">
        <ele>209</ele>
        <time>2014-06-15T12:07:18+0200</time>
      </trkpt>
      <trkpt lat="46.80546" lon="5.48701">
        <ele>213</ele>
        <time>2014-06-15T12:07:34+0200</time>
      </trkpt>
      <trkpt lat="46.80593" lon="5.48679">
        <ele>217</ele>
        <time>2014-06-15T12:07:49+0200</time>
      </trkpt>
      <trkpt lat="46.80639" lon="5.48664">
        <ele>218</ele>
        <time>2014-06-15T12:08:05+0200</time>
      </trkpt>
      <trkpt lat="46.80683" lon="5.48651">
        <ele>219</ele>
        <time>2014-06-15T12:08:21+0200</time>
      </trkpt>
      <trkpt lat="46.80732" lon="5.48626">
        <ele>220</ele>
        <time>2014-06-15T12:08:37+0200</time>
      </trkpt>
      <trkpt lat="46.80773" lon="5.48604">
        <ele>220</ele>
        <time>2014-06-15T12:08:53+0200</time>
      </trkpt>
      <trkpt lat="46.8077" lon="5.48606">
        <ele>220</ele>
        <time>2014-06-15T12:09:09+0200</time>
      </trkpt>
      <trkpt lat="46.80769" lon="5.48609">
        <ele>220</ele>
        <time>2014-06-15T12:09:24+0200</time>
      </trkpt>
      <trkpt lat="46.80769" lon="5.48611">
        <ele>220</ele>
        <time>2014-06-15T12:09:40+0200</time>
      </trkpt>
      <trkpt lat="46.8077" lon="5.48609">
        <ele>220</ele>
        <time>2014-06-15T12:09:55+0200</time>
      </trkpt>
      <trkpt lat="46.8077" lon="5.48608">
        <ele>220</ele>
        <time>2014-06-15T12:10:11+0200</time>
      </trkpt>
      <trkpt lat="46.8077" lon="5.48607">
        <ele>220</ele>
        <time>2014-06-15T12:10:26+0200</time>
      </trkpt>
      <trkpt lat="46.80762" lon="5.48609">
        <ele>220</ele>
        <time>2014-06-15T12:10:41+0200</time>
      </trkpt>
      <trkpt lat="46.80766" lon="5.48609">
        <ele>220</ele>
        <time>2014-06-15T12:10:57+0200</time>
      </trkpt>
      <trkpt lat="46.80772" lon="5.48606">
        <ele>220</ele>
        <time>2014-06-15T12:11:12+0200</time>
      </trkpt>
      <trkpt lat="46.80772" lon="5.48606">
        <ele>220</ele>
        <time>2014-06-15T12:11:28+0200</time>
      </trkpt>
      <trkpt lat="46.80771" lon="5.48608">
        <ele>220</ele>
        <time>2014-06-15T12:11:44+0200</time>
      </trkpt>
      <trkpt lat="46.80771" lon="5.48608">
        <ele>220</ele>
        <time>2014-06-15T12:11:59+0200</time>
      </trkpt>
      <trkpt lat="46.80771" lon="5.48608">
        <ele>220</ele>
        <time>2014-06-15T12:12:14+0200</time>
      </trkpt>
      <trkpt lat="46.80771" lon="5.48608">
        <ele>220</ele>
        <time>2014-06-15T12:12:29+0200</time>
      </trkpt>
      <trkpt lat="46.80771" lon="5.48608">
        <ele>220</ele>
        <time>2014-06-15T12:12:45+0200</time>
      </trkpt>
      <trkpt lat="46.80771" lon="5.48608">
        <ele>220</ele>
        <time>2014-06-15T12:13:00+0200</time>
      </trkpt>
      <trkpt lat="46.80771" lon="5.48608">
        <ele>220</ele>
        <time>2014-06-15T12:13:16+0200</time>
      </trkpt>
      <trkpt lat="46.80771" lon="5.48608">
        <ele>220</ele>
        <time>2014-06-15T12:13:31+0200</time>
      </trkpt>
      <trkpt lat="46.80771" lon="5.48608">
        <ele>220</ele>
        <time>2014-06-15T12:13:46+0200</time>
      </trkpt>
      <trkpt lat="46.80771" lon="5.48608">
        <ele>220</ele>
        <time>2014-06-15T12:14:01+0200</time>
      </trkpt>
      <trkpt lat="46.80771" lon="5.48608">
        <ele>220</ele>
        <time>2014-06-15T12:14:16+0200</time>
      </trkpt>
      <trkpt lat="46.80771" lon="5.48608">
        <ele>220</ele>
        <time>2014-06-15T12:14:31+0200</time>
      </trkpt>
      <trkpt lat="46.80771" lon="5.48608">
        <ele>220</ele>
        <time>2014-06-15T12:14:47+0200</time>
      </trkpt>
      <trkpt lat="46.80771" lon="5.48608">
        <ele>220</ele>
        <time>2014-06-15T12:15:02+0200</time>
      </trkpt>
      <trkpt lat="46.80771" lon="5.48608">
        <ele>220</ele>
        <time>2014-06-15T12:15:18+0200</time>
      </trkpt>
      <trkpt lat="46.80771" lon="5.48608">
        <ele>220</ele>
        <time>2014-06-15T12:15:34+0200</time>
      </trkpt>
      <trkpt lat="46.80771" lon="5.48608">
        <ele>220</ele>
        <time>2014-06-15T12:15:50+0200</time>
      </trkpt>
      <trkpt lat="46.80771" lon="5.48608">
        <ele>220</ele>
        <time>2014-06-15T12:16:05+0200</time>
      </trkpt>
      <trkpt lat="46.80771" lon="5.48608">
        <ele>220</ele>
        <time>2014-06-15T12:16:21+0200</time>
      </trkpt>
      <trkpt lat="46.80771" lon="5.48608">
        <ele>220</ele>
        <time>2014-06-15T12:16:37+0200</time>
      </trkpt>
      <trkpt lat="46.80771" lon="5.48608">
        <ele>220</ele>
        <time>2014-06-15T12:16:53+0200</time>
      </trkpt>
      <trkpt lat="46.80771" lon="5.48608">
        <ele>220</ele>
        <time>2014-06-15T12:17:09+0200</time>
      </trkpt>
      <trkpt lat="46.808" lon="5.48587">
        <ele>220</ele>
        <time>2014-06-15T12:17:25+0200</time>
      </trkpt>
      <trkpt lat="46.80849" lon="5.4857">
        <ele>219</ele>
        <time>2014-06-15T12:17:41+0200</time>
      </trkpt>
      <trkpt lat="46.80896" lon="5.48557">
        <ele>220</ele>
        <time>2014-06-15T12:17:56+0200</time>
      </trkpt>
      <trkpt lat="46.80938" lon="5.48551">
        <ele>221</ele>
        <time>2014-06-15T12:18:12+0200</time>
      </trkpt>
      <trkpt lat="46.81006" lon="5.48535">
        <ele>221</ele>
        <time>2014-06-15T12:18:27+0200</time>
      </trkpt>
      <trkpt lat="46.81075" lon="5.48497">
        <ele>219</ele>
        <time>2014-06-15T12:18:42+0200</time>
      </trkpt>
      <trkpt lat="46.81151" lon="5.48398">
        <ele>216</ele>
        <time>2014-06-15T12:18:58+0200</time>
      </trkpt>
      <trkpt lat="46.81229" lon="5.4832">
        <ele>212</ele>
        <time>2014-06-15T12:19:14+0200</time>
      </trkpt>
      <trkpt lat="46.81294" lon="5.48277">
        <ele>210</ele>
        <time>2014-06-15T12:19:29+0200</time>
      </trkpt>
      <trkpt lat="46.81386" lon="5.4825">
        <ele>208</ele>
        <time>2014-06-15T12:19:44+0200</time>
      </trkpt>
      <trkpt lat="46.81469" lon="5.48236">
        <ele>206</ele>
        <time>2014-06-15T12:20:00+0200</time>
      </trkpt>
      <trkpt lat="46.81532" lon="5.48193">
        <ele>207</ele>
        <time>2014-06-15T12:20:15+0200</time>
      </trkpt>
      <trkpt lat="46.81573" lon="5.48103">
        <ele>210</ele>
        <time>2014-06-15T12:20:30+0200</time>
      </trkpt>
      <trkpt lat="46.8167" lon="5.48059">
        <ele>207</ele>
        <time>2014-06-15T12:20:46+0200</time>
      </trkpt>
      <trkpt lat="46.81765" lon="5.48031">
        <ele>207</ele>
        <time>2014-06-15T12:21:01+0200</time>
      </trkpt>
      <trkpt lat="46.81845" lon="5.48011">
        <ele>207</ele>
        <time>2014-06-15T12:21:17+0200</time>
      </trkpt>
      <trkpt lat="46.81912" lon="5.47993">
        <ele>208</ele>
        <time>2014-06-15T12:21:33+0200</time>
      </trkpt>
      <trkpt lat="46.8196" lon="5.47963">
        <ele>209</ele>
        <time>2014-06-15T12:21:49+0200</time>
      </trkpt>
      <trkpt lat="46.81999" lon="5.47939">
        <ele>210</ele>
        <time>2014-06-15T12:22:05+0200</time>
      </trkpt>
      <trkpt lat="46.82034" lon="5.47916">
        <ele>212</ele>
        <time>2014-06-15T12:22:20+0200</time>
      </trkpt>
      <trkpt lat="46.82076" lon="5.47908">
        <ele>214</ele>
        <time>2014-06-15T12:22:36+0200</time>
      </trkpt>
      <trkpt lat="46.82117" lon="5.47918">
        <ele>216</ele>
        <time>2014-06-15T12:22:52+0200</time>
      </trkpt>
      <trkpt lat="46.82165" lon="5.47929">
        <ele>217</ele>
        <time>2014-06-15T12:23:08+0200</time>
      </trkpt>
      <trkpt lat="46.82225" lon="5.47951">
        <ele>217</ele>
        <time>2014-06-15T12:23:24+0200</time>
      </trkpt>
      <trkpt lat="46.82283" lon="5.47972">
        <ele>217</ele>
        <time>2014-06-15T12:23:40+0200</time>
      </trkpt>
      <trkpt lat="46.8234" lon="5.47994">
        <ele>217</ele>
        <time>2014-06-15T12:23:56+0200</time>
      </trkpt>
      <trkpt lat="46.82392" lon="5.48015">
        <ele>216</ele>
        <time>2014-06-15T12:24:11+0200</time>
      </trkpt>
      <trkpt lat="46.82442" lon="5.4804">
        <ele>217</ele>
        <time>2014-06-15T12:24:26+0200</time>
      </trkpt>
      <trkpt lat="46.82493" lon="5.48064">
        <ele>217</ele>
        <time>2014-06-15T12:24:41+0200</time>
      </trkpt>
      <trkpt lat="46.82541" lon="5.48035">
        <ele>219</ele>
        <time>2014-06-15T12:24:57+0200</time>
      </trkpt>
      <trkpt lat="46.82603" lon="5.47995">
        <ele>219</ele>
        <time>2014-06-15T12:25:12+0200</time>
      </trkpt>
      <trkpt lat="46.82641" lon="5.47939">
        <ele>219</ele>
        <time>2014-06-15T12:25:27+0200</time>
      </trkpt>
      <trkpt lat="46.82687" lon="5.47863">
        <ele>219</ele>
        <time>2014-06-15T12:25:43+0200</time>
      </trkpt>
      <trkpt lat="46.82733" lon="5.47903">
        <ele>219</ele>
        <time>2014-06-15T12:25:59+0200</time>
      </trkpt>
      <trkpt lat="46.82784" lon="5.47966">
        <ele>216</ele>
        <time>2014-06-15T12:26:14+0200</time>
      </trkpt>
      <trkpt lat="46.82889" lon="5.48061">
        <ele>206</ele>
        <time>2014-06-15T12:26:30+0200</time>
      </trkpt>
      <trkpt lat="46.83005" lon="5.47996">
        <ele>206</ele>
        <time>2014-06-15T12:26:46+0200</time>
      </trkpt>
      <trkpt lat="46.83094" lon="5.48003">
        <ele>207</ele>
        <time>2014-06-15T12:27:01+0200</time>
      </trkpt>
      <trkpt lat="46.83145" lon="5.48006">
        <ele>207</ele>
        <time>2014-06-15T12:27:17+0200</time>
      </trkpt>
      <trkpt lat="46.83186" lon="5.48006">
        <ele>209</ele>
        <time>2014-06-15T12:27:32+0200</time>
      </trkpt>
      <trkpt lat="46.83233" lon="5.48007">
        <ele>212</ele>
        <time>2014-06-15T12:27:48+0200</time>
      </trkpt>
      <trkpt lat="46.83273" lon="5.48001">
        <ele>214</ele>
        <time>2014-06-15T12:28:04+0200</time>
      </trkpt>
      <trkpt lat="46.83299" lon="5.48012">
        <ele>214</ele>
        <time>2014-06-15T12:28:20+0200</time>
      </trkpt>
      <trkpt lat="46.83334" lon="5.48034">
        <ele>216</ele>
        <time>2014-06-15T12:28:36+0200</time>
      </trkpt>
      <trkpt lat="46.8338" lon="5.48072">
        <ele>216</ele>
        <time>2014-06-15T12:28:51+0200</time>
      </trkpt>
      <trkpt lat="46.83428" lon="5.48098">
        <ele>218</ele>
        <time>2014-06-15T12:29:06+0200</time>
      </trkpt>
      <trkpt lat="46.83476" lon="5.48123">
        <ele>218</ele>
        <time>2014-06-15T12:29:21+0200</time>
      </trkpt>
      <trkpt lat="46.83533" lon="5.48148">
        <ele>221</ele>
        <time>2014-06-15T12:29:37+0200</time>
      </trkpt>
      <trkpt lat="46.8359" lon="5.48108">
        <ele>223</ele>
        <time>2014-06-15T12:29:53+0200</time>
      </trkpt>
      <trkpt lat="46.83635" lon="5.47998">
        <ele>223</ele>
        <time>2014-06-15T12:30:08+0200</time>
      </trkpt>
      <trkpt lat="46.8368" lon="5.47917">
        <ele>228</ele>
        <time>2014-06-15T12:30:23+0200</time>
      </trkpt>
      <trkpt lat="46.83722" lon="5.47851">
        <ele>227</ele>
        <time>2014-06-15T12:30:39+0200</time>
      </trkpt>
      <trkpt lat="46.83772" lon="5.47796">
        <ele>223</ele>
        <time>2014-06-15T12:30:55+0200</time>
      </trkpt>
      <trkpt lat="46.83814" lon="5.47783">
        <ele>221</ele>
        <time>2014-06-15T12:31:10+0200</time>
      </trkpt>
      <trkpt lat="46.83832" lon="5.47846">
        <ele>223</ele>
        <time>2014-06-15T12:31:26+0200</time>
      </trkpt>
      <trkpt lat="46.83857" lon="5.47933">
        <ele>225</ele>
        <time>2014-06-15T12:31:42+0200</time>
      </trkpt>
      <trkpt lat="46.83886" lon="5.48035">
        <ele>223</ele>
        <time>2014-06-15T12:31:58+0200</time>
      </trkpt>
      <trkpt lat="46.83953" lon="5.48112">
        <ele>218</ele>
        <time>2014-06-15T12:32:14+0200</time>
      </trkpt>
      <trkpt lat="46.84048" lon="5.48169">
        <ele>215</ele>
        <time>2014-06-15T12:32:30+0200</time>
      </trkpt>
      <trkpt lat="46.84122" lon="5.48256">
        <ele>211</ele>
        <time>2014-06-15T12:32:45+0200</time>
      </trkpt>
      <trkpt lat="46.84205" lon="5.48352">
        <ele>206</ele>
        <time>2014-06-15T12:33:01+0200</time>
      </trkpt>
      <trkpt lat="46.84282" lon="5.48464">
        <ele>205</ele>
        <time>2014-06-15T12:33:17+0200</time>
      </trkpt>
      <trkpt lat="46.84351" lon="5.48549">
        <ele>209</ele>
        <time>2014-06-15T12:33:32+0200</time>
      </trkpt>
      <trkpt lat="46.84403" lon="5.48587">
        <ele>212</ele>
        <time>2014-06-15T12:33:48+0200</time>
      </trkpt>
      <trkpt lat="46.84429" lon="5.48604">
        <ele>212</ele>
        <time>2014-06-15T12:34:03+0200</time>
      </trkpt>
      <trkpt lat="46.8443" lon="5.48604">
        <ele>212</ele>
        <time>2014-06-15T12:34:19+0200</time>
      </trkpt>
      <trkpt lat="46.84429" lon="5.48604">
        <ele>212</ele>
        <time>2014-06-15T12:34:34+0200</time>
      </trkpt>
      <trkpt lat="46.84431" lon="5.48604">
        <ele>212</ele>
        <time>2014-06-15T12:34:49+0200</time>
      </trkpt>
      <trkpt lat="46.84429" lon="5.48603">
        <ele>212</ele>
        <time>2014-06-15T12:35:05+0200</time>
      </trkpt>
      <trkpt lat="46.84428" lon="5.48603">
        <ele>212</ele>
        <time>2014-06-15T12:35:21+0200</time>
      </trkpt>
      <trkpt lat="46.84429" lon="5.48603">
        <ele>212</ele>
        <time>2014-06-15T12:35:36+0200</time>
      </trkpt>
      <trkpt lat="46.84428" lon="5.48603">
        <ele>212</ele>
        <time>2014-06-15T12:35:52+0200</time>
      </trkpt>
      <trkpt lat="46.84428" lon="5.48603">
        <ele>212</ele>
        <time>2014-06-15T12:36:08+0200</time>
      </trkpt>
      <trkpt lat="46.8443" lon="5.48604">
        <ele>212</ele>
        <time>2014-06-15T12:36:24+0200</time>
      </trkpt>
      <trkpt lat="46.8443" lon="5.48604">
        <ele>212</ele>
        <time>2014-06-15T12:36:39+0200</time>
      </trkpt>
      <trkpt lat="46.8443" lon="5.48604">
        <ele>212</ele>
        <time>2014-06-15T12:36:55+0200</time>
      </trkpt>
      <trkpt lat="46.8443" lon="5.48604">
        <ele>212</ele>
        <time>2014-06-15T12:37:11+0200</time>
      </trkpt>
      <trkpt lat="46.84431" lon="5.48604">
        <ele>212</ele>
        <time>2014-06-15T12:37:26+0200</time>
      </trkpt>
      <trkpt lat="46.84431" lon="5.48605">
        <ele>212</ele>
        <time>2014-06-15T12:37:41+0200</time>
      </trkpt>
      <trkpt lat="46.84431" lon="5.48605">
        <ele>212</ele>
        <time>2014-06-15T12:37:57+0200</time>
      </trkpt>
      <trkpt lat="46.84431" lon="5.48605">
        <ele>212</ele>
        <time>2014-06-15T12:38:13+0200</time>
      </trkpt>
      <trkpt lat="46.84431" lon="5.48605">
        <ele>212</ele>
        <time>2014-06-15T12:38:29+0200</time>
      </trkpt>
      <trkpt lat="46.84431" lon="5.48604">
        <ele>212</ele>
        <time>2014-06-15T12:38:45+0200</time>
      </trkpt>
      <trkpt lat="46.84431" lon="5.48605">
        <ele>212</ele>
        <time>2014-06-15T12:39:00+0200</time>
      </trkpt>
      <trkpt lat="46.84431" lon="5.48604">
        <ele>212</ele>
        <time>2014-06-15T12:39:15+0200</time>
      </trkpt>
      <trkpt lat="46.84431" lon="5.48604">
        <ele>212</ele>
        <time>2014-06-15T12:39:31+0200</time>
      </trkpt>
      <trkpt lat="46.8443" lon="5.48604">
        <ele>212</ele>
        <time>2014-06-15T12:39:47+0200</time>
      </trkpt>
      <trkpt lat="46.84431" lon="5.48604">
        <ele>212</ele>
        <time>2014-06-15T12:40:03+0200</time>
      </trkpt>
      <trkpt lat="46.84431" lon="5.48605">
        <ele>212</ele>
        <time>2014-06-15T12:40:18+0200</time>
      </trkpt>
      <trkpt lat="46.8443" lon="5.48604">
        <ele>212</ele>
        <time>2014-06-15T12:40:34+0200</time>
      </trkpt>
      <trkpt lat="46.84431" lon="5.48605">
        <ele>212</ele>
        <time>2014-06-15T12:40:50+0200</time>
      </trkpt>
      <trkpt lat="46.84431" lon="5.48604">
        <ele>212</ele>
        <time>2014-06-15T12:41:05+0200</time>
      </trkpt>
      <trkpt lat="46.84428" lon="5.48603">
        <ele>212</ele>
        <time>2014-06-15T12:41:20+0200</time>
      </trkpt>
      <trkpt lat="46.84425" lon="5.48601">
        <ele>212</ele>
        <time>2014-06-15T12:41:36+0200</time>
      </trkpt>
      <trkpt lat="46.84425" lon="5.48601">
        <ele>212</ele>
        <time>2014-06-15T12:41:51+0200</time>
      </trkpt>
      <trkpt lat="46.8443" lon="5.48604">
        <ele>212</ele>
        <time>2014-06-15T12:42:07+0200</time>
      </trkpt>
      <trkpt lat="46.84431" lon="5.48605">
        <ele>212</ele>
        <time>2014-06-15T12:42:23+0200</time>
      </trkpt>
      <trkpt lat="46.8443" lon="5.48604">
        <ele>212</ele>
        <time>2014-06-15T12:42:39+0200</time>
      </trkpt>
      <trkpt lat="46.84429" lon="5.48603">
        <ele>212</ele>
        <time>2014-06-15T12:42:54+0200</time>
      </trkpt>
      <trkpt lat="46.8443" lon="5.48604">
        <ele>212</ele>
        <time>2014-06-15T12:43:09+0200</time>
      </trkpt>
      <trkpt lat="46.84428" lon="5.48603">
        <ele>212</ele>
        <time>2014-06-15T12:43:25+0200</time>
      </trkpt>
      <trkpt lat="46.84426" lon="5.48602">
        <ele>212</ele>
        <time>2014-06-15T12:43:40+0200</time>
      </trkpt>
      <trkpt lat="46.8443" lon="5.48604">
        <ele>212</ele>
        <time>2014-06-15T12:43:55+0200</time>
      </trkpt>
      <trkpt lat="46.84431" lon="5.48604">
        <ele>212</ele>
        <time>2014-06-15T12:44:11+0200</time>
      </trkpt>
      <trkpt lat="46.84464" lon="5.4855">
        <ele>211</ele>
        <time>2014-06-15T12:44:26+0200</time>
      </trkpt>
      <trkpt lat="46.8451" lon="5.48492">
        <ele>211</ele>
        <time>2014-06-15T12:44:41+0200</time>
      </trkpt>
      <trkpt lat="46.84556" lon="5.48427">
        <ele>210</ele>
        <time>2014-06-15T12:44:56+0200</time>
      </trkpt>
      <trkpt lat="46.84593" lon="5.48278">
        <ele>205</ele>
        <time>2014-06-15T12:45:11+0200</time>
      </trkpt>
      <trkpt lat="46.84609" lon="5.48111">
        <ele>203</ele>
        <time>2014-06-15T12:45:26+0200</time>
      </trkpt>
      <trkpt lat="46.84622" lon="5.4799">
        <ele>207</ele>
        <time>2014-06-15T12:45:42+0200</time>
      </trkpt>
      <trkpt lat="46.84647" lon="5.4791">
        <ele>210</ele>
        <time>2014-06-15T12:45:58+0200</time>
      </trkpt>
      <trkpt lat="46.84666" lon="5.47838">
        <ele>211</ele>
        <time>2014-06-15T12:46:14+0200</time>
      </trkpt>
      <trkpt lat="46.8466" lon="5.47792">
        <ele>212</ele>
        <time>2014-06-15T12:46:30+0200</time>
      </trkpt>
      <trkpt lat="46.84623" lon="5.47747">
        <ele>213</ele>
        <time>2014-06-15T12:46:45+0200</time>
      </trkpt>
      <trkpt lat="46.84574" lon="5.47701">
        <ele>214</ele>
        <time>2014-06-15T12:47:01+0200</time>
      </trkpt>
      <trkpt lat="46.84524" lon="5.47655">
        <ele>214</ele>
        <time>2014-06-15T12:47:16+0200</time>
      </trkpt>
      <trkpt lat="46.8446" lon="5.47602">
        <ele>214</ele>
        <time>2014-06-15T12:47:32+0200</time>
      </trkpt>
      <trkpt lat="46.84395" lon="5.47532">
        <ele>214</ele>
        <time>2014-06-15T12:47:47+0200</time>
      </trkpt>
      <trkpt lat="46.84331" lon="5.47474">
        <ele>215</ele>
        <time>2014-06-15T12:48:03+0200</time>
      </trkpt>
      <trkpt lat="46.84266" lon="5.47426">
        <ele>216</ele>
        <time>2014-06-15T12:48:19+0200</time>
      </trkpt>
      <trkpt lat="46.8428" lon="5.47356">
        <ele>217</ele>
        <time>2014-06-15T12:48:34+0200</time>
      </trkpt>
      <trkpt lat="46.84308" lon="5.47275">
        <ele>218</ele>
        <time>2014-06-15T12:48:50+0200</time>
      </trkpt>
      <trkpt lat="46.84357" lon="5.47203">
        <ele>219</ele>
        <time>2014-06-15T12:49:06+0200</time>
      </trkpt>
      <trkpt lat="46.84404" lon="5.47116">
        <ele>220</ele>
        <time>2014-06-15T12:49:22+0200</time>
      </trkpt>
      <trkpt lat="46.84436" lon="5.47009">
        <ele>221</ele>
        <time>2014-06-15T12:49:37+0200</time>
      </trkpt>
      <trkpt lat="46.84471" lon="5.46873">
        <ele>217</ele>
        <time>2014-06-15T12:49:52+0200</time>
      </trkpt>
      <trkpt lat="46.84498" lon="5.46751">
        <ele>215</ele>
        <time>2014-06-15T12:50:08+0200</time>
      </trkpt>
      <trkpt lat="46.8453" lon="5.46616">
        <ele>210</ele>
        <time>2014-06-15T12:50:23+0200</time>
      </trkpt>
      <trkpt lat="46.84568" lon="5.46448">
        <ele>209</ele>
        <time>2014-06-15T12:50:39+0200</time>
      </trkpt>
      <trkpt lat="46.84593" lon="5.46337">
        <ele>210</ele>
        <time>2014-06-15T12:50:54+0200</time>
      </trkpt>
      <trkpt lat="46.84614" lon="5.46245">
        <ele>215</ele>
        <time>2014-06-15T12:51:09+0200</time>
      </trkpt>
      <trkpt lat="46.84633" lon="5.46161">
        <ele>215</ele>
        <time>2014-06-15T12:51:25+0200</time>
      </trkpt>
      <trkpt lat="46.84653" lon="5.4608">
        <ele>213</ele>
        <time>2014-06-15T12:51:40+0200</time>
      </trkpt>
      <trkpt lat="46.84686" lon="5.45996">
        <ele>213</ele>
        <time>2014-06-15T12:51:56+0200</time>
      </trkpt>
      <trkpt lat="46.8473" lon="5.45902">
        <ele>213</ele>
        <time>2014-06-15T12:52:11+0200</time>
      </trkpt>
      <trkpt lat="46.84748" lon="5.45808">
        <ele>212</ele>
        <time>2014-06-15T12:52:27+0200</time>
      </trkpt>
      <trkpt lat="46.84756" lon="5.45706">
        <ele>214</ele>
        <time>2014-06-15T12:52:42+0200</time>
      </trkpt>
      <trkpt lat="46.84779" lon="5.45607">
        <ele>213</ele>
        <time>2014-06-15T12:52:58+0200</time>
      </trkpt>
      <trkpt lat="46.84815" lon="5.45517">
        <ele>212</ele>
        <time>2014-06-15T12:53:13+0200</time>
      </trkpt>
      <trkpt lat="46.84855" lon="5.45424">
        <ele>212</ele>
        <time>2014-06-15T12:53:28+0200</time>
      </trkpt>
      <trkpt lat="46.84898" lon="5.45337">
        <ele>212</ele>
        <time>2014-06-15T12:53:43+0200</time>
      </trkpt>
      <trkpt lat="46.84976" lon="5.45286">
        <ele>212</ele>
        <time>2014-06-15T12:53:59+0200</time>
      </trkpt>
      <trkpt lat="46.85009" lon="5.45199">
        <ele>212</ele>
        <time>2014-06-15T12:54:14+0200</time>
      </trkpt>
      <trkpt lat="46.85023" lon="5.45065">
        <ele>211</ele>
        <time>2014-06-15T12:54:30+0200</time>
      </trkpt>
      <trkpt lat="46.85012" lon="5.44908">
        <ele>209</ele>
        <time>2014-06-15T12:54:46+0200</time>
      </trkpt>
      <trkpt lat="46.85014" lon="5.44785">
        <ele>210</ele>
        <time>2014-06-15T12:55:01+0200</time>
      </trkpt>
      <trkpt lat="46.85029" lon="5.44699">
        <ele>212</ele>
        <time>2014-06-15T12:55:17+0200</time>
      </trkpt>
      <trkpt lat="46.85031" lon="5.44616">
        <ele>213</ele>
        <time>2014-06-15T12:55:33+0200</time>
      </trkpt>
      <trkpt lat="46.85074" lon="5.44555">
        <ele>213</ele>
        <time>2014-06-15T12:55:48+0200</time>
      </trkpt>
      <trkpt lat="46.85134" lon="5.44501">
        <ele>212</ele>
        <time>2014-06-15T12:56:03+0200</time>
      </trkpt>
      <trkpt lat="46.85191" lon="5.44467">
        <ele>210</ele>
        <time>2014-06-15T12:56:18+0200</time>
      </trkpt>
      <trkpt lat="46.85277" lon="5.44524">
        <ele>208</ele>
        <time>2014-06-15T12:56:34+0200</time>
      </trkpt>
      <trkpt lat="46.85392" lon="5.44598">
        <ele>208</ele>
        <time>2014-06-15T12:56:50+0200</time>
      </trkpt>
      <trkpt lat="46.85512" lon="5.44672">
        <ele>204</ele>
        <time>2014-06-15T12:57:05+0200</time>
      </trkpt>
      <trkpt lat="46.85632" lon="5.44745">
        <ele>200</ele>
        <time>2014-06-15T12:57:21+0200</time>
      </trkpt>
      <trkpt lat="46.85718" lon="5.44795">
        <ele>197</ele>
        <time>2014-06-15T12:57:37+0200</time>
      </trkpt>
      <trkpt lat="46.85797" lon="5.44842">
        <ele>194</ele>
        <time>2014-06-15T12:57:52+0200</time>
      </trkpt>
      <trkpt lat="46.85853" lon="5.44893">
        <ele>192</ele>
        <time>2014-06-15T12:58:07+0200</time>
      </trkpt>
      <trkpt lat="46.85891" lon="5.44936">
        <ele>192</ele>
        <time>2014-06-15T12:58:23+0200</time>
      </trkpt>
      <trkpt lat="46.85938" lon="5.44989">
        <ele>192</ele>
        <time>2014-06-15T12:58:39+0200</time>
      </trkpt>
      <trkpt lat="46.8599" lon="5.45046">
        <ele>192</ele>
        <time>2014-06-15T12:58:55+0200</time>
      </trkpt>
      <trkpt lat="46.86027" lon="5.45088">
        <ele>192</ele>
        <time>2014-06-15T12:59:10+0200</time>
      </trkpt>
      <trkpt lat="46.86099" lon="5.45105">
        <ele>192</ele>
        <time>2014-06-15T12:59:26+0200</time>
      </trkpt>
      <trkpt lat="46.8616" lon="5.45094">
        <ele>192</ele>
        <time>2014-06-15T12:59:42+0200</time>
      </trkpt>
      <trkpt lat="46.86218" lon="5.45065">
        <ele>191</ele>
        <time>2014-06-15T12:59:58+0200</time>
      </trkpt>
      <trkpt lat="46.86274" lon="5.45045">
        <ele>191</ele>
        <time>2014-06-15T13:00:14+0200</time>
      </trkpt>
      <trkpt lat="46.86333" lon="5.45051">
        <ele>194</ele>
        <time>2014-06-15T13:00:30+0200</time>
      </trkpt>
      <trkpt lat="46.86369" lon="5.45088">
        <ele>195</ele>
        <time>2014-06-15T13:00:45+0200</time>
      </trkpt>
      <trkpt lat="46.86404" lon="5.45118">
        <ele>196</ele>
        <time>2014-06-15T13:01:00+0200</time>
      </trkpt>
      <trkpt lat="46.86439" lon="5.45141">
        <ele>200</ele>
        <time>2014-06-15T13:01:15+0200</time>
      </trkpt>
      <trkpt lat="46.8647" lon="5.45162">
        <ele>202</ele>
        <time>2014-06-15T13:01:31+0200</time>
      </trkpt>
      <trkpt lat="46.86496" lon="5.45178">
        <ele>204</ele>
        <time>2014-06-15T13:01:46+0200</time>
      </trkpt>
      <trkpt lat="46.8653" lon="5.45196">
        <ele>207</ele>
        <time>2014-06-15T13:02:02+0200</time>
      </trkpt>
      <trkpt lat="46.86562" lon="5.45207">
        <ele>207</ele>
        <time>2014-06-15T13:02:17+0200</time>
      </trkpt>
      <trkpt lat="46.86595" lon="5.45217">
        <ele>209</ele>
        <time>2014-06-15T13:02:33+0200</time>
      </trkpt>
      <trkpt lat="46.86626" lon="5.45225">
        <ele>210</ele>
        <time>2014-06-15T13:02:48+0200</time>
      </trkpt>
      <trkpt lat="46.86661" lon="5.45237">
        <ele>210</ele>
        <time>2014-06-15T13:03:04+0200</time>
      </trkpt>
      <trkpt lat="46.86729" lon="5.45282">
        <ele>208</ele>
        <time>2014-06-15T13:03:19+0200</time>
      </trkpt>
      <trkpt lat="46.86785" lon="5.45298">
        <ele>207</ele>
        <time>2014-06-15T13:03:34+0200</time>
      </trkpt>
      <trkpt lat="46.86805" lon="5.4531">
        <ele>207</ele>
        <time>2014-06-15T13:03:49+0200</time>
      </trkpt>
      <trkpt lat="46.86807" lon="5.45311">
        <ele>207</ele>
        <time>2014-06-15T13:04:05+0200</time>
      </trkpt>
      <trkpt lat="46.86806" lon="5.45308">
        <ele>207</ele>
        <time>2014-06-15T13:04:20+0200</time>
      </trkpt>
      <trkpt lat="46.86779" lon="5.45288">
        <ele>207</ele>
        <time>2014-06-15T13:04:36+0200</time>
      </trkpt>
      <trkpt lat="46.86792" lon="5.45238">
        <ele>205</ele>
        <time>2014-06-15T13:04:52+0200</time>
      </trkpt>
      <trkpt lat="46.86792" lon="5.45237">
        <ele>205</ele>
        <time>2014-06-15T13:05:08+0200</time>
      </trkpt>
      <trkpt lat="46.86794" lon="5.45231">
        <ele>205</ele>
        <time>2014-06-15T13:05:24+0200</time>
      </trkpt>
      <trkpt lat="46.86794" lon="5.4523">
        <ele>205</ele>
        <time>2014-06-15T13:05:39+0200</time>
      </trkpt>
      <trkpt lat="46.86794" lon="5.4523">
        <ele>205</ele>
        <time>2014-06-15T13:05:54+0200</time>
      </trkpt>
      <trkpt lat="46.86794" lon="5.4523">
        <ele>205</ele>
        <time>2014-06-15T13:06:09+0200</time>
      </trkpt>
      <trkpt lat="46.86792" lon="5.45231">
        <ele>205</ele>
        <time>2014-06-15T13:06:25+0200</time>
      </trkpt>
      <trkpt lat="46.86789" lon="5.45231">
        <ele>205</ele>
        <time>2014-06-15T13:06:41+0200</time>
      </trkpt>
      <trkpt lat="46.86788" lon="5.45247">
        <ele>206</ele>
        <time>2014-06-15T13:06:57+0200</time>
      </trkpt>
      <trkpt lat="46.86776" lon="5.45291">
        <ele>207</ele>
        <time>2014-06-15T13:07:13+0200</time>
      </trkpt>
      <trkpt lat="46.86776" lon="5.45288">
        <ele>207</ele>
        <time>2014-06-15T13:07:29+0200</time>
      </trkpt>
      <trkpt lat="46.86796" lon="5.45306">
        <ele>207</ele>
        <time>2014-06-15T13:07:45+0200</time>
      </trkpt>
      <trkpt lat="46.86835" lon="5.4533">
        <ele>207</ele>
        <time>2014-06-15T13:08:00+0200</time>
      </trkpt>
      <trkpt lat="46.86878" lon="5.45341">
        <ele>209</ele>
        <time>2014-06-15T13:08:15+0200</time>
      </trkpt>
      <trkpt lat="46.86912" lon="5.45315">
        <ele>209</ele>
        <time>2014-06-15T13:08:30+0200</time>
      </trkpt>
      <trkpt lat="46.86949" lon="5.45316">
        <ele>211</ele>
        <time>2014-06-15T13:08:46+0200</time>
      </trkpt>
      <trkpt lat="46.86981" lon="5.45337">
        <ele>213</ele>
        <time>2014-06-15T13:09:01+0200</time>
      </trkpt>
      <trkpt lat="46.8702" lon="5.4537">
        <ele>215</ele>
        <time>2014-06-15T13:09:17+0200</time>
      </trkpt>
      <trkpt lat="46.87028" lon="5.45431">
        <ele>216</ele>
        <time>2014-06-15T13:09:33+0200</time>
      </trkpt>
      <trkpt lat="46.86988" lon="5.45523">
        <ele>213</ele>
        <time>2014-06-15T13:09:48+0200</time>
      </trkpt>
      <trkpt lat="46.86993" lon="5.45566">
        <ele>212</ele>
        <time>2014-06-15T13:10:04+0200</time>
      </trkpt>
      <trkpt lat="46.87048" lon="5.45555">
        <ele>214</ele>
        <time>2014-06-15T13:10:19+0200</time>
      </trkpt>
      <trkpt lat="46.87114" lon="5.45571">
        <ele>215</ele>
        <time>2014-06-15T13:10:35+0200</time>
      </trkpt>
      <trkpt lat="46.87171" lon="5.45594">
        <ele>214</ele>
        <time>2014-06-15T13:10:51+0200</time>
      </trkpt>
      <trkpt lat="46.87235" lon="5.45613">
        <ele>215</ele>
        <time>2014-06-15T13:11:06+0200</time>
      </trkpt>
      <trkpt lat="46.87302" lon="5.45608">
        <ele>220</ele>
        <time>2014-06-15T13:11:21+0200</time>
      </trkpt>
      <trkpt lat="46.87367" lon="5.45593">
        <ele>222</ele>
        <time>2014-06-15T13:11:37+0200</time>
      </trkpt>
      <trkpt lat="46.87434" lon="5.456">
        <ele>221</ele>
        <time>2014-06-15T13:11:52+0200</time>
      </trkpt>
      <trkpt lat="46.87493" lon="5.45605">
        <ele>220</ele>
        <time>2014-06-15T13:12:08+0200</time>
      </trkpt>
      <trkpt lat="46.87572" lon="5.45621">
        <ele>219</ele>
        <time>2014-06-15T13:12:24+0200</time>
      </trkpt>
      <trkpt lat="46.8766" lon="5.45617">
        <ele>217</ele>
        <time>2014-06-15T13:12:40+0200</time>
      </trkpt>
      <trkpt lat="46.87738" lon="5.45608">
        <ele>215</ele>
        <time>2014-06-15T13:12:55+0200</time>
      </trkpt>
      <trkpt lat="46.87809" lon="5.45607">
        <ele>215</ele>
        <time>2014-06-15T13:13:11+0200</time>
      </trkpt>
      <trkpt lat="46.87888" lon="5.45615">
        <ele>214</ele>
        <time>2014-06-15T13:13:27+0200</time>
      </trkpt>
      <trkpt lat="46.87961" lon="5.45661">
        <ele>210</ele>
        <time>2014-06-15T13:13:42+0200</time>
      </trkpt>
      <trkpt lat="46.87994" lon="5.45683">
        <ele>207</ele>
        <time>2014-06-15T13:13:58+0200</time>
      </trkpt>
      <trkpt lat="46.88033" lon="5.45715">
        <ele>206</ele>
        <time>2014-06-15T13:14:14+0200</time>
      </trkpt>
      <trkpt lat="46.88023" lon="5.45702">
        <ele>206</ele>
        <time>2014-06-15T13:14:29+0200</time>
      </trkpt>
      <trkpt lat="46.87986" lon="5.4567">
        <ele>207</ele>
        <time>2014-06-15T13:14:45+0200</time>
      </trkpt>
      <trkpt lat="46.87948" lon="5.45686">
        <ele>209</ele>
        <time>2014-06-15T13:15:00+0200</time>
      </trkpt>
      <trkpt lat="46.87937" lon="5.457">
        <ele>208</ele>
        <time>2014-06-15T13:15:15+0200</time>
      </trkpt>
      <trkpt lat="46.87912" lon="5.45725">
        <ele>211</ele>
        <time>2014-06-15T13:15:30+0200</time>
      </trkpt>
      <trkpt lat="46.87905" lon="5.45731">
        <ele>211</ele>
        <time>2014-06-15T13:15:45+0200</time>
      </trkpt>
      <trkpt lat="46.87905" lon="5.45731">
        <ele>211</ele>
        <time>2014-06-15T13:16:00+0200</time>
      </trkpt>
      <trkpt lat="46.87906" lon="5.45733">
        <ele>210</ele>
        <time>2014-06-15T13:16:16+0200</time>
      </trkpt>
      <trkpt lat="46.8792" lon="5.45717">
        <ele>208</ele>
        <time>2014-06-15T13:16:31+0200</time>
      </trkpt>
      <trkpt lat="46.87954" lon="5.45684">
        <ele>208</ele>
        <time>2014-06-15T13:16:47+0200</time>
      </trkpt>
      <trkpt lat="46.87974" lon="5.45675">
        <ele>208</ele>
        <time>2014-06-15T13:17:03+0200</time>
      </trkpt>
      <trkpt lat="46.87974" lon="5.45675">
        <ele>208</ele>
        <time>2014-06-15T13:17:18+0200</time>
      </trkpt>
      <trkpt lat="46.87976" lon="5.45674">
        <ele>208</ele>
        <time>2014-06-15T13:17:33+0200</time>
      </trkpt>
      <trkpt lat="46.87976" lon="5.4567">
        <ele>208</ele>
        <time>2014-06-15T13:17:49+0200</time>
      </trkpt>
      <trkpt lat="46.88009" lon="5.45692">
        <ele>206</ele>
        <time>2014-06-15T13:18:04+0200</time>
      </trkpt>
      <trkpt lat="46.88052" lon="5.45725">
        <ele>206</ele>
        <time>2014-06-15T13:18:20+0200</time>
      </trkpt>
      <trkpt lat="46.88099" lon="5.45749">
        <ele>207</ele>
        <time>2014-06-15T13:18:36+0200</time>
      </trkpt>
      <trkpt lat="46.88139" lon="5.45782">
        <ele>208</ele>
        <time>2014-06-15T13:18:52+0200</time>
      </trkpt>
      <trkpt lat="46.88171" lon="5.45806">
        <ele>211</ele>
        <time>2014-06-15T13:19:07+0200</time>
      </trkpt>
      <trkpt lat="46.882" lon="5.45828">
        <ele>211</ele>
        <time>2014-06-15T13:19:22+0200</time>
      </trkpt>
      <trkpt lat="46.88233" lon="5.45853">
        <ele>213</ele>
        <time>2014-06-15T13:19:38+0200</time>
      </trkpt>
      <trkpt lat="46.88276" lon="5.45883">
        <ele>213</ele>
        <time>2014-06-15T13:19:54+0200</time>
      </trkpt>
      <trkpt lat="46.88301" lon="5.45895">
        <ele>212</ele>
        <time>2014-06-15T13:20:09+0200</time>
      </trkpt>
      <trkpt lat="46.88334" lon="5.45841">
        <ele>211</ele>
        <time>2014-06-15T13:20:25+0200</time>
      </trkpt>
      <trkpt lat="46.88393" lon="5.45791">
        <ele>210</ele>
        <time>2014-06-15T13:20:40+0200</time>
      </trkpt>
      <trkpt lat="46.88476" lon="5.45846">
        <ele>206</ele>
        <time>2014-06-15T13:20:55+0200</time>
      </trkpt>
      <trkpt lat="46.88585" lon="5.45827">
        <ele>199</ele>
        <time>2014-06-15T13:21:11+0200</time>
      </trkpt>
      <trkpt lat="46.88646" lon="5.45808">
        <ele>199</ele>
        <time>2014-06-15T13:21:26+0200</time>
      </trkpt>
      <trkpt lat="46.8869" lon="5.45762">
        <ele>201</ele>
        <time>2014-06-15T13:21:42+0200</time>
      </trkpt>
      <trkpt lat="46.88706" lon="5.45767">
        <ele>202</ele>
        <time>2014-06-15T13:21:58+0200</time>
      </trkpt>
      <trkpt lat="46.88706" lon="5.45767">
        <ele>202</ele>
        <time>2014-06-15T13:22:13+0200</time>
      </trkpt>
      <trkpt lat="46.88705" lon="5.45767">
        <ele>202</ele>
        <time>2014-06-15T13:22:28+0200</time>
      </trkpt>
      <trkpt lat="46.88685" lon="5.4575">
        <ele>201</ele>
        <time>2014-06-15T13:22:44+0200</time>
      </trkpt>
      <trkpt lat="46.88694" lon="5.45771">
        <ele>202</ele>
        <time>2014-06-15T13:23:00+0200</time>
      </trkpt>
      <trkpt lat="46.88694" lon="5.45771">
        <ele>202</ele>
        <time>2014-06-15T13:23:15+0200</time>
      </trkpt>
      <trkpt lat="46.88692" lon="5.45772">
        <ele>202</ele>
        <time>2014-06-15T13:23:30+0200</time>
      </trkpt>
      <trkpt lat="46.88691" lon="5.45773">
        <ele>202</ele>
        <time>2014-06-15T13:23:45+0200</time>
      </trkpt>
      <trkpt lat="46.88692" lon="5.4577">
        <ele>202</ele>
        <time>2014-06-15T13:24:00+0200</time>
      </trkpt>
      <trkpt lat="46.88698" lon="5.45768">
        <ele>202</ele>
        <time>2014-06-15T13:24:16+0200</time>
      </trkpt>
      <trkpt lat="46.88698" lon="5.45764">
        <ele>202</ele>
        <time>2014-06-15T13:24:31+0200</time>
      </trkpt>
      <trkpt lat="46.88704" lon="5.45769">
        <ele>202</ele>
        <time>2014-06-15T13:24:46+0200</time>
      </trkpt>
      <trkpt lat="46.88703" lon="5.45768">
        <ele>202</ele>
        <time>2014-06-15T13:25:02+0200</time>
      </trkpt>
      <trkpt lat="46.88703" lon="5.45768">
        <ele>202</ele>
        <time>2014-06-15T13:25:17+0200</time>
      </trkpt>
      <trkpt lat="46.88703" lon="5.45768">
        <ele>202</ele>
        <time>2014-06-15T13:25:33+0200</time>
      </trkpt>
      <trkpt lat="46.887" lon="5.45773">
        <ele>202</ele>
        <time>2014-06-15T13:25:49+0200</time>
      </trkpt>
      <trkpt lat="46.887" lon="5.45773">
        <ele>202</ele>
        <time>2014-06-15T13:26:04+0200</time>
      </trkpt>
      <trkpt lat="46.887" lon="5.45773">
        <ele>202</ele>
        <time>2014-06-15T13:26:20+0200</time>
      </trkpt>
      <trkpt lat="46.887" lon="5.45773">
        <ele>202</ele>
        <time>2014-06-15T13:26:36+0200</time>
      </trkpt>
      <trkpt lat="46.887" lon="5.45773">
        <ele>202</ele>
        <time>2014-06-15T13:26:52+0200</time>
      </trkpt>
      <trkpt lat="46.887" lon="5.45773">
        <ele>202</ele>
        <time>2014-06-15T13:27:07+0200</time>
      </trkpt>
      <trkpt lat="46.887" lon="5.45773">
        <ele>202</ele>
        <time>2014-06-15T13:27:23+0200</time>
      </trkpt>
      <trkpt lat="46.887" lon="5.45773">
        <ele>202</ele>
        <time>2014-06-15T13:27:39+0200</time>
      </trkpt>
      <trkpt lat="46.887" lon="5.45773">
        <ele>202</ele>
        <time>2014-06-15T13:27:54+0200</time>
      </trkpt>
      <trkpt lat="46.887" lon="5.45773">
        <ele>202</ele>
        <time>2014-06-15T13:28:09+0200</time>
      </trkpt>
      <trkpt lat="46.887" lon="5.45773">
        <ele>202</ele>
        <time>2014-06-15T13:28:24+0200</time>
      </trkpt>
      <trkpt lat="46.88698" lon="5.45774">
        <ele>202</ele>
        <time>2014-06-15T13:28:40+0200</time>
      </trkpt>
      <trkpt lat="46.88696" lon="5.45775">
        <ele>202</ele>
        <time>2014-06-15T13:28:56+0200</time>
      </trkpt>
      <trkpt lat="46.88696" lon="5.45775">
        <ele>202</ele>
        <time>2014-06-15T13:29:11+0200</time>
      </trkpt>
      <trkpt lat="46.88696" lon="5.45775">
        <ele>202</ele>
        <time>2014-06-15T13:29:26+0200</time>
      </trkpt>
      <trkpt lat="46.88696" lon="5.45775">
        <ele>202</ele>
        <time>2014-06-15T13:29:42+0200</time>
      </trkpt>
      <trkpt lat="46.88696" lon="5.45775">
        <ele>202</ele>
        <time>2014-06-15T13:29:57+0200</time>
      </trkpt>
      <trkpt lat="46.88696" lon="5.45775">
        <ele>202</ele>
        <time>2014-06-15T13:30:12+0200</time>
      </trkpt>
      <trkpt lat="46.88696" lon="5.45775">
        <ele>202</ele>
        <time>2014-06-15T13:30:28+0200</time>
      </trkpt>
      <trkpt lat="46.88696" lon="5.45775">
        <ele>202</ele>
        <time>2014-06-15T13:30:44+0200</time>
      </trkpt>
      <trkpt lat="46.88696" lon="5.45777">
        <ele>202</ele>
        <time>2014-06-15T13:30:59+0200</time>
      </trkpt>
      <trkpt lat="46.88696" lon="5.45777">
        <ele>202</ele>
        <time>2014-06-15T13:31:15+0200</time>
      </trkpt>
      <trkpt lat="46.88696" lon="5.45777">
        <ele>202</ele>
        <time>2014-06-15T13:31:30+0200</time>
      </trkpt>
      <trkpt lat="46.88696" lon="5.45777">
        <ele>202</ele>
        <time>2014-06-15T13:31:46+0200</time>
      </trkpt>
      <trkpt lat="46.88696" lon="5.45777">
        <ele>202</ele>
        <time>2014-06-15T13:32:01+0200</time>
      </trkpt>
      <trkpt lat="46.88696" lon="5.45777">
        <ele>202</ele>
        <time>2014-06-15T13:32:16+0200</time>
      </trkpt>
      <trkpt lat="46.88696" lon="5.45777">
        <ele>202</ele>
        <time>2014-06-15T13:32:32+0200</time>
      </trkpt>
      <trkpt lat="46.88696" lon="5.45777">
        <ele>202</ele>
        <time>2014-06-15T13:32:47+0200</time>
      </trkpt>
      <trkpt lat="46.88696" lon="5.45777">
        <ele>202</ele>
        <time>2014-06-15T13:33:02+0200</time>
      </trkpt>
      <trkpt lat="46.88696" lon="5.45777">
        <ele>202</ele>
        <time>2014-06-15T13:33:17+0200</time>
      </trkpt>
      <trkpt lat="46.88699" lon="5.45779">
        <ele>202</ele>
        <time>2014-06-15T13:33:33+0200</time>
      </trkpt>
      <trkpt lat="46.88699" lon="5.45779">
        <ele>202</ele>
        <time>2014-06-15T13:33:48+0200</time>
      </trkpt>
      <trkpt lat="46.88699" lon="5.45779">
        <ele>202</ele>
        <time>2014-06-15T13:34:04+0200</time>
      </trkpt>
      <trkpt lat="46.88699" lon="5.45779">
        <ele>202</ele>
        <time>2014-06-15T13:34:20+0200</time>
      </trkpt>
      <trkpt lat="46.88699" lon="5.45779">
        <ele>202</ele>
        <time>2014-06-15T13:34:36+0200</time>
      </trkpt>
      <trkpt lat="46.88699" lon="5.45779">
        <ele>202</ele>
        <time>2014-06-15T13:34:52+0200</time>
      </trkpt>
      <trkpt lat="46.88699" lon="5.45779">
        <ele>202</ele>
        <time>2014-06-15T13:35:08+0200</time>
      </trkpt>
      <trkpt lat="46.88699" lon="5.45779">
        <ele>202</ele>
        <time>2014-06-15T13:35:23+0200</time>
      </trkpt>
      <trkpt lat="46.88699" lon="5.45779">
        <ele>202</ele>
        <time>2014-06-15T13:35:39+0200</time>
      </trkpt>
      <trkpt lat="46.88699" lon="5.45779">
        <ele>202</ele>
        <time>2014-06-15T13:35:55+0200</time>
      </trkpt>
      <trkpt lat="46.88699" lon="5.45779">
        <ele>202</ele>
        <time>2014-06-15T13:36:10+0200</time>
      </trkpt>
      <trkpt lat="46.88699" lon="5.45779">
        <ele>202</ele>
        <time>2014-06-15T13:36:25+0200</time>
      </trkpt>
      <trkpt lat="46.88699" lon="5.45779">
        <ele>202</ele>
        <time>2014-06-15T13:36:41+0200</time>
      </trkpt>
      <trkpt lat="46.88699" lon="5.45779">
        <ele>202</ele>
        <time>2014-06-15T13:36:57+0200</time>
      </trkpt>
      <trkpt lat="46.88699" lon="5.45779">
        <ele>202</ele>
        <time>2014-06-15T13:37:13+0200</time>
      </trkpt>
      <trkpt lat="46.88699" lon="5.45779">
        <ele>202</ele>
        <time>2014-06-15T13:37:28+0200</time>
      </trkpt>
      <trkpt lat="46.88699" lon="5.45779">
        <ele>202</ele>
        <time>2014-06-15T13:37:44+0200</time>
      </trkpt>
      <trkpt lat="46.88699" lon="5.45779">
        <ele>202</ele>
        <time>2014-06-15T13:38:00+0200</time>
      </trkpt>
      <trkpt lat="46.88699" lon="5.45779">
        <ele>202</ele>
        <time>2014-06-15T13:38:16+0200</time>
      </trkpt>
      <trkpt lat="46.88699" lon="5.45779">
        <ele>202</ele>
        <time>2014-06-15T13:38:31+0200</time>
      </trkpt>
      <trkpt lat="46.88699" lon="5.45779">
        <ele>202</ele>
        <time>2014-06-15T13:38:47+0200</time>
      </trkpt>
      <trkpt lat="46.88699" lon="5.45779">
        <ele>202</ele>
        <time>2014-06-15T13:39:02+0200</time>
      </trkpt>
      <trkpt lat="46.88699" lon="5.45779">
        <ele>202</ele>
        <time>2014-06-15T13:39:17+0200</time>
      </trkpt>
      <trkpt lat="46.88699" lon="5.45779">
        <ele>202</ele>
        <time>2014-06-15T13:39:33+0200</time>
      </trkpt>
      <trkpt lat="46.88699" lon="5.45779">
        <ele>202</ele>
        <time>2014-06-15T13:39:48+0200</time>
      </trkpt>
      <trkpt lat="46.88699" lon="5.45779">
        <ele>202</ele>
        <time>2014-06-15T13:40:03+0200</time>
      </trkpt>
      <trkpt lat="46.88699" lon="5.45779">
        <ele>202</ele>
        <time>2014-06-15T13:40:19+0200</time>
      </trkpt>
      <trkpt lat="46.88699" lon="5.45779">
        <ele>202</ele>
        <time>2014-06-15T13:40:34+0200</time>
      </trkpt>
      <trkpt lat="46.88699" lon="5.45779">
        <ele>202</ele>
        <time>2014-06-15T13:40:50+0200</time>
      </trkpt>
      <trkpt lat="46.88699" lon="5.45779">
        <ele>202</ele>
        <time>2014-06-15T13:41:06+0200</time>
      </trkpt>
      <trkpt lat="46.88699" lon="5.45779">
        <ele>202</ele>
        <time>2014-06-15T13:41:22+0200</time>
      </trkpt>
      <trkpt lat="46.88699" lon="5.45779">
        <ele>202</ele>
        <time>2014-06-15T13:41:37+0200</time>
      </trkpt>
      <trkpt lat="46.88699" lon="5.45779">
        <ele>202</ele>
        <time>2014-06-15T13:41:53+0200</time>
      </trkpt>
      <trkpt lat="46.88699" lon="5.45779">
        <ele>202</ele>
        <time>2014-06-15T13:42:09+0200</time>
      </trkpt>
      <trkpt lat="46.88699" lon="5.45779">
        <ele>202</ele>
        <time>2014-06-15T13:42:24+0200</time>
      </trkpt>
      <trkpt lat="46.88699" lon="5.45779">
        <ele>202</ele>
        <time>2014-06-15T13:42:40+0200</time>
      </trkpt>
      <trkpt lat="46.88699" lon="5.45779">
        <ele>202</ele>
        <time>2014-06-15T13:42:55+0200</time>
      </trkpt>
      <trkpt lat="46.88699" lon="5.45779">
        <ele>202</ele>
        <time>2014-06-15T13:43:10+0200</time>
      </trkpt>
      <trkpt lat="46.88699" lon="5.45779">
        <ele>202</ele>
        <time>2014-06-15T13:43:26+0200</time>
      </trkpt>
      <trkpt lat="46.88699" lon="5.45779">
        <ele>202</ele>
        <time>2014-06-15T13:43:41+0200</time>
      </trkpt>
      <trkpt lat="46.88699" lon="5.45779">
        <ele>202</ele>
        <time>2014-06-15T13:43:56+0200</time>
      </trkpt>
      <trkpt lat="46.88699" lon="5.45779">
        <ele>202</ele>
        <time>2014-06-15T13:44:12+0200</time>
      </trkpt>
      <trkpt lat="46.88699" lon="5.45779">
        <ele>202</ele>
        <time>2014-06-15T13:44:27+0200</time>
      </trkpt>
      <trkpt lat="46.88699" lon="5.45779">
        <ele>202</ele>
        <time>2014-06-15T13:44:43+0200</time>
      </trkpt>
      <trkpt lat="46.88699" lon="5.45779">
        <ele>202</ele>
        <time>2014-06-15T13:44:59+0200</time>
      </trkpt>
      <trkpt lat="46.88699" lon="5.45779">
        <ele>202</ele>
        <time>2014-06-15T13:45:14+0200</time>
      </trkpt>
      <trkpt lat="46.88699" lon="5.45779">
        <ele>202</ele>
        <time>2014-06-15T13:45:30+0200</time>
      </trkpt>
      <trkpt lat="46.88699" lon="5.45779">
        <ele>202</ele>
        <time>2014-06-15T13:45:46+0200</time>
      </trkpt>
      <trkpt lat="46.88699" lon="5.45779">
        <ele>202</ele>
        <time>2014-06-15T13:46:02+0200</time>
      </trkpt>
      <trkpt lat="46.88699" lon="5.45779">
        <ele>202</ele>
        <time>2014-06-15T13:46:17+0200</time>
      </trkpt>
      <trkpt lat="46.88699" lon="5.45779">
        <ele>202</ele>
        <time>2014-06-15T13:46:32+0200</time>
      </trkpt>
      <trkpt lat="46.88699" lon="5.45779">
        <ele>202</ele>
        <time>2014-06-15T13:46:47+0200</time>
      </trkpt>
      <trkpt lat="46.88699" lon="5.45779">
        <ele>202</ele>
        <time>2014-06-15T13:47:03+0200</time>
      </trkpt>
      <trkpt lat="46.88699" lon="5.45779">
        <ele>202</ele>
        <time>2014-06-15T13:47:19+0200</time>
      </trkpt>
      <trkpt lat="46.88699" lon="5.45779">
        <ele>202</ele>
        <time>2014-06-15T13:47:34+0200</time>
      </trkpt>
      <trkpt lat="46.88699" lon="5.45779">
        <ele>202</ele>
        <time>2014-06-15T13:47:50+0200</time>
      </trkpt>
      <trkpt lat="46.88699" lon="5.45779">
        <ele>202</ele>
        <time>2014-06-15T13:48:06+0200</time>
      </trkpt>
      <trkpt lat="46.88699" lon="5.45779">
        <ele>202</ele>
        <time>2014-06-15T13:48:22+0200</time>
      </trkpt>
      <trkpt lat="46.88699" lon="5.45779">
        <ele>202</ele>
        <time>2014-06-15T13:48:38+0200</time>
      </trkpt>
      <trkpt lat="46.88699" lon="5.45779">
        <ele>202</ele>
        <time>2014-06-15T13:48:54+0200</time>
      </trkpt>
      <trkpt lat="46.88699" lon="5.45779">
        <ele>202</ele>
        <time>2014-06-15T13:49:09+0200</time>
      </trkpt>
      <trkpt lat="46.88699" lon="5.45779">
        <ele>202</ele>
        <time>2014-06-15T13:49:25+0200</time>
      </trkpt>
      <trkpt lat="46.88699" lon="5.45779">
        <ele>202</ele>
        <time>2014-06-15T13:49:41+0200</time>
      </trkpt>
      <trkpt lat="46.88699" lon="5.45779">
        <ele>202</ele>
        <time>2014-06-15T13:49:57+0200</time>
      </trkpt>
      <trkpt lat="46.88699" lon="5.45779">
        <ele>202</ele>
        <time>2014-06-15T13:50:13+0200</time>
      </trkpt>
      <trkpt lat="46.88699" lon="5.45779">
        <ele>202</ele>
        <time>2014-06-15T13:50:28+0200</time>
      </trkpt>
      <trkpt lat="46.88699" lon="5.45779">
        <ele>202</ele>
        <time>2014-06-15T13:50:43+0200</time>
      </trkpt>
      <trkpt lat="46.88699" lon="5.45779">
        <ele>202</ele>
        <time>2014-06-15T13:50:59+0200</time>
      </trkpt>
      <trkpt lat="46.88699" lon="5.45779">
        <ele>202</ele>
        <time>2014-06-15T13:51:15+0200</time>
      </trkpt>
      <trkpt lat="46.88699" lon="5.45779">
        <ele>202</ele>
        <time>2014-06-15T13:51:30+0200</time>
      </trkpt>
      <trkpt lat="46.88699" lon="5.45779">
        <ele>202</ele>
        <time>2014-06-15T13:51:46+0200</time>
      </trkpt>
      <trkpt lat="46.88699" lon="5.45779">
        <ele>202</ele>
        <time>2014-06-15T13:52:01+0200</time>
      </trkpt>
      <trkpt lat="46.88699" lon="5.45779">
        <ele>202</ele>
        <time>2014-06-15T13:52:16+0200</time>
      </trkpt>
      <trkpt lat="46.88699" lon="5.45779">
        <ele>202</ele>
        <time>2014-06-15T13:52:31+0200</time>
      </trkpt>
      <trkpt lat="46.88699" lon="5.45779">
        <ele>202</ele>
        <time>2014-06-15T13:52:47+0200</time>
      </trkpt>
      <trkpt lat="46.88699" lon="5.45779">
        <ele>202</ele>
        <time>2014-06-15T13:53:02+0200</time>
      </trkpt>
      <trkpt lat="46.88699" lon="5.45779">
        <ele>202</ele>
        <time>2014-06-15T13:53:17+0200</time>
      </trkpt>
      <trkpt lat="46.88699" lon="5.45779">
        <ele>202</ele>
        <time>2014-06-15T13:53:32+0200</time>
      </trkpt>
      <trkpt lat="46.88699" lon="5.45779">
        <ele>202</ele>
        <time>2014-06-15T13:53:47+0200</time>
      </trkpt>
      <trkpt lat="46.88699" lon="5.45779">
        <ele>202</ele>
        <time>2014-06-15T13:54:02+0200</time>
      </trkpt>
      <trkpt lat="46.88699" lon="5.45779">
        <ele>202</ele>
        <time>2014-06-15T13:54:18+0200</time>
      </trkpt>
      <trkpt lat="46.88699" lon="5.45779">
        <ele>202</ele>
        <time>2014-06-15T13:54:33+0200</time>
      </trkpt>
      <trkpt lat="46.88699" lon="5.45779">
        <ele>202</ele>
        <time>2014-06-15T13:54:49+0200</time>
      </trkpt>
      <trkpt lat="46.88699" lon="5.45779">
        <ele>202</ele>
        <time>2014-06-15T13:55:04+0200</time>
      </trkpt>
      <trkpt lat="46.88699" lon="5.45779">
        <ele>202</ele>
        <time>2014-06-15T13:55:20+0200</time>
      </trkpt>
      <trkpt lat="46.88699" lon="5.45779">
        <ele>202</ele>
        <time>2014-06-15T13:55:35+0200</time>
      </trkpt>
      <trkpt lat="46.88699" lon="5.45779">
        <ele>202</ele>
        <time>2014-06-15T13:55:51+0200</time>
      </trkpt>
      <trkpt lat="46.88699" lon="5.45779">
        <ele>202</ele>
        <time>2014-06-15T13:56:06+0200</time>
      </trkpt>
      <trkpt lat="46.88699" lon="5.45779">
        <ele>202</ele>
        <time>2014-06-15T13:56:22+0200</time>
      </trkpt>
      <trkpt lat="46.88699" lon="5.45779">
        <ele>202</ele>
        <time>2014-06-15T13:56:38+0200</time>
      </trkpt>
      <trkpt lat="46.88699" lon="5.45779">
        <ele>202</ele>
        <time>2014-06-15T13:56:54+0200</time>
      </trkpt>
      <trkpt lat="46.88699" lon="5.45779">
        <ele>202</ele>
        <time>2014-06-15T13:57:09+0200</time>
      </trkpt>
      <trkpt lat="46.88699" lon="5.45779">
        <ele>202</ele>
        <time>2014-06-15T13:57:25+0200</time>
      </trkpt>
      <trkpt lat="46.88699" lon="5.45779">
        <ele>202</ele>
        <time>2014-06-15T13:57:41+0200</time>
      </trkpt>
      <trkpt lat="46.88699" lon="5.45779">
        <ele>202</ele>
        <time>2014-06-15T13:57:57+0200</time>
      </trkpt>
      <trkpt lat="46.88699" lon="5.45779">
        <ele>202</ele>
        <time>2014-06-15T13:58:13+0200</time>
      </trkpt>
      <trkpt lat="46.88699" lon="5.45779">
        <ele>202</ele>
        <time>2014-06-15T13:58:29+0200</time>
      </trkpt>
      <trkpt lat="46.88699" lon="5.45779">
        <ele>202</ele>
        <time>2014-06-15T13:58:45+0200</time>
      </trkpt>
      <trkpt lat="46.88699" lon="5.45779">
        <ele>202</ele>
        <time>2014-06-15T13:59:01+0200</time>
      </trkpt>
      <trkpt lat="46.88699" lon="5.45779">
        <ele>202</ele>
        <time>2014-06-15T13:59:16+0200</time>
      </trkpt>
      <trkpt lat="46.88699" lon="5.45779">
        <ele>202</ele>
        <time>2014-06-15T13:59:31+0200</time>
      </trkpt>
      <trkpt lat="46.88699" lon="5.45779">
        <ele>202</ele>
        <time>2014-06-15T13:59:47+0200</time>
      </trkpt>
      <trkpt lat="46.88699" lon="5.45779">
        <ele>202</ele>
        <time>2014-06-15T14:00:03+0200</time>
      </trkpt>
      <trkpt lat="46.88699" lon="5.45779">
        <ele>202</ele>
        <time>2014-06-15T14:00:18+0200</time>
      </trkpt>
      <trkpt lat="46.88699" lon="5.45779">
        <ele>202</ele>
        <time>2014-06-15T14:00:34+0200</time>
      </trkpt>
      <trkpt lat="46.88699" lon="5.45779">
        <ele>202</ele>
        <time>2014-06-15T14:00:49+0200</time>
      </trkpt>
      <trkpt lat="46.88699" lon="5.45779">
        <ele>202</ele>
        <time>2014-06-15T14:01:05+0200</time>
      </trkpt>
      <trkpt lat="46.88699" lon="5.45779">
        <ele>202</ele>
        <time>2014-06-15T14:01:21+0200</time>
      </trkpt>
      <trkpt lat="46.88699" lon="5.45779">
        <ele>202</ele>
        <time>2014-06-15T14:01:37+0200</time>
      </trkpt>
      <trkpt lat="46.88699" lon="5.45779">
        <ele>202</ele>
        <time>2014-06-15T14:01:52+0200</time>
      </trkpt>
      <trkpt lat="46.88699" lon="5.45779">
        <ele>202</ele>
        <time>2014-06-15T14:02:08+0200</time>
      </trkpt>
      <trkpt lat="46.88699" lon="5.45779">
        <ele>202</ele>
        <time>2014-06-15T14:02:24+0200</time>
      </trkpt>
      <trkpt lat="46.88699" lon="5.45779">
        <ele>202</ele>
        <time>2014-06-15T14:02:40+0200</time>
      </trkpt>
      <trkpt lat="46.88699" lon="5.45779">
        <ele>202</ele>
        <time>2014-06-15T14:02:56+0200</time>
      </trkpt>
      <trkpt lat="46.88699" lon="5.45779">
        <ele>202</ele>
        <time>2014-06-15T14:03:11+0200</time>
      </trkpt>
      <trkpt lat="46.88699" lon="5.45779">
        <ele>202</ele>
        <time>2014-06-15T14:03:27+0200</time>
      </trkpt>
      <trkpt lat="46.88699" lon="5.45779">
        <ele>202</ele>
        <time>2014-06-15T14:03:43+0200</time>
      </trkpt>
      <trkpt lat="46.88699" lon="5.45779">
        <ele>202</ele>
        <time>2014-06-15T14:03:58+0200</time>
      </trkpt>
      <trkpt lat="46.88699" lon="5.45779">
        <ele>202</ele>
        <time>2014-06-15T14:04:13+0200</time>
      </trkpt>
      <trkpt lat="46.88699" lon="5.45779">
        <ele>202</ele>
        <time>2014-06-15T14:04:29+0200</time>
      </trkpt>
      <trkpt lat="46.88699" lon="5.45779">
        <ele>202</ele>
        <time>2014-06-15T14:04:44+0200</time>
      </trkpt>
      <trkpt lat="46.88699" lon="5.45779">
        <ele>202</ele>
        <time>2014-06-15T14:04:59+0200</time>
      </trkpt>
      <trkpt lat="46.88699" lon="5.45779">
        <ele>202</ele>
        <time>2014-06-15T14:05:15+0200</time>
      </trkpt>
      <trkpt lat="46.88699" lon="5.45779">
        <ele>202</ele>
        <time>2014-06-15T14:05:31+0200</time>
      </trkpt>
      <trkpt lat="46.88699" lon="5.45779">
        <ele>202</ele>
        <time>2014-06-15T14:05:46+0200</time>
      </trkpt>
      <trkpt lat="46.88699" lon="5.45779">
        <ele>202</ele>
        <time>2014-06-15T14:06:02+0200</time>
      </trkpt>
      <trkpt lat="46.88699" lon="5.45779">
        <ele>202</ele>
        <time>2014-06-15T14:06:18+0200</time>
      </trkpt>
      <trkpt lat="46.88699" lon="5.45779">
        <ele>202</ele>
        <time>2014-06-15T14:06:33+0200</time>
      </trkpt>
      <trkpt lat="46.88699" lon="5.45779">
        <ele>202</ele>
        <time>2014-06-15T14:06:48+0200</time>
      </trkpt>
      <trkpt lat="46.88699" lon="5.45779">
        <ele>202</ele>
        <time>2014-06-15T14:07:04+0200</time>
      </trkpt>
      <trkpt lat="46.88699" lon="5.45779">
        <ele>202</ele>
        <time>2014-06-15T14:07:19+0200</time>
      </trkpt>
      <trkpt lat="46.88699" lon="5.45779">
        <ele>202</ele>
        <time>2014-06-15T14:07:34+0200</time>
      </trkpt>
      <trkpt lat="46.88699" lon="5.45779">
        <ele>202</ele>
        <time>2014-06-15T14:07:49+0200</time>
      </trkpt>
      <trkpt lat="46.88699" lon="5.45779">
        <ele>202</ele>
        <time>2014-06-15T14:08:05+0200</time>
      </trkpt>
      <trkpt lat="46.88699" lon="5.45779">
        <ele>202</ele>
        <time>2014-06-15T14:08:21+0200</time>
      </trkpt>
      <trkpt lat="46.88699" lon="5.45779">
        <ele>202</ele>
        <time>2014-06-15T14:08:36+0200</time>
      </trkpt>
      <trkpt lat="46.88699" lon="5.45779">
        <ele>202</ele>
        <time>2014-06-15T14:08:52+0200</time>
      </trkpt>
      <trkpt lat="46.88699" lon="5.45779">
        <ele>202</ele>
        <time>2014-06-15T14:09:07+0200</time>
      </trkpt>
      <trkpt lat="46.88698" lon="5.45779">
        <ele>202</ele>
        <time>2014-06-15T14:09:23+0200</time>
      </trkpt>
      <trkpt lat="46.88698" lon="5.45779">
        <ele>202</ele>
        <time>2014-06-15T14:09:39+0200</time>
      </trkpt>
      <trkpt lat="46.88698" lon="5.45779">
        <ele>202</ele>
        <time>2014-06-15T14:09:54+0200</time>
      </trkpt>
      <trkpt lat="46.88698" lon="5.45779">
        <ele>202</ele>
        <time>2014-06-15T14:10:10+0200</time>
      </trkpt>
      <trkpt lat="46.88698" lon="5.45779">
        <ele>202</ele>
        <time>2014-06-15T14:10:26+0200</time>
      </trkpt>
      <trkpt lat="46.88698" lon="5.45779">
        <ele>202</ele>
        <time>2014-06-15T14:10:42+0200</time>
      </trkpt>
      <trkpt lat="46.88698" lon="5.45779">
        <ele>202</ele>
        <time>2014-06-15T14:10:57+0200</time>
      </trkpt>
      <trkpt lat="46.88698" lon="5.45779">
        <ele>202</ele>
        <time>2014-06-15T14:11:13+0200</time>
      </trkpt>
      <trkpt lat="46.88698" lon="5.45779">
        <ele>202</ele>
        <time>2014-06-15T14:11:28+0200</time>
      </trkpt>
      <trkpt lat="46.88698" lon="5.45779">
        <ele>202</ele>
        <time>2014-06-15T14:11:44+0200</time>
      </trkpt>
      <trkpt lat="46.88698" lon="5.45779">
        <ele>202</ele>
        <time>2014-06-15T14:12:00+0200</time>
      </trkpt>
      <trkpt lat="46.88698" lon="5.45779">
        <ele>202</ele>
        <time>2014-06-15T14:12:16+0200</time>
      </trkpt>
      <trkpt lat="46.88698" lon="5.45779">
        <ele>202</ele>
        <time>2014-06-15T14:12:32+0200</time>
      </trkpt>
      <trkpt lat="46.88698" lon="5.45779">
        <ele>202</ele>
        <time>2014-06-15T14:12:47+0200</time>
      </trkpt>
      <trkpt lat="46.88698" lon="5.45779">
        <ele>202</ele>
        <time>2014-06-15T14:13:02+0200</time>
      </trkpt>
      <trkpt lat="46.88698" lon="5.45779">
        <ele>202</ele>
        <time>2014-06-15T14:13:17+0200</time>
      </trkpt>
      <trkpt lat="46.88698" lon="5.45779">
        <ele>202</ele>
        <time>2014-06-15T14:13:32+0200</time>
      </trkpt>
      <trkpt lat="46.88698" lon="5.45779">
        <ele>202</ele>
        <time>2014-06-15T14:13:48+0200</time>
      </trkpt>
      <trkpt lat="46.88698" lon="5.45779">
        <ele>202</ele>
        <time>2014-06-15T14:14:03+0200</time>
      </trkpt>
      <trkpt lat="46.88698" lon="5.45779">
        <ele>202</ele>
        <time>2014-06-15T14:14:19+0200</time>
      </trkpt>
      <trkpt lat="46.88698" lon="5.45779">
        <ele>202</ele>
        <time>2014-06-15T14:14:34+0200</time>
      </trkpt>
      <trkpt lat="46.88698" lon="5.45779">
        <ele>202</ele>
        <time>2014-06-15T14:14:49+0200</time>
      </trkpt>
      <trkpt lat="46.88698" lon="5.45779">
        <ele>202</ele>
        <time>2014-06-15T14:15:04+0200</time>
      </trkpt>
      <trkpt lat="46.88698" lon="5.45779">
        <ele>202</ele>
        <time>2014-06-15T14:15:20+0200</time>
      </trkpt>
      <trkpt lat="46.88698" lon="5.45779">
        <ele>202</ele>
        <time>2014-06-15T14:15:35+0200</time>
      </trkpt>
      <trkpt lat="46.88698" lon="5.45779">
        <ele>202</ele>
        <time>2014-06-15T14:15:50+0200</time>
      </trkpt>
      <trkpt lat="46.88698" lon="5.45779">
        <ele>202</ele>
        <time>2014-06-15T14:16:06+0200</time>
      </trkpt>
      <trkpt lat="46.88698" lon="5.45779">
        <ele>202</ele>
        <time>2014-06-15T14:16:22+0200</time>
      </trkpt>
      <trkpt lat="46.88698" lon="5.45779">
        <ele>202</ele>
        <time>2014-06-15T14:16:37+0200</time>
      </trkpt>
      <trkpt lat="46.88698" lon="5.45779">
        <ele>202</ele>
        <time>2014-06-15T14:16:52+0200</time>
      </trkpt>
      <trkpt lat="46.88701" lon="5.45781">
        <ele>202</ele>
        <time>2014-06-15T14:17:08+0200</time>
      </trkpt>
      <trkpt lat="46.887" lon="5.45784">
        <ele>202</ele>
        <time>2014-06-15T14:17:23+0200</time>
      </trkpt>
      <trkpt lat="46.88699" lon="5.45786">
        <ele>202</ele>
        <time>2014-06-15T14:17:38+0200</time>
      </trkpt>
      <trkpt lat="46.887" lon="5.4578">
        <ele>202</ele>
        <time>2014-06-15T14:17:53+0200</time>
      </trkpt>
      <trkpt lat="46.887" lon="5.45779">
        <ele>202</ele>
        <time>2014-06-15T14:18:09+0200</time>
      </trkpt>
      <trkpt lat="46.88701" lon="5.45778">
        <ele>202</ele>
        <time>2014-06-15T14:18:24+0200</time>
      </trkpt>
      <trkpt lat="46.88701" lon="5.45778">
        <ele>202</ele>
        <time>2014-06-15T14:18:39+0200</time>
      </trkpt>
      <trkpt lat="46.88701" lon="5.45778">
        <ele>202</ele>
        <time>2014-06-15T14:18:55+0200</time>
      </trkpt>
      <trkpt lat="46.88699" lon="5.45781">
        <ele>202</ele>
        <time>2014-06-15T14:19:11+0200</time>
      </trkpt>
      <trkpt lat="46.887" lon="5.45781">
        <ele>202</ele>
        <time>2014-06-15T14:19:27+0200</time>
      </trkpt>
      <trkpt lat="46.88704" lon="5.45777">
        <ele>202</ele>
        <time>2014-06-15T14:19:43+0200</time>
      </trkpt>
      <trkpt lat="46.88704" lon="5.45777">
        <ele>202</ele>
        <time>2014-06-15T14:19:58+0200</time>
      </trkpt>
      <trkpt lat="46.88705" lon="5.45774">
        <ele>202</ele>
        <time>2014-06-15T14:20:14+0200</time>
      </trkpt>
      <trkpt lat="46.88706" lon="5.45773">
        <ele>202</ele>
        <time>2014-06-15T14:20:30+0200</time>
      </trkpt>
      <trkpt lat="46.88704" lon="5.45774">
        <ele>202</ele>
        <time>2014-06-15T14:20:45+0200</time>
      </trkpt>
      <trkpt lat="46.88704" lon="5.45774">
        <ele>202</ele>
        <time>2014-06-15T14:21:01+0200</time>
      </trkpt>
      <trkpt lat="46.88704" lon="5.45774">
        <ele>202</ele>
        <time>2014-06-15T14:21:17+0200</time>
      </trkpt>
      <trkpt lat="46.88711" lon="5.45773">
        <ele>202</ele>
        <time>2014-06-15T14:21:32+0200</time>
      </trkpt>
      <trkpt lat="46.88741" lon="5.4579">
        <ele>202</ele>
        <time>2014-06-15T14:21:47+0200</time>
      </trkpt>
      <trkpt lat="46.88782" lon="5.45806">
        <ele>204</ele>
        <time>2014-06-15T14:22:02+0200</time>
      </trkpt>
      <trkpt lat="46.88826" lon="5.45821">
        <ele>205</ele>
        <time>2014-06-15T14:22:18+0200</time>
      </trkpt>
      <trkpt lat="46.88871" lon="5.45821">
        <ele>205</ele>
        <time>2014-06-15T14:22:34+0200</time>
      </trkpt>
      <trkpt lat="46.8892" lon="5.458">
        <ele>204</ele>
        <time>2014-06-15T14:22:50+0200</time>
      </trkpt>
      <trkpt lat="46.88971" lon="5.4578">
        <ele>204</ele>
        <time>2014-06-15T14:23:05+0200</time>
      </trkpt>
      <trkpt lat="46.8902" lon="5.4576">
        <ele>206</ele>
        <time>2014-06-15T14:23:20+0200</time>
      </trkpt>
      <trkpt lat="46.89065" lon="5.45742">
        <ele>209</ele>
        <time>2014-06-15T14:23:36+0200</time>
      </trkpt>
      <trkpt lat="46.89103" lon="5.45726">
        <ele>212</ele>
        <time>2014-06-15T14:23:52+0200</time>
      </trkpt>
      <trkpt lat="46.89142" lon="5.45708">
        <ele>213</ele>
        <time>2014-06-15T14:24:08+0200</time>
      </trkpt>
      <trkpt lat="46.89181" lon="5.45693">
        <ele>215</ele>
        <time>2014-06-15T14:24:24+0200</time>
      </trkpt>
      <trkpt lat="46.89216" lon="5.45677">
        <ele>215</ele>
        <time>2014-06-15T14:24:39+0200</time>
      </trkpt>
      <trkpt lat="46.8926" lon="5.4566">
        <ele>214</ele>
        <time>2014-06-15T14:24:54+0200</time>
      </trkpt>
      <trkpt lat="46.89312" lon="5.45641">
        <ele>213</ele>
        <time>2014-06-15T14:25:10+0200</time>
      </trkpt>
      <trkpt lat="46.89395" lon="5.45607">
        <ele>214</ele>
        <time>2014-06-15T14:25:26+0200</time>
      </trkpt>
      <trkpt lat="46.89505" lon="5.45521">
        <ele>207</ele>
        <time>2014-06-15T14:25:42+0200</time>
      </trkpt>
      <trkpt lat="46.89619" lon="5.45446">
        <ele>210</ele>
        <time>2014-06-15T14:25:57+0200</time>
      </trkpt>
      <trkpt lat="46.89702" lon="5.45387">
        <ele>208</ele>
        <time>2014-06-15T14:26:12+0200</time>
      </trkpt>
      <trkpt lat="46.898" lon="5.45361">
        <ele>202</ele>
        <time>2014-06-15T14:26:28+0200</time>
      </trkpt>
      <trkpt lat="46.8986" lon="5.45399">
        <ele>200</ele>
        <time>2014-06-15T14:26:43+0200</time>
      </trkpt>
      <trkpt lat="46.89917" lon="5.45449">
        <ele>202</ele>
        <time>2014-06-15T14:26:59+0200</time>
      </trkpt>
      <trkpt lat="46.90003" lon="5.45461">
        <ele>199</ele>
        <time>2014-06-15T14:27:15+0200</time>
      </trkpt>
      <trkpt lat="46.90078" lon="5.45431">
        <ele>200</ele>
        <time>2014-06-15T14:27:31+0200</time>
      </trkpt>
      <trkpt lat="46.90114" lon="5.45394">
        <ele>205</ele>
        <time>2014-06-15T14:27:46+0200</time>
      </trkpt>
      <trkpt lat="46.90146" lon="5.45364">
        <ele>207</ele>
        <time>2014-06-15T14:28:02+0200</time>
      </trkpt>
      <trkpt lat="46.9017" lon="5.45341">
        <ele>211</ele>
        <time>2014-06-15T14:28:18+0200</time>
      </trkpt>
      <trkpt lat="46.90194" lon="5.45315">
        <ele>211</ele>
        <time>2014-06-15T14:28:34+0200</time>
      </trkpt>
      <trkpt lat="46.90214" lon="5.453">
        <ele>211</ele>
        <time>2014-06-15T14:28:50+0200</time>
      </trkpt>
      <trkpt lat="46.90233" lon="5.45339">
        <ele>211</ele>
        <time>2014-06-15T14:29:05+0200</time>
      </trkpt>
      <trkpt lat="46.90259" lon="5.45388">
        <ele>212</ele>
        <time>2014-06-15T14:29:20+0200</time>
      </trkpt>
      <trkpt lat="46.90285" lon="5.45446">
        <ele>213</ele>
        <time>2014-06-15T14:29:36+0200</time>
      </trkpt>
      <trkpt lat="46.90313" lon="5.45512">
        <ele>212</ele>
        <time>2014-06-15T14:29:52+0200</time>
      </trkpt>
      <trkpt lat="46.90354" lon="5.45557">
        <ele>213</ele>
        <time>2014-06-15T14:30:08+0200</time>
      </trkpt>
      <trkpt lat="46.90409" lon="5.45467">
        <ele>213</ele>
        <time>2014-06-15T14:30:23+0200</time>
      </trkpt>
      <trkpt lat="46.90523" lon="5.45332">
        <ele>201</ele>
        <time>2014-06-15T14:30:39+0200</time>
      </trkpt>
      <trkpt lat="46.90622" lon="5.45194">
        <ele>200</ele>
        <time>2014-06-15T14:30:55+0200</time>
      </trkpt>
      <trkpt lat="46.90703" lon="5.45071">
        <ele>201</ele>
        <time>2014-06-15T14:31:11+0200</time>
      </trkpt>
      <trkpt lat="46.90772" lon="5.45103">
        <ele>204</ele>
        <time>2014-06-15T14:31:27+0200</time>
      </trkpt>
      <trkpt lat="46.90822" lon="5.45142">
        <ele>205</ele>
        <time>2014-06-15T14:31:42+0200</time>
      </trkpt>
      <trkpt lat="46.90875" lon="5.45183">
        <ele>208</ele>
        <time>2014-06-15T14:31:58+0200</time>
      </trkpt>
      <trkpt lat="46.90921" lon="5.4522">
        <ele>211</ele>
        <time>2014-06-15T14:32:13+0200</time>
      </trkpt>
      <trkpt lat="46.90964" lon="5.45254">
        <ele>210</ele>
        <time>2014-06-15T14:32:29+0200</time>
      </trkpt>
      <trkpt lat="46.91003" lon="5.45285">
        <ele>212</ele>
        <time>2014-06-15T14:32:44+0200</time>
      </trkpt>
      <trkpt lat="46.91051" lon="5.45329">
        <ele>212</ele>
        <time>2014-06-15T14:32:59+0200</time>
      </trkpt>
      <trkpt lat="46.91108" lon="5.45384">
        <ele>209</ele>
        <time>2014-06-15T14:33:14+0200</time>
      </trkpt>
      <trkpt lat="46.91173" lon="5.45447">
        <ele>207</ele>
        <time>2014-06-15T14:33:30+0200</time>
      </trkpt>
      <trkpt lat="46.91256" lon="5.45499">
        <ele>206</ele>
        <time>2014-06-15T14:33:46+0200</time>
      </trkpt>
      <trkpt lat="46.9134" lon="5.45527">
        <ele>204</ele>
        <time>2014-06-15T14:34:01+0200</time>
      </trkpt>
      <trkpt lat="46.91373" lon="5.4559">
        <ele>204</ele>
        <time>2014-06-15T14:34:17+0200</time>
      </trkpt>
      <trkpt lat="46.91406" lon="5.45632">
        <ele>205</ele>
        <time>2014-06-15T14:34:32+0200</time>
      </trkpt>
      <trkpt lat="46.9145" lon="5.45667">
        <ele>210</ele>
        <time>2014-06-15T14:34:48+0200</time>
      </trkpt>
      <trkpt lat="46.91479" lon="5.45685">
        <ele>211</ele>
        <time>2014-06-15T14:35:04+0200</time>
      </trkpt>
      <trkpt lat="46.91513" lon="5.45711">
        <ele>213</ele>
        <time>2014-06-15T14:35:19+0200</time>
      </trkpt>
      <trkpt lat="46.91538" lon="5.457">
        <ele>213</ele>
        <time>2014-06-15T14:35:34+0200</time>
      </trkpt>
      <trkpt lat="46.91563" lon="5.45678">
        <ele>214</ele>
        <time>2014-06-15T14:35:49+0200</time>
      </trkpt>
      <trkpt lat="46.91583" lon="5.45639">
        <ele>213</ele>
        <time>2014-06-15T14:36:04+0200</time>
      </trkpt>
      <trkpt lat="46.91558" lon="5.45664">
        <ele>213</ele>
        <time>2014-06-15T14:36:19+0200</time>
      </trkpt>
      <trkpt lat="46.9157" lon="5.45667">
        <ele>214</ele>
        <time>2014-06-15T14:36:35+0200</time>
      </trkpt>
      <trkpt lat="46.91591" lon="5.45636">
        <ele>213</ele>
        <time>2014-06-15T14:36:51+0200</time>
      </trkpt>
      <trkpt lat="46.91608" lon="5.45623">
        <ele>213</ele>
        <time>2014-06-15T14:37:07+0200</time>
      </trkpt>
      <trkpt lat="46.91637" lon="5.45559">
        <ele>213</ele>
        <time>2014-06-15T14:37:22+0200</time>
      </trkpt>
      <trkpt lat="46.91666" lon="5.45499">
        <ele>216</ele>
        <time>2014-06-15T14:37:37+0200</time>
      </trkpt>
      <trkpt lat="46.91687" lon="5.45441">
        <ele>214</ele>
        <time>2014-06-15T14:37:53+0200</time>
      </trkpt>
      <trkpt lat="46.91674" lon="5.45506">
        <ele>215</ele>
        <time>2014-06-15T14:38:08+0200</time>
      </trkpt>
      <trkpt lat="46.91719" lon="5.45553">
        <ele>214</ele>
        <time>2014-06-15T14:38:23+0200</time>
      </trkpt>
      <trkpt lat="46.91782" lon="5.45618">
        <ele>212</ele>
        <time>2014-06-15T14:38:39+0200</time>
      </trkpt>
      <trkpt lat="46.91844" lon="5.45677">
        <ele>208</ele>
        <time>2014-06-15T14:38:55+0200</time>
      </trkpt>
      <trkpt lat="46.91883" lon="5.45694">
        <ele>208</ele>
        <time>2014-06-15T14:39:10+0200</time>
      </trkpt>
      <trkpt lat="46.91885" lon="5.4569">
        <ele>208</ele>
        <time>2014-06-15T14:39:26+0200</time>
      </trkpt>
      <trkpt lat="46.91884" lon="5.45692">
        <ele>208</ele>
        <time>2014-06-15T14:39:42+0200</time>
      </trkpt>
      <trkpt lat="46.91884" lon="5.45692">
        <ele>208</ele>
        <time>2014-06-15T14:39:57+0200</time>
      </trkpt>
      <trkpt lat="46.91885" lon="5.45689">
        <ele>208</ele>
        <time>2014-06-15T14:40:13+0200</time>
      </trkpt>
      <trkpt lat="46.91889" lon="5.45689">
        <ele>208</ele>
        <time>2014-06-15T14:40:28+0200</time>
      </trkpt>
      <trkpt lat="46.91889" lon="5.45688">
        <ele>208</ele>
        <time>2014-06-15T14:40:43+0200</time>
      </trkpt>
      <trkpt lat="46.91884" lon="5.45688">
        <ele>208</ele>
        <time>2014-06-15T14:40:59+0200</time>
      </trkpt>
      <trkpt lat="46.91866" lon="5.45695">
        <ele>208</ele>
        <time>2014-06-15T14:41:14+0200</time>
      </trkpt>
      <trkpt lat="46.91824" lon="5.45658">
        <ele>210</ele>
        <time>2014-06-15T14:41:30+0200</time>
      </trkpt>
      <trkpt lat="46.91779" lon="5.45615">
        <ele>212</ele>
        <time>2014-06-15T14:41:45+0200</time>
      </trkpt>
      <trkpt lat="46.91729" lon="5.45564">
        <ele>213</ele>
        <time>2014-06-15T14:42:01+0200</time>
      </trkpt>
      <trkpt lat="46.91682" lon="5.45515">
        <ele>215</ele>
        <time>2014-06-15T14:42:17+0200</time>
      </trkpt>
      <trkpt lat="46.91673" lon="5.45505">
        <ele>215</ele>
        <time>2014-06-15T14:42:32+0200</time>
      </trkpt>
      <trkpt lat="46.91673" lon="5.45505">
        <ele>215</ele>
        <time>2014-06-15T14:42:48+0200</time>
      </trkpt>
      <trkpt lat="46.91673" lon="5.45505">
        <ele>215</ele>
        <time>2014-06-15T14:43:03+0200</time>
      </trkpt>
      <trkpt lat="46.91674" lon="5.45506">
        <ele>215</ele>
        <time>2014-06-15T14:43:18+0200</time>
      </trkpt>
      <trkpt lat="46.91674" lon="5.45506">
        <ele>215</ele>
        <time>2014-06-15T14:43:34+0200</time>
      </trkpt>
      <trkpt lat="46.91671" lon="5.45503">
        <ele>216</ele>
        <time>2014-06-15T14:43:49+0200</time>
      </trkpt>
      <trkpt lat="46.91671" lon="5.45503">
        <ele>216</ele>
        <time>2014-06-15T14:44:05+0200</time>
      </trkpt>
      <trkpt lat="46.9167" lon="5.45502">
        <ele>216</ele>
        <time>2014-06-15T14:44:21+0200</time>
      </trkpt>
      <trkpt lat="46.91671" lon="5.45503">
        <ele>216</ele>
        <time>2014-06-15T14:44:36+0200</time>
      </trkpt>
      <trkpt lat="46.91671" lon="5.45503">
        <ele>216</ele>
        <time>2014-06-15T14:44:52+0200</time>
      </trkpt>
      <trkpt lat="46.9167" lon="5.45501">
        <ele>216</ele>
        <time>2014-06-15T14:45:07+0200</time>
      </trkpt>
      <trkpt lat="46.9167" lon="5.45502">
        <ele>216</ele>
        <time>2014-06-15T14:45:23+0200</time>
      </trkpt>
      <trkpt lat="46.9167" lon="5.45502">
        <ele>216</ele>
        <time>2014-06-15T14:45:39+0200</time>
      </trkpt>
      <trkpt lat="46.9167" lon="5.45502">
        <ele>216</ele>
        <time>2014-06-15T14:45:54+0200</time>
      </trkpt>
      <trkpt lat="46.9167" lon="5.45502">
        <ele>216</ele>
        <time>2014-06-15T14:46:09+0200</time>
      </trkpt>
      <trkpt lat="46.9167" lon="5.45502">
        <ele>216</ele>
        <time>2014-06-15T14:46:25+0200</time>
      </trkpt>
      <trkpt lat="46.91672" lon="5.45504">
        <ele>215</ele>
        <time>2014-06-15T14:46:40+0200</time>
      </trkpt>
      <trkpt lat="46.91672" lon="5.45504">
        <ele>215</ele>
        <time>2014-06-15T14:46:56+0200</time>
      </trkpt>
      <trkpt lat="46.91672" lon="5.45504">
        <ele>215</ele>
        <time>2014-06-15T14:47:11+0200</time>
      </trkpt>
      <trkpt lat="46.91671" lon="5.45503">
        <ele>216</ele>
        <time>2014-06-15T14:47:27+0200</time>
      </trkpt>
      <trkpt lat="46.91671" lon="5.45503">
        <ele>216</ele>
        <time>2014-06-15T14:47:43+0200</time>
      </trkpt>
      <trkpt lat="46.9167" lon="5.45502">
        <ele>216</ele>
        <time>2014-06-15T14:47:58+0200</time>
      </trkpt>
      <trkpt lat="46.9167" lon="5.45502">
        <ele>216</ele>
        <time>2014-06-15T14:48:13+0200</time>
      </trkpt>
      <trkpt lat="46.9167" lon="5.45502">
        <ele>216</ele>
        <time>2014-06-15T14:48:29+0200</time>
      </trkpt>
      <trkpt lat="46.9167" lon="5.45502">
        <ele>216</ele>
        <time>2014-06-15T14:48:45+0200</time>
      </trkpt>
      <trkpt lat="46.91672" lon="5.45504">
        <ele>215</ele>
        <time>2014-06-15T14:49:01+0200</time>
      </trkpt>
      <trkpt lat="46.9167" lon="5.45502">
        <ele>216</ele>
        <time>2014-06-15T14:49:16+0200</time>
      </trkpt>
      <trkpt lat="46.91695" lon="5.45433">
        <ele>214</ele>
        <time>2014-06-15T14:49:31+0200</time>
      </trkpt>
      <trkpt lat="46.91734" lon="5.45355">
        <ele>214</ele>
        <time>2014-06-15T14:49:47+0200</time>
      </trkpt>
      <trkpt lat="46.9179" lon="5.4529">
        <ele>214</ele>
        <time>2014-06-15T14:50:02+0200</time>
      </trkpt>
      <trkpt lat="46.91845" lon="5.45205">
        <ele>213</ele>
        <time>2014-06-15T14:50:18+0200</time>
      </trkpt>
      <trkpt lat="46.91897" lon="5.45149">
        <ele>212</ele>
        <time>2014-06-15T14:50:34+0200</time>
      </trkpt>
      <trkpt lat="46.91952" lon="5.45111">
        <ele>214</ele>
        <time>2014-06-15T14:50:49+0200</time>
      </trkpt>
      <trkpt lat="46.92007" lon="5.45061">
        <ele>216</ele>
        <time>2014-06-15T14:51:05+0200</time>
      </trkpt>
      <trkpt lat="46.92054" lon="5.45018">
        <ele>216</ele>
        <time>2014-06-15T14:51:20+0200</time>
      </trkpt>
      <trkpt lat="46.92105" lon="5.44976">
        <ele>216</ele>
        <time>2014-06-15T14:51:36+0200</time>
      </trkpt>
      <trkpt lat="46.92162" lon="5.44936">
        <ele>216</ele>
        <time>2014-06-15T14:51:52+0200</time>
      </trkpt>
      <trkpt lat="46.92218" lon="5.449">
        <ele>216</ele>
        <time>2014-06-15T14:52:08+0200</time>
      </trkpt>
      <trkpt lat="46.92276" lon="5.44863">
        <ele>217</ele>
        <time>2014-06-15T14:52:24+0200</time>
      </trkpt>
      <trkpt lat="46.92327" lon="5.44815">
        <ele>216</ele>
        <time>2014-06-15T14:52:39+0200</time>
      </trkpt>
      <trkpt lat="46.92373" lon="5.44747">
        <ele>216</ele>
        <time>2014-06-15T14:52:55+0200</time>
      </trkpt>
      <trkpt lat="46.92415" lon="5.44681">
        <ele>215</ele>
        <time>2014-06-15T14:53:10+0200</time>
      </trkpt>
      <trkpt lat="46.92455" lon="5.44618">
        <ele>215</ele>
        <time>2014-06-15T14:53:25+0200</time>
      </trkpt>
      <trkpt lat="46.92501" lon="5.44543">
        <ele>216</ele>
        <time>2014-06-15T14:53:41+0200</time>
      </trkpt>
      <trkpt lat="46.92542" lon="5.44474">
        <ele>216</ele>
        <time>2014-06-15T14:53:56+0200</time>
      </trkpt>
      <trkpt lat="46.9258" lon="5.44386">
        <ele>215</ele>
        <time>2014-06-15T14:54:12+0200</time>
      </trkpt>
      <trkpt lat="46.92615" lon="5.44296">
        <ele>215</ele>
        <time>2014-06-15T14:54:28+0200</time>
      </trkpt>
      <trkpt lat="46.92648" lon="5.44209">
        <ele>216</ele>
        <time>2014-06-15T14:54:44+0200</time>
      </trkpt>
      <trkpt lat="46.92677" lon="5.44123">
        <ele>216</ele>
        <time>2014-06-15T14:54:59+0200</time>
      </trkpt>
      <trkpt lat="46.92734" lon="5.44067">
        <ele>215</ele>
        <time>2014-06-15T14:55:15+0200</time>
      </trkpt>
      <trkpt lat="46.92795" lon="5.44063">
        <ele>216</ele>
        <time>2014-06-15T14:55:31+0200</time>
      </trkpt>
      <trkpt lat="46.92855" lon="5.44065">
        <ele>217</ele>
        <time>2014-06-15T14:55:46+0200</time>
      </trkpt>
      <trkpt lat="46.92914" lon="5.44068">
        <ele>217</ele>
        <time>2014-06-15T14:56:01+0200</time>
      </trkpt>
      <trkpt lat="46.92981" lon="5.44067">
        <ele>216</ele>
        <time>2014-06-15T14:56:17+0200</time>
      </trkpt>
      <trkpt lat="46.93043" lon="5.4404">
        <ele>215</ele>
        <time>2014-06-15T14:56:33+0200</time>
      </trkpt>
      <trkpt lat="46.93102" lon="5.44013">
        <ele>215</ele>
        <time>2014-06-15T14:56:48+0200</time>
      </trkpt>
      <trkpt lat="46.93162" lon="5.43987">
        <ele>215</ele>
        <time>2014-06-15T14:57:04+0200</time>
      </trkpt>
      <trkpt lat="46.93224" lon="5.43971">
        <ele>214</ele>
        <time>2014-06-15T14:57:19+0200</time>
      </trkpt>
      <trkpt lat="46.93291" lon="5.4393">
        <ele>214</ele>
        <time>2014-06-15T14:57:35+0200</time>
      </trkpt>
      <trkpt lat="46.93352" lon="5.43892">
        <ele>214</ele>
        <time>2014-06-15T14:57:50+0200</time>
      </trkpt>
      <trkpt lat="46.93419" lon="5.43863">
        <ele>214</ele>
        <time>2014-06-15T14:58:06+0200</time>
      </trkpt>
      <trkpt lat="46.93483" lon="5.4383">
        <ele>213</ele>
        <time>2014-06-15T14:58:21+0200</time>
      </trkpt>
      <trkpt lat="46.93555" lon="5.43811">
        <ele>213</ele>
        <time>2014-06-15T14:58:37+0200</time>
      </trkpt>
      <trkpt lat="46.9362" lon="5.43813">
        <ele>214</ele>
        <time>2014-06-15T14:58:53+0200</time>
      </trkpt>
      <trkpt lat="46.93681" lon="5.43819">
        <ele>214</ele>
        <time>2014-06-15T14:59:08+0200</time>
      </trkpt>
      <trkpt lat="46.93746" lon="5.43826">
        <ele>215</ele>
        <time>2014-06-15T14:59:24+0200</time>
      </trkpt>
      <trkpt lat="46.93822" lon="5.43826">
        <ele>213</ele>
        <time>2014-06-15T14:59:40+0200</time>
      </trkpt>
      <trkpt lat="46.93889" lon="5.43822">
        <ele>213</ele>
        <time>2014-06-15T14:59:56+0200</time>
      </trkpt>
      <trkpt lat="46.93961" lon="5.43808">
        <ele>213</ele>
        <time>2014-06-15T15:00:11+0200</time>
      </trkpt>
      <trkpt lat="46.94049" lon="5.43776">
        <ele>211</ele>
        <time>2014-06-15T15:00:27+0200</time>
      </trkpt>
      <trkpt lat="46.94142" lon="5.43721">
        <ele>209</ele>
        <time>2014-06-15T15:00:42+0200</time>
      </trkpt>
      <trkpt lat="46.94245" lon="5.43699">
        <ele>207</ele>
        <time>2014-06-15T15:00:57+0200</time>
      </trkpt>
      <trkpt lat="46.94319" lon="5.43645">
        <ele>207</ele>
        <time>2014-06-15T15:01:13+0200</time>
      </trkpt>
      <trkpt lat="46.94364" lon="5.43604">
        <ele>208</ele>
        <time>2014-06-15T15:01:28+0200</time>
      </trkpt>
      <trkpt lat="46.94408" lon="5.43565">
        <ele>208</ele>
        <time>2014-06-15T15:01:43+0200</time>
      </trkpt>
      <trkpt lat="46.94455" lon="5.43528">
        <ele>212</ele>
        <time>2014-06-15T15:01:59+0200</time>
      </trkpt>
      <trkpt lat="46.94499" lon="5.43507">
        <ele>214</ele>
        <time>2014-06-15T15:02:14+0200</time>
      </trkpt>
      <trkpt lat="46.94555" lon="5.43486">
        <ele>213</ele>
        <time>2014-06-15T15:02:29+0200</time>
      </trkpt>
      <trkpt lat="46.94619" lon="5.43467">
        <ele>213</ele>
        <time>2014-06-15T15:02:45+0200</time>
      </trkpt>
      <trkpt lat="46.94675" lon="5.43447">
        <ele>212</ele>
        <time>2014-06-15T15:03:00+0200</time>
      </trkpt>
      <trkpt lat="46.94744" lon="5.43425">
        <ele>211</ele>
        <time>2014-06-15T15:03:16+0200</time>
      </trkpt>
      <trkpt lat="46.94822" lon="5.43394">
        <ele>211</ele>
        <time>2014-06-15T15:03:32+0200</time>
      </trkpt>
      <trkpt lat="46.94886" lon="5.43339">
        <ele>210</ele>
        <time>2014-06-15T15:03:48+0200</time>
      </trkpt>
      <trkpt lat="46.94987" lon="5.43259">
        <ele>204</ele>
        <time>2014-06-15T15:04:04+0200</time>
      </trkpt>
      <trkpt lat="46.95069" lon="5.43269">
        <ele>204</ele>
        <time>2014-06-15T15:04:20+0200</time>
      </trkpt>
      <trkpt lat="46.95112" lon="5.43265">
        <ele>207</ele>
        <time>2014-06-15T15:04:35+0200</time>
      </trkpt>
      <trkpt lat="46.95152" lon="5.43256">
        <ele>210</ele>
        <time>2014-06-15T15:04:50+0200</time>
      </trkpt>
      <trkpt lat="46.95189" lon="5.43242">
        <ele>213</ele>
        <time>2014-06-15T15:05:06+0200</time>
      </trkpt>
      <trkpt lat="46.95223" lon="5.43223">
        <ele>214</ele>
        <time>2014-06-15T15:05:22+0200</time>
      </trkpt>
      <trkpt lat="46.95261" lon="5.43212">
        <ele>214</ele>
        <time>2014-06-15T15:05:37+0200</time>
      </trkpt>
      <trkpt lat="46.95318" lon="5.43193">
        <ele>214</ele>
        <time>2014-06-15T15:05:53+0200</time>
      </trkpt>
      <trkpt lat="46.95381" lon="5.43139">
        <ele>213</ele>
        <time>2014-06-15T15:06:09+0200</time>
      </trkpt>
      <trkpt lat="46.95426" lon="5.43064">
        <ele>214</ele>
        <time>2014-06-15T15:06:24+0200</time>
      </trkpt>
      <trkpt lat="46.95484" lon="5.42985">
        <ele>213</ele>
        <time>2014-06-15T15:06:40+0200</time>
      </trkpt>
      <trkpt lat="46.95551" lon="5.42927">
        <ele>212</ele>
        <time>2014-06-15T15:06:56+0200</time>
      </trkpt>
      <trkpt lat="46.95624" lon="5.42957">
        <ele>212</ele>
        <time>2014-06-15T15:07:12+0200</time>
      </trkpt>
      <trkpt lat="46.95697" lon="5.42956">
        <ele>212</ele>
        <time>2014-06-15T15:07:28+0200</time>
      </trkpt>
      <trkpt lat="46.95771" lon="5.42888">
        <ele>210</ele>
        <time>2014-06-15T15:07:44+0200</time>
      </trkpt>
      <trkpt lat="46.95852" lon="5.428">
        <ele>206</ele>
        <time>2014-06-15T15:08:00+0200</time>
      </trkpt>
      <trkpt lat="46.95929" lon="5.42699">
        <ele>205</ele>
        <time>2014-06-15T15:08:15+0200</time>
      </trkpt>
      <trkpt lat="46.96025" lon="5.42579">
        <ele>202</ele>
        <time>2014-06-15T15:08:31+0200</time>
      </trkpt>
      <trkpt lat="46.96141" lon="5.42488">
        <ele>199</ele>
        <time>2014-06-15T15:08:46+0200</time>
      </trkpt>
      <trkpt lat="46.96237" lon="5.42372">
        <ele>196</ele>
        <time>2014-06-15T15:09:02+0200</time>
      </trkpt>
      <trkpt lat="46.96332" lon="5.42283">
        <ele>193</ele>
        <time>2014-06-15T15:09:17+0200</time>
      </trkpt>
      <trkpt lat="46.964" lon="5.42151">
        <ele>190</ele>
        <time>2014-06-15T15:09:33+0200</time>
      </trkpt>
      <trkpt lat="46.96454" lon="5.42031">
        <ele>189</ele>
        <time>2014-06-15T15:09:49+0200</time>
      </trkpt>
      <trkpt lat="46.96532" lon="5.4205">
        <ele>190</ele>
        <time>2014-06-15T15:10:04+0200</time>
      </trkpt>
      <trkpt lat="46.96596" lon="5.42092">
        <ele>191</ele>
        <time>2014-06-15T15:10:20+0200</time>
      </trkpt>
      <trkpt lat="46.96629" lon="5.42026">
        <ele>191</ele>
        <time>2014-06-15T15:10:36+0200</time>
      </trkpt>
      <trkpt lat="46.96644" lon="5.41907">
        <ele>191</ele>
        <time>2014-06-15T15:10:52+0200</time>
      </trkpt>
      <trkpt lat="46.96659" lon="5.41774">
        <ele>190</ele>
        <time>2014-06-15T15:11:08+0200</time>
      </trkpt>
      <trkpt lat="46.96664" lon="5.41681">
        <ele>191</ele>
        <time>2014-06-15T15:11:23+0200</time>
      </trkpt>
      <trkpt lat="46.96664" lon="5.41681">
        <ele>190</ele>
        <time>2014-06-15T15:11:39+0200</time>
      </trkpt>
      <trkpt lat="46.96663" lon="5.41689">
        <ele>190</ele>
        <time>2014-06-15T15:11:54+0200</time>
      </trkpt>
      <trkpt lat="46.96663" lon="5.41689">
        <ele>190</ele>
        <time>2014-06-15T15:12:09+0200</time>
      </trkpt>
      <trkpt lat="46.96667" lon="5.41685">
        <ele>190</ele>
        <time>2014-06-15T15:12:25+0200</time>
      </trkpt>
      <trkpt lat="46.96667" lon="5.41685">
        <ele>190</ele>
        <time>2014-06-15T15:12:40+0200</time>
      </trkpt>
      <trkpt lat="46.96672" lon="5.41681">
        <ele>190</ele>
        <time>2014-06-15T15:12:55+0200</time>
      </trkpt>
      <trkpt lat="46.96672" lon="5.41681">
        <ele>190</ele>
        <time>2014-06-15T15:13:10+0200</time>
      </trkpt>
      <trkpt lat="46.9667" lon="5.41682">
        <ele>190</ele>
        <time>2014-06-15T15:13:26+0200</time>
      </trkpt>
      <trkpt lat="46.9667" lon="5.41682">
        <ele>190</ele>
        <time>2014-06-15T15:13:41+0200</time>
      </trkpt>
      <trkpt lat="46.96671" lon="5.41683">
        <ele>190</ele>
        <time>2014-06-15T15:13:57+0200</time>
      </trkpt>
      <trkpt lat="46.96673" lon="5.41684">
        <ele>190</ele>
        <time>2014-06-15T15:14:12+0200</time>
      </trkpt>
      <trkpt lat="46.96673" lon="5.41684">
        <ele>190</ele>
        <time>2014-06-15T15:14:27+0200</time>
      </trkpt>
      <trkpt lat="46.96671" lon="5.41685">
        <ele>190</ele>
        <time>2014-06-15T15:14:42+0200</time>
      </trkpt>
      <trkpt lat="46.96666" lon="5.41685">
        <ele>190</ele>
        <time>2014-06-15T15:14:57+0200</time>
      </trkpt>
      <trkpt lat="46.96666" lon="5.41694">
        <ele>190</ele>
        <time>2014-06-15T15:15:13+0200</time>
      </trkpt>
      <trkpt lat="46.96665" lon="5.41698">
        <ele>190</ele>
        <time>2014-06-15T15:15:28+0200</time>
      </trkpt>
      <trkpt lat="46.96665" lon="5.41698">
        <ele>190</ele>
        <time>2014-06-15T15:15:44+0200</time>
      </trkpt>
      <trkpt lat="46.96665" lon="5.41698">
        <ele>190</ele>
        <time>2014-06-15T15:16:00+0200</time>
      </trkpt>
      <trkpt lat="46.96665" lon="5.41696">
        <ele>190</ele>
        <time>2014-06-15T15:16:16+0200</time>
      </trkpt>
      <trkpt lat="46.96665" lon="5.41699">
        <ele>190</ele>
        <time>2014-06-15T15:16:31+0200</time>
      </trkpt>
      <trkpt lat="46.96661" lon="5.41696">
        <ele>190</ele>
        <time>2014-06-15T15:16:47+0200</time>
      </trkpt>
      <trkpt lat="46.96661" lon="5.41696">
        <ele>190</ele>
        <time>2014-06-15T15:17:03+0200</time>
      </trkpt>
      <trkpt lat="46.96661" lon="5.41696">
        <ele>190</ele>
        <time>2014-06-15T15:17:18+0200</time>
      </trkpt>
      <trkpt lat="46.96661" lon="5.41696">
        <ele>190</ele>
        <time>2014-06-15T15:17:34+0200</time>
      </trkpt>
      <trkpt lat="46.96661" lon="5.41696">
        <ele>190</ele>
        <time>2014-06-15T15:17:49+0200</time>
      </trkpt>
      <trkpt lat="46.96661" lon="5.41696">
        <ele>190</ele>
        <time>2014-06-15T15:18:04+0200</time>
      </trkpt>
      <trkpt lat="46.96661" lon="5.41696">
        <ele>190</ele>
        <time>2014-06-15T15:18:20+0200</time>
      </trkpt>
      <trkpt lat="46.96661" lon="5.41696">
        <ele>190</ele>
        <time>2014-06-15T15:18:35+0200</time>
      </trkpt>
      <trkpt lat="46.96661" lon="5.41696">
        <ele>190</ele>
        <time>2014-06-15T15:18:51+0200</time>
      </trkpt>
      <trkpt lat="46.96661" lon="5.41696">
        <ele>190</ele>
        <time>2014-06-15T15:19:06+0200</time>
      </trkpt>
      <trkpt lat="46.96661" lon="5.41696">
        <ele>190</ele>
        <time>2014-06-15T15:19:21+0200</time>
      </trkpt>
      <trkpt lat="46.96661" lon="5.41696">
        <ele>190</ele>
        <time>2014-06-15T15:19:37+0200</time>
      </trkpt>
      <trkpt lat="46.96661" lon="5.41696">
        <ele>190</ele>
        <time>2014-06-15T15:19:53+0200</time>
      </trkpt>
      <trkpt lat="46.96661" lon="5.41696">
        <ele>190</ele>
        <time>2014-06-15T15:20:08+0200</time>
      </trkpt>
      <trkpt lat="46.96661" lon="5.41696">
        <ele>190</ele>
        <time>2014-06-15T15:20:24+0200</time>
      </trkpt>
      <trkpt lat="46.96661" lon="5.41696">
        <ele>190</ele>
        <time>2014-06-15T15:20:39+0200</time>
      </trkpt>
      <trkpt lat="46.96661" lon="5.41696">
        <ele>190</ele>
        <time>2014-06-15T15:20:54+0200</time>
      </trkpt>
      <trkpt lat="46.96661" lon="5.41696">
        <ele>190</ele>
        <time>2014-06-15T15:21:10+0200</time>
      </trkpt>
      <trkpt lat="46.96661" lon="5.41696">
        <ele>190</ele>
        <time>2014-06-15T15:21:25+0200</time>
      </trkpt>
      <trkpt lat="46.96661" lon="5.41696">
        <ele>190</ele>
        <time>2014-06-15T15:21:40+0200</time>
      </trkpt>
      <trkpt lat="46.96661" lon="5.41696">
        <ele>190</ele>
        <time>2014-06-15T15:21:56+0200</time>
      </trkpt>
      <trkpt lat="46.96659" lon="5.41697">
        <ele>190</ele>
        <time>2014-06-15T15:22:12+0200</time>
      </trkpt>
      <trkpt lat="46.96663" lon="5.41698">
        <ele>190</ele>
        <time>2014-06-15T15:22:28+0200</time>
      </trkpt>
      <trkpt lat="46.96662" lon="5.41698">
        <ele>190</ele>
        <time>2014-06-15T15:22:43+0200</time>
      </trkpt>
      <trkpt lat="46.96662" lon="5.41698">
        <ele>190</ele>
        <time>2014-06-15T15:22:59+0200</time>
      </trkpt>
      <trkpt lat="46.96662" lon="5.41698">
        <ele>190</ele>
        <time>2014-06-15T15:23:14+0200</time>
      </trkpt>
      <trkpt lat="46.96662" lon="5.41698">
        <ele>190</ele>
        <time>2014-06-15T15:23:30+0200</time>
      </trkpt>
      <trkpt lat="46.96662" lon="5.41698">
        <ele>190</ele>
        <time>2014-06-15T15:23:46+0200</time>
      </trkpt>
      <trkpt lat="46.96662" lon="5.41698">
        <ele>190</ele>
        <time>2014-06-15T15:24:01+0200</time>
      </trkpt>
      <trkpt lat="46.96662" lon="5.41698">
        <ele>190</ele>
        <time>2014-06-15T15:24:16+0200</time>
      </trkpt>
      <trkpt lat="46.96662" lon="5.41698">
        <ele>190</ele>
        <time>2014-06-15T15:24:32+0200</time>
      </trkpt>
      <trkpt lat="46.96662" lon="5.41698">
        <ele>190</ele>
        <time>2014-06-15T15:24:47+0200</time>
      </trkpt>
      <trkpt lat="46.96662" lon="5.41698">
        <ele>190</ele>
        <time>2014-06-15T15:25:02+0200</time>
      </trkpt>
      <trkpt lat="46.96662" lon="5.41698">
        <ele>190</ele>
        <time>2014-06-15T15:25:18+0200</time>
      </trkpt>
      <trkpt lat="46.96662" lon="5.41698">
        <ele>190</ele>
        <time>2014-06-15T15:25:33+0200</time>
      </trkpt>
      <trkpt lat="46.96662" lon="5.41698">
        <ele>190</ele>
        <time>2014-06-15T15:25:49+0200</time>
      </trkpt>
      <trkpt lat="46.96662" lon="5.41698">
        <ele>190</ele>
        <time>2014-06-15T15:26:05+0200</time>
      </trkpt>
      <trkpt lat="46.96662" lon="5.41698">
        <ele>190</ele>
        <time>2014-06-15T15:26:20+0200</time>
      </trkpt>
      <trkpt lat="46.96669" lon="5.41658">
        <ele>191</ele>
        <time>2014-06-15T15:26:36+0200</time>
      </trkpt>
      <trkpt lat="46.96673" lon="5.41592">
        <ele>190</ele>
        <time>2014-06-15T15:26:51+0200</time>
      </trkpt>
      <trkpt lat="46.96682" lon="5.41525">
        <ele>190</ele>
        <time>2014-06-15T15:27:06+0200</time>
      </trkpt>
      <trkpt lat="46.96701" lon="5.41434">
        <ele>190</ele>
        <time>2014-06-15T15:27:22+0200</time>
      </trkpt>
      <trkpt lat="46.96723" lon="5.41331">
        <ele>191</ele>
        <time>2014-06-15T15:27:38+0200</time>
      </trkpt>
      <trkpt lat="46.96747" lon="5.41225">
        <ele>191</ele>
        <time>2014-06-15T15:27:54+0200</time>
      </trkpt>
      <trkpt lat="46.96753" lon="5.41119">
        <ele>189</ele>
        <time>2014-06-15T15:28:09+0200</time>
      </trkpt>
      <trkpt lat="46.96738" lon="5.41007">
        <ele>189</ele>
        <time>2014-06-15T15:28:25+0200</time>
      </trkpt>
      <trkpt lat="46.96752" lon="5.40919">
        <ele>189</ele>
        <time>2014-06-15T15:28:40+0200</time>
      </trkpt>
      <trkpt lat="46.96776" lon="5.40817">
        <ele>189</ele>
        <time>2014-06-15T15:28:55+0200</time>
      </trkpt>
      <trkpt lat="46.96803" lon="5.40705">
        <ele>190</ele>
        <time>2014-06-15T15:29:11+0200</time>
      </trkpt>
      <trkpt lat="46.96828" lon="5.40624">
        <ele>191</ele>
        <time>2014-06-15T15:29:26+0200</time>
      </trkpt>
      <trkpt lat="46.96883" lon="5.40587">
        <ele>189</ele>
        <time>2014-06-15T15:29:42+0200</time>
      </trkpt>
      <trkpt lat="46.9695" lon="5.40634">
        <ele>189</ele>
        <time>2014-06-15T15:29:57+0200</time>
      </trkpt>
      <trkpt lat="46.97021" lon="5.40644">
        <ele>188</ele>
        <time>2014-06-15T15:30:13+0200</time>
      </trkpt>
      <trkpt lat="46.97094" lon="5.40643">
        <ele>187</ele>
        <time>2014-06-15T15:30:28+0200</time>
      </trkpt>
      <trkpt lat="46.97177" lon="5.40642">
        <ele>186</ele>
        <time>2014-06-15T15:30:44+0200</time>
      </trkpt>
      <trkpt lat="46.97255" lon="5.40656">
        <ele>187</ele>
        <time>2014-06-15T15:31:00+0200</time>
      </trkpt>
      <trkpt lat="46.97322" lon="5.40665">
        <ele>186</ele>
        <time>2014-06-15T15:31:16+0200</time>
      </trkpt>
      <trkpt lat="46.9739" lon="5.40679">
        <ele>187</ele>
        <time>2014-06-15T15:31:32+0200</time>
      </trkpt>
      <trkpt lat="46.97446" lon="5.40692">
        <ele>187</ele>
        <time>2014-06-15T15:31:47+0200</time>
      </trkpt>
      <trkpt lat="46.97541" lon="5.40714">
        <ele>187</ele>
        <time>2014-06-15T15:32:03+0200</time>
      </trkpt>
      <trkpt lat="46.97615" lon="5.40724">
        <ele>188</ele>
        <time>2014-06-15T15:32:19+0200</time>
      </trkpt>
      <trkpt lat="46.97685" lon="5.40737">
        <ele>188</ele>
        <time>2014-06-15T15:32:35+0200</time>
      </trkpt>
      <trkpt lat="46.97744" lon="5.40748">
        <ele>189</ele>
        <time>2014-06-15T15:32:51+0200</time>
      </trkpt>
      <trkpt lat="46.9782" lon="5.40762">
        <ele>189</ele>
        <time>2014-06-15T15:33:07+0200</time>
      </trkpt>
      <trkpt lat="46.97891" lon="5.40729">
        <ele>187</ele>
        <time>2014-06-15T15:33:23+0200</time>
      </trkpt>
      <trkpt lat="46.97972" lon="5.40722">
        <ele>187</ele>
        <time>2014-06-15T15:33:39+0200</time>
      </trkpt>
      <trkpt lat="46.98035" lon="5.40743">
        <ele>187</ele>
        <time>2014-06-15T15:33:54+0200</time>
      </trkpt>
      <trkpt lat="46.98103" lon="5.40758">
        <ele>186</ele>
        <time>2014-06-15T15:34:09+0200</time>
      </trkpt>
      <trkpt lat="46.98175" lon="5.40774">
        <ele>187</ele>
        <time>2014-06-15T15:34:25+0200</time>
      </trkpt>
      <trkpt lat="46.98236" lon="5.4081">
        <ele>187</ele>
        <time>2014-06-15T15:34:40+0200</time>
      </trkpt>
      <trkpt lat="46.983" lon="5.40825">
        <ele>187</ele>
        <time>2014-06-15T15:34:56+0200</time>
      </trkpt>
      <trkpt lat="46.98357" lon="5.40767">
        <ele>187</ele>
        <time>2014-06-15T15:35:12+0200</time>
      </trkpt>
      <trkpt lat="46.98407" lon="5.40692">
        <ele>187</ele>
        <time>2014-06-15T15:35:28+0200</time>
      </trkpt>
      <trkpt lat="46.98462" lon="5.4062">
        <ele>186</ele>
        <time>2014-06-15T15:35:44+0200</time>
      </trkpt>
      <trkpt lat="46.98527" lon="5.40596">
        <ele>186</ele>
        <time>2014-06-15T15:35:59+0200</time>
      </trkpt>
      <trkpt lat="46.98596" lon="5.40584">
        <ele>187</ele>
        <time>2014-06-15T15:36:14+0200</time>
      </trkpt>
      <trkpt lat="46.98668" lon="5.40579">
        <ele>186</ele>
        <time>2014-06-15T15:36:30+0200</time>
      </trkpt>
      <trkpt lat="46.98744" lon="5.40574">
        <ele>186</ele>
        <time>2014-06-15T15:36:45+0200</time>
      </trkpt>
      <trkpt lat="46.98819" lon="5.40561">
        <ele>187</ele>
        <time>2014-06-15T15:37:01+0200</time>
      </trkpt>
      <trkpt lat="46.98891" lon="5.40562">
        <ele>187</ele>
        <time>2014-06-15T15:37:16+0200</time>
      </trkpt>
      <trkpt lat="46.98956" lon="5.40608">
        <ele>187</ele>
        <time>2014-06-15T15:37:32+0200</time>
      </trkpt>
      <trkpt lat="46.99026" lon="5.40644">
        <ele>187</ele>
        <time>2014-06-15T15:37:48+0200</time>
      </trkpt>
      <trkpt lat="46.99097" lon="5.40672">
        <ele>186</ele>
        <time>2014-06-15T15:38:03+0200</time>
      </trkpt>
      <trkpt lat="46.99172" lon="5.40698">
        <ele>187</ele>
        <time>2014-06-15T15:38:19+0200</time>
      </trkpt>
      <trkpt lat="46.99237" lon="5.40679">
        <ele>187</ele>
        <time>2014-06-15T15:38:35+0200</time>
      </trkpt>
      <trkpt lat="46.99321" lon="5.40663">
        <ele>188</ele>
        <time>2014-06-15T15:38:51+0200</time>
      </trkpt>
      <trkpt lat="46.99386" lon="5.40656">
        <ele>188</ele>
        <time>2014-06-15T15:39:06+0200</time>
      </trkpt>
      <trkpt lat="46.99455" lon="5.40622">
        <ele>188</ele>
        <time>2014-06-15T15:39:22+0200</time>
      </trkpt>
      <trkpt lat="46.99532" lon="5.40579">
        <ele>188</ele>
        <time>2014-06-15T15:39:37+0200</time>
      </trkpt>
      <trkpt lat="46.99599" lon="5.40534">
        <ele>189</ele>
        <time>2014-06-15T15:39:52+0200</time>
      </trkpt>
      <trkpt lat="46.99655" lon="5.40455">
        <ele>188</ele>
        <time>2014-06-15T15:40:07+0200</time>
      </trkpt>
      <trkpt lat="46.9971" lon="5.40367">
        <ele>188</ele>
        <time>2014-06-15T15:40:22+0200</time>
      </trkpt>
      <trkpt lat="46.99786" lon="5.40306">
        <ele>188</ele>
        <time>2014-06-15T15:40:38+0200</time>
      </trkpt>
      <trkpt lat="46.99862" lon="5.40279">
        <ele>188</ele>
        <time>2014-06-15T15:40:54+0200</time>
      </trkpt>
      <trkpt lat="46.99923" lon="5.40215">
        <ele>188</ele>
        <time>2014-06-15T15:41:09+0200</time>
      </trkpt>
      <trkpt lat="46.99994" lon="5.40169">
        <ele>189</ele>
        <time>2014-06-15T15:41:25+0200</time>
      </trkpt>
      <trkpt lat="47.00045" lon="5.40101">
        <ele>190</ele>
        <time>2014-06-15T15:41:40+0200</time>
      </trkpt>
      <trkpt lat="47.00033" lon="5.39994">
        <ele>189</ele>
        <time>2014-06-15T15:41:55+0200</time>
      </trkpt>
      <trkpt lat="46.99988" lon="5.39892">
        <ele>188</ele>
        <time>2014-06-15T15:42:10+0200</time>
      </trkpt>
      <trkpt lat="46.99952" lon="5.39756">
        <ele>189</ele>
        <time>2014-06-15T15:42:26+0200</time>
      </trkpt>
      <trkpt lat="46.99957" lon="5.39613">
        <ele>189</ele>
        <time>2014-06-15T15:42:42+0200</time>
      </trkpt>
      <trkpt lat="46.99973" lon="5.39483">
        <ele>187</ele>
        <time>2014-06-15T15:42:58+0200</time>
      </trkpt>
      <trkpt lat="46.99979" lon="5.39359">
        <ele>188</ele>
        <time>2014-06-15T15:43:14+0200</time>
      </trkpt>
      <trkpt lat="46.99992" lon="5.3924">
        <ele>189</ele>
        <time>2014-06-15T15:43:29+0200</time>
      </trkpt>
      <trkpt lat="47.00036" lon="5.39127">
        <ele>191</ele>
        <time>2014-06-15T15:43:45+0200</time>
      </trkpt>
      <trkpt lat="47.00052" lon="5.38997">
        <ele>188</ele>
        <time>2014-06-15T15:44:01+0200</time>
      </trkpt>
      <trkpt lat="47.00117" lon="5.38972">
        <ele>187</ele>
        <time>2014-06-15T15:44:17+0200</time>
      </trkpt>
      <trkpt lat="47.0016" lon="5.38986">
        <ele>187</ele>
        <time>2014-06-15T15:44:32+0200</time>
      </trkpt>
      <trkpt lat="47.00217" lon="5.39">
        <ele>188</ele>
        <time>2014-06-15T15:44:48+0200</time>
      </trkpt>
      <trkpt lat="47.00267" lon="5.39021">
        <ele>188</ele>
        <time>2014-06-15T15:45:04+0200</time>
      </trkpt>
      <trkpt lat="47.00354" lon="5.39053">
        <ele>189</ele>
        <time>2014-06-15T15:45:19+0200</time>
      </trkpt>
      <trkpt lat="47.00427" lon="5.39069">
        <ele>189</ele>
        <time>2014-06-15T15:45:35+0200</time>
      </trkpt>
      <trkpt lat="47.00443" lon="5.39069">
        <ele>189</ele>
        <time>2014-06-15T15:45:51+0200</time>
      </trkpt>
      <trkpt lat="47.00444" lon="5.39067">
        <ele>189</ele>
        <time>2014-06-15T15:46:06+0200</time>
      </trkpt>
      <trkpt lat="47.00445" lon="5.39067">
        <ele>189</ele>
        <time>2014-06-15T15:46:22+0200</time>
      </trkpt>
      <trkpt lat="47.00449" lon="5.39068">
        <ele>189</ele>
        <time>2014-06-15T15:46:37+0200</time>
      </trkpt>
      <trkpt lat="47.00454" lon="5.39066">
        <ele>189</ele>
        <time>2014-06-15T15:46:53+0200</time>
      </trkpt>
      <trkpt lat="47.00454" lon="5.39065">
        <ele>189</ele>
        <time>2014-06-15T15:47:09+0200</time>
      </trkpt>
      <trkpt lat="47.00448" lon="5.39064">
        <ele>189</ele>
        <time>2014-06-15T15:47:24+0200</time>
      </trkpt>
      <trkpt lat="47.00448" lon="5.39065">
        <ele>189</ele>
        <time>2014-06-15T15:47:39+0200</time>
      </trkpt>
      <trkpt lat="47.0045" lon="5.39069">
        <ele>189</ele>
        <time>2014-06-15T15:47:55+0200</time>
      </trkpt>
      <trkpt lat="47.00449" lon="5.39068">
        <ele>189</ele>
        <time>2014-06-15T15:48:11+0200</time>
      </trkpt>
      <trkpt lat="47.00449" lon="5.39066">
        <ele>189</ele>
        <time>2014-06-15T15:48:26+0200</time>
      </trkpt>
      <trkpt lat="47.00449" lon="5.39066">
        <ele>189</ele>
        <time>2014-06-15T15:48:42+0200</time>
      </trkpt>
      <trkpt lat="47.00444" lon="5.39065">
        <ele>189</ele>
        <time>2014-06-15T15:48:57+0200</time>
      </trkpt>
      <trkpt lat="47.00442" lon="5.39065">
        <ele>189</ele>
        <time>2014-06-15T15:49:13+0200</time>
      </trkpt>
      <trkpt lat="47.00444" lon="5.39067">
        <ele>189</ele>
        <time>2014-06-15T15:49:29+0200</time>
      </trkpt>
      <trkpt lat="47.00444" lon="5.39067">
        <ele>189</ele>
        <time>2014-06-15T15:49:45+0200</time>
      </trkpt>
      <trkpt lat="47.00444" lon="5.39065">
        <ele>189</ele>
        <time>2014-06-15T15:50:00+0200</time>
      </trkpt>
      <trkpt lat="47.00443" lon="5.39061">
        <ele>189</ele>
        <time>2014-06-15T15:50:16+0200</time>
      </trkpt>
      <trkpt lat="47.00446" lon="5.39065">
        <ele>189</ele>
        <time>2014-06-15T15:50:31+0200</time>
      </trkpt>
      <trkpt lat="47.0045" lon="5.39067">
        <ele>189</ele>
        <time>2014-06-15T15:50:47+0200</time>
      </trkpt>
      <trkpt lat="47.0045" lon="5.39067">
        <ele>189</ele>
        <time>2014-06-15T15:51:02+0200</time>
      </trkpt>
      <trkpt lat="47.0045" lon="5.39067">
        <ele>189</ele>
        <time>2014-06-15T15:51:17+0200</time>
      </trkpt>
      <trkpt lat="47.00447" lon="5.39064">
        <ele>189</ele>
        <time>2014-06-15T15:51:33+0200</time>
      </trkpt>
      <trkpt lat="47.00447" lon="5.39062">
        <ele>189</ele>
        <time>2014-06-15T15:51:49+0200</time>
      </trkpt>
      <trkpt lat="47.00445" lon="5.39059">
        <ele>189</ele>
        <time>2014-06-15T15:52:05+0200</time>
      </trkpt>
      <trkpt lat="47.00448" lon="5.39058">
        <ele>189</ele>
        <time>2014-06-15T15:52:21+0200</time>
      </trkpt>
      <trkpt lat="47.00443" lon="5.3906">
        <ele>189</ele>
        <time>2014-06-15T15:52:36+0200</time>
      </trkpt>
      <trkpt lat="47.00442" lon="5.39059">
        <ele>189</ele>
        <time>2014-06-15T15:52:51+0200</time>
      </trkpt>
      <trkpt lat="47.00442" lon="5.39059">
        <ele>189</ele>
        <time>2014-06-15T15:53:07+0200</time>
      </trkpt>
      <trkpt lat="47.00442" lon="5.39059">
        <ele>189</ele>
        <time>2014-06-15T15:53:23+0200</time>
      </trkpt>
      <trkpt lat="47.00442" lon="5.39059">
        <ele>189</ele>
        <time>2014-06-15T15:53:39+0200</time>
      </trkpt>
      <trkpt lat="47.00442" lon="5.39059">
        <ele>189</ele>
        <time>2014-06-15T15:53:54+0200</time>
      </trkpt>
      <trkpt lat="47.00443" lon="5.39061">
        <ele>189</ele>
        <time>2014-06-15T15:54:10+0200</time>
      </trkpt>
      <trkpt lat="47.00441" lon="5.39062">
        <ele>189</ele>
        <time>2014-06-15T15:54:26+0200</time>
      </trkpt>
      <trkpt lat="47.0044" lon="5.39063">
        <ele>189</ele>
        <time>2014-06-15T15:54:42+0200</time>
      </trkpt>
      <trkpt lat="47.00442" lon="5.39067">
        <ele>189</ele>
        <time>2014-06-15T15:54:58+0200</time>
      </trkpt>
      <trkpt lat="47.00443" lon="5.39066">
        <ele>189</ele>
        <time>2014-06-15T15:55:14+0200</time>
      </trkpt>
      <trkpt lat="47.00446" lon="5.39065">
        <ele>189</ele>
        <time>2014-06-15T15:55:29+0200</time>
      </trkpt>
      <trkpt lat="47.00447" lon="5.39063">
        <ele>189</ele>
        <time>2014-06-15T15:55:44+0200</time>
      </trkpt>
      <trkpt lat="47.00448" lon="5.39065">
        <ele>189</ele>
        <time>2014-06-15T15:56:00+0200</time>
      </trkpt>
      <trkpt lat="47.00447" lon="5.39065">
        <ele>189</ele>
        <time>2014-06-15T15:56:15+0200</time>
      </trkpt>
      <trkpt lat="47.00447" lon="5.39066">
        <ele>189</ele>
        <time>2014-06-15T15:56:30+0200</time>
      </trkpt>
      <trkpt lat="47.00447" lon="5.39066">
        <ele>189</ele>
        <time>2014-06-15T15:56:45+0200</time>
      </trkpt>
      <trkpt lat="47.00447" lon="5.39067">
        <ele>189</ele>
        <time>2014-06-15T15:57:00+0200</time>
      </trkpt>
      <trkpt lat="47.00445" lon="5.39072">
        <ele>189</ele>
        <time>2014-06-15T15:57:16+0200</time>
      </trkpt>
      <trkpt lat="47.00445" lon="5.39072">
        <ele>189</ele>
        <time>2014-06-15T15:57:31+0200</time>
      </trkpt>
      <trkpt lat="47.00445" lon="5.39072">
        <ele>189</ele>
        <time>2014-06-15T15:57:47+0200</time>
      </trkpt>
      <trkpt lat="47.00448" lon="5.39068">
        <ele>189</ele>
        <time>2014-06-15T15:58:02+0200</time>
      </trkpt>
      <trkpt lat="47.0045" lon="5.39066">
        <ele>189</ele>
        <time>2014-06-15T15:58:18+0200</time>
      </trkpt>
      <trkpt lat="47.00443" lon="5.39066">
        <ele>189</ele>
        <time>2014-06-15T15:58:33+0200</time>
      </trkpt>
      <trkpt lat="47.00443" lon="5.39066">
        <ele>189</ele>
        <time>2014-06-15T15:58:48+0200</time>
      </trkpt>
      <trkpt lat="47.00443" lon="5.39066">
        <ele>189</ele>
        <time>2014-06-15T15:59:03+0200</time>
      </trkpt>
      <trkpt lat="47.00443" lon="5.39066">
        <ele>189</ele>
        <time>2014-06-15T15:59:19+0200</time>
      </trkpt>
      <trkpt lat="47.00443" lon="5.39066">
        <ele>189</ele>
        <time>2014-06-15T15:59:35+0200</time>
      </trkpt>
      <trkpt lat="47.00445" lon="5.39064">
        <ele>189</ele>
        <time>2014-06-15T15:59:50+0200</time>
      </trkpt>
      <trkpt lat="47.00445" lon="5.39064">
        <ele>189</ele>
        <time>2014-06-15T16:00:06+0200</time>
      </trkpt>
      <trkpt lat="47.00445" lon="5.39064">
        <ele>189</ele>
        <time>2014-06-15T16:00:21+0200</time>
      </trkpt>
      <trkpt lat="47.00449" lon="5.3906">
        <ele>189</ele>
        <time>2014-06-15T16:00:37+0200</time>
      </trkpt>
      <trkpt lat="47.00449" lon="5.3906">
        <ele>189</ele>
        <time>2014-06-15T16:00:53+0200</time>
      </trkpt>
      <trkpt lat="47.00449" lon="5.3906">
        <ele>189</ele>
        <time>2014-06-15T16:01:09+0200</time>
      </trkpt>
      <trkpt lat="47.00449" lon="5.3906">
        <ele>189</ele>
        <time>2014-06-15T16:01:24+0200</time>
      </trkpt>
      <trkpt lat="47.00468" lon="5.39078">
        <ele>190</ele>
        <time>2014-06-15T16:01:40+0200</time>
      </trkpt>
      <trkpt lat="47.00504" lon="5.39093">
        <ele>190</ele>
        <time>2014-06-15T16:01:55+0200</time>
      </trkpt>
      <trkpt lat="47.00552" lon="5.39096">
        <ele>190</ele>
        <time>2014-06-15T16:02:10+0200</time>
      </trkpt>
      <trkpt lat="47.00588" lon="5.39068">
        <ele>190</ele>
        <time>2014-06-15T16:02:26+0200</time>
      </trkpt>
      <trkpt lat="47.00641" lon="5.39029">
        <ele>189</ele>
        <time>2014-06-15T16:02:41+0200</time>
      </trkpt>
      <trkpt lat="47.00702" lon="5.38972">
        <ele>189</ele>
        <time>2014-06-15T16:02:57+0200</time>
      </trkpt>
      <trkpt lat="47.00754" lon="5.38909">
        <ele>189</ele>
        <time>2014-06-15T16:03:13+0200</time>
      </trkpt>
      <trkpt lat="47.00788" lon="5.3883">
        <ele>190</ele>
        <time>2014-06-15T16:03:28+0200</time>
      </trkpt>
      <trkpt lat="47.00818" lon="5.38744">
        <ele>189</ele>
        <time>2014-06-15T16:03:43+0200</time>
      </trkpt>
      <trkpt lat="47.00867" lon="5.3865">
        <ele>190</ele>
        <time>2014-06-15T16:03:59+0200</time>
      </trkpt>
      <trkpt lat="47.00924" lon="5.38619">
        <ele>190</ele>
        <time>2014-06-15T16:04:14+0200</time>
      </trkpt>
      <trkpt lat="47.00938" lon="5.38666">
        <ele>190</ele>
        <time>2014-06-15T16:04:30+0200</time>
      </trkpt>
      <trkpt lat="47.0092" lon="5.38791">
        <ele>190</ele>
        <time>2014-06-15T16:04:46+0200</time>
      </trkpt>
      <trkpt lat="47.00967" lon="5.38825">
        <ele>190</ele>
        <time>2014-06-15T16:05:02+0200</time>
      </trkpt>
      <trkpt lat="47.01024" lon="5.38841">
        <ele>189</ele>
        <time>2014-06-15T16:05:17+0200</time>
      </trkpt>
      <trkpt lat="47.0108" lon="5.38883">
        <ele>189</ele>
        <time>2014-06-15T16:05:32+0200</time>
      </trkpt>
      <trkpt lat="47.01136" lon="5.38901">
        <ele>189</ele>
        <time>2014-06-15T16:05:48+0200</time>
      </trkpt>
      <trkpt lat="47.01192" lon="5.38919">
        <ele>189</ele>
        <time>2014-06-15T16:06:04+0200</time>
      </trkpt>
      <trkpt lat="47.01252" lon="5.38966">
        <ele>189</ele>
        <time>2014-06-15T16:06:20+0200</time>
      </trkpt>
      <trkpt lat="47.01306" lon="5.39006">
        <ele>189</ele>
        <time>2014-06-15T16:06:35+0200</time>
      </trkpt>
      <trkpt lat="47.01364" lon="5.3905">
        <ele>189</ele>
        <time>2014-06-15T16:06:51+0200</time>
      </trkpt>
      <trkpt lat="47.01424" lon="5.39095">
        <ele>188</ele>
        <time>2014-06-15T16:07:07+0200</time>
      </trkpt>
      <trkpt lat="47.01481" lon="5.39136">
        <ele>189</ele>
        <time>2014-06-15T16:07:23+0200</time>
      </trkpt>
      <trkpt lat="47.01536" lon="5.39177">
        <ele>189</ele>
        <time>2014-06-15T16:07:38+0200</time>
      </trkpt>
      <trkpt lat="47.01589" lon="5.39215">
        <ele>188</ele>
        <time>2014-06-15T16:07:53+0200</time>
      </trkpt>
      <trkpt lat="47.01644" lon="5.39266">
        <ele>188</ele>
        <time>2014-06-15T16:08:09+0200</time>
      </trkpt>
      <trkpt lat="47.01691" lon="5.39314">
        <ele>188</ele>
        <time>2014-06-15T16:08:24+0200</time>
      </trkpt>
      <trkpt lat="47.01747" lon="5.39363">
        <ele>188</ele>
        <time>2014-06-15T16:08:40+0200</time>
      </trkpt>
      <trkpt lat="47.01795" lon="5.39407">
        <ele>188</ele>
        <time>2014-06-15T16:08:55+0200</time>
      </trkpt>
      <trkpt lat="47.01848" lon="5.39448">
        <ele>189</ele>
        <time>2014-06-15T16:09:11+0200</time>
      </trkpt>
      <trkpt lat="47.01903" lon="5.39495">
        <ele>189</ele>
        <time>2014-06-15T16:09:27+0200</time>
      </trkpt>
      <trkpt lat="47.01957" lon="5.39546">
        <ele>189</ele>
        <time>2014-06-15T16:09:43+0200</time>
      </trkpt>
      <trkpt lat="47.02008" lon="5.39598">
        <ele>188</ele>
        <time>2014-06-15T16:09:59+0200</time>
      </trkpt>
      <trkpt lat="47.02054" lon="5.39653">
        <ele>189</ele>
        <time>2014-06-15T16:10:14+0200</time>
      </trkpt>
      <trkpt lat="47.02091" lon="5.39717">
        <ele>190</ele>
        <time>2014-06-15T16:10:30+0200</time>
      </trkpt>
      <trkpt lat="47.02133" lon="5.39763">
        <ele>190</ele>
        <time>2014-06-15T16:10:45+0200</time>
      </trkpt>
      <trkpt lat="47.02176" lon="5.39806">
        <ele>189</ele>
        <time>2014-06-15T16:11:00+0200</time>
      </trkpt>
      <trkpt lat="47.02223" lon="5.39858">
        <ele>188</ele>
        <time>2014-06-15T16:11:16+0200</time>
      </trkpt>
      <trkpt lat="47.02272" lon="5.39909">
        <ele>189</ele>
        <time>2014-06-15T16:11:31+0200</time>
      </trkpt>
      <trkpt lat="47.02322" lon="5.39958">
        <ele>190</ele>
        <time>2014-06-15T16:11:47+0200</time>
      </trkpt>
      <trkpt lat="47.02371" lon="5.40003">
        <ele>189</ele>
        <time>2014-06-15T16:12:02+0200</time>
      </trkpt>
      <trkpt lat="47.02422" lon="5.4005">
        <ele>189</ele>
        <time>2014-06-15T16:12:17+0200</time>
      </trkpt>
      <trkpt lat="47.02476" lon="5.40099">
        <ele>189</ele>
        <time>2014-06-15T16:12:33+0200</time>
      </trkpt>
      <trkpt lat="47.02528" lon="5.40147">
        <ele>190</ele>
        <time>2014-06-15T16:12:48+0200</time>
      </trkpt>
      <trkpt lat="47.0258" lon="5.40194">
        <ele>191</ele>
        <time>2014-06-15T16:13:03+0200</time>
      </trkpt>
      <trkpt lat="47.0263" lon="5.4024">
        <ele>190</ele>
        <time>2014-06-15T16:13:18+0200</time>
      </trkpt>
      <trkpt lat="47.02685" lon="5.40281">
        <ele>190</ele>
        <time>2014-06-15T16:13:34+0200</time>
      </trkpt>
      <trkpt lat="47.02741" lon="5.40321">
        <ele>189</ele>
        <time>2014-06-15T16:13:50+0200</time>
      </trkpt>
      <trkpt lat="47.02796" lon="5.40361">
        <ele>189</ele>
        <time>2014-06-15T16:14:06+0200</time>
      </trkpt>
      <trkpt lat="47.02854" lon="5.40402">
        <ele>190</ele>
        <time>2014-06-15T16:14:22+0200</time>
      </trkpt>
      <trkpt lat="47.02904" lon="5.40436">
        <ele>190</ele>
        <time>2014-06-15T16:14:38+0200</time>
      </trkpt>
      <trkpt lat="47.02953" lon="5.4047">
        <ele>190</ele>
        <time>2014-06-15T16:14:53+0200</time>
      </trkpt>
      <trkpt lat="47.03" lon="5.40504">
        <ele>190</ele>
        <time>2014-06-15T16:15:08+0200</time>
      </trkpt>
      <trkpt lat="47.03049" lon="5.40541">
        <ele>190</ele>
        <time>2014-06-15T16:15:24+0200</time>
      </trkpt>
      <trkpt lat="47.03091" lon="5.40583">
        <ele>190</ele>
        <time>2014-06-15T16:15:39+0200</time>
      </trkpt>
      <trkpt lat="47.03117" lon="5.40634">
        <ele>191</ele>
        <time>2014-06-15T16:15:54+0200</time>
      </trkpt>
      <trkpt lat="47.03092" lon="5.40704">
        <ele>191</ele>
        <time>2014-06-15T16:16:10+0200</time>
      </trkpt>
      <trkpt lat="47.03061" lon="5.40744">
        <ele>191</ele>
        <time>2014-06-15T16:16:25+0200</time>
      </trkpt>
      <trkpt lat="47.03053" lon="5.40805">
        <ele>190</ele>
        <time>2014-06-15T16:16:41+0200</time>
      </trkpt>
      <trkpt lat="47.03076" lon="5.40789">
        <ele>190</ele>
        <time>2014-06-15T16:16:56+0200</time>
      </trkpt>
      <trkpt lat="47.03119" lon="5.40735">
        <ele>191</ele>
        <time>2014-06-15T16:17:11+0200</time>
      </trkpt>
      <trkpt lat="47.03161" lon="5.4072">
        <ele>192</ele>
        <time>2014-06-15T16:17:27+0200</time>
      </trkpt>
      <trkpt lat="47.03208" lon="5.40713">
        <ele>192</ele>
        <time>2014-06-15T16:17:43+0200</time>
      </trkpt>
      <trkpt lat="47.0327" lon="5.40761">
        <ele>192</ele>
        <time>2014-06-15T16:17:58+0200</time>
      </trkpt>
      <trkpt lat="47.03326" lon="5.40814">
        <ele>192</ele>
        <time>2014-06-15T16:18:13+0200</time>
      </trkpt>
      <trkpt lat="47.03362" lon="5.40755">
        <ele>192</ele>
        <time>2014-06-15T16:18:29+0200</time>
      </trkpt>
      <trkpt lat="47.03407" lon="5.40683">
        <ele>192</ele>
        <time>2014-06-15T16:18:44+0200</time>
      </trkpt>
      <trkpt lat="47.03444" lon="5.40628">
        <ele>192</ele>
        <time>2014-06-15T16:18:59+0200</time>
      </trkpt>
      <trkpt lat="47.03454" lon="5.4063">
        <ele>192</ele>
        <time>2014-06-15T16:19:15+0200</time>
      </trkpt>
      <trkpt lat="47.03439" lon="5.40639">
        <ele>192</ele>
        <time>2014-06-15T16:19:31+0200</time>
      </trkpt>
      <trkpt lat="47.03406" lon="5.40696">
        <ele>192</ele>
        <time>2014-06-15T16:19:46+0200</time>
      </trkpt>
      <trkpt lat="47.03386" lon="5.40722">
        <ele>192</ele>
        <time>2014-06-15T16:20:02+0200</time>
      </trkpt>
      <trkpt lat="47.03416" lon="5.40671">
        <ele>192</ele>
        <time>2014-06-15T16:20:17+0200</time>
      </trkpt>
      <trkpt lat="47.03394" lon="5.40707">
        <ele>192</ele>
        <time>2014-06-15T16:20:33+0200</time>
      </trkpt>
      <trkpt lat="47.03397" lon="5.40711">
        <ele>192</ele>
        <time>2014-06-15T16:20:48+0200</time>
      </trkpt>
      <trkpt lat="47.03397" lon="5.40711">
        <ele>192</ele>
        <time>2014-06-15T16:21:04+0200</time>
      </trkpt>
      <trkpt lat="47.03397" lon="5.40711">
        <ele>192</ele>
        <time>2014-06-15T16:21:19+0200</time>
      </trkpt>
      <trkpt lat="47.03396" lon="5.40715">
        <ele>192</ele>
        <time>2014-06-15T16:21:35+0200</time>
      </trkpt>
      <trkpt lat="47.03396" lon="5.40715">
        <ele>192</ele>
        <time>2014-06-15T16:21:51+0200</time>
      </trkpt>
      <trkpt lat="47.03396" lon="5.40715">
        <ele>192</ele>
        <time>2014-06-15T16:22:06+0200</time>
      </trkpt>
      <trkpt lat="47.03397" lon="5.40715">
        <ele>192</ele>
        <time>2014-06-15T16:22:22+0200</time>
      </trkpt>
      <trkpt lat="47.03396" lon="5.40715">
        <ele>192</ele>
        <time>2014-06-15T16:22:38+0200</time>
      </trkpt>
      <trkpt lat="47.03397" lon="5.40718">
        <ele>192</ele>
        <time>2014-06-15T16:22:54+0200</time>
      </trkpt>
      <trkpt lat="47.03396" lon="5.40718">
        <ele>192</ele>
        <time>2014-06-15T16:23:09+0200</time>
      </trkpt>
      <trkpt lat="47.03396" lon="5.40718">
        <ele>192</ele>
        <time>2014-06-15T16:23:24+0200</time>
      </trkpt>
      <trkpt lat="47.03397" lon="5.4072">
        <ele>192</ele>
        <time>2014-06-15T16:23:39+0200</time>
      </trkpt>
      <trkpt lat="47.03397" lon="5.4072">
        <ele>192</ele>
        <time>2014-06-15T16:23:55+0200</time>
      </trkpt>
      <trkpt lat="47.03396" lon="5.4072">
        <ele>192</ele>
        <time>2014-06-15T16:24:10+0200</time>
      </trkpt>
      <trkpt lat="47.03397" lon="5.4072">
        <ele>192</ele>
        <time>2014-06-15T16:24:25+0200</time>
      </trkpt>
      <trkpt lat="47.03397" lon="5.4072">
        <ele>192</ele>
        <time>2014-06-15T16:24:41+0200</time>
      </trkpt>
      <trkpt lat="47.03397" lon="5.4072">
        <ele>192</ele>
        <time>2014-06-15T16:24:56+0200</time>
      </trkpt>
      <trkpt lat="47.03396" lon="5.4072">
        <ele>192</ele>
        <time>2014-06-15T16:25:11+0200</time>
      </trkpt>
      <trkpt lat="47.03397" lon="5.40719">
        <ele>192</ele>
        <time>2014-06-15T16:25:27+0200</time>
      </trkpt>
      <trkpt lat="47.03397" lon="5.4072">
        <ele>192</ele>
        <time>2014-06-15T16:25:43+0200</time>
      </trkpt>
      <trkpt lat="47.03397" lon="5.4072">
        <ele>192</ele>
        <time>2014-06-15T16:25:58+0200</time>
      </trkpt>
      <trkpt lat="47.03396" lon="5.4072">
        <ele>192</ele>
        <time>2014-06-15T16:26:14+0200</time>
      </trkpt>
      <trkpt lat="47.03397" lon="5.4072">
        <ele>192</ele>
        <time>2014-06-15T16:26:30+0200</time>
      </trkpt>
      <trkpt lat="47.03381" lon="5.40728">
        <ele>192</ele>
        <time>2014-06-15T16:26:46+0200</time>
      </trkpt>
      <trkpt lat="47.03355" lon="5.40759">
        <ele>192</ele>
        <time>2014-06-15T16:27:01+0200</time>
      </trkpt>
      <trkpt lat="47.03352" lon="5.40763">
        <ele>192</ele>
        <time>2014-06-15T16:27:17+0200</time>
      </trkpt>
      <trkpt lat="47.03384" lon="5.40723">
        <ele>192</ele>
        <time>2014-06-15T16:27:32+0200</time>
      </trkpt>
      <trkpt lat="47.0339" lon="5.40726">
        <ele>192</ele>
        <time>2014-06-15T16:27:47+0200</time>
      </trkpt>
      <trkpt lat="47.0339" lon="5.40726">
        <ele>192</ele>
        <time>2014-06-15T16:28:03+0200</time>
      </trkpt>
      <trkpt lat="47.0339" lon="5.40726">
        <ele>192</ele>
        <time>2014-06-15T16:28:18+0200</time>
      </trkpt>
      <trkpt lat="47.0339" lon="5.40726">
        <ele>192</ele>
        <time>2014-06-15T16:28:34+0200</time>
      </trkpt>
      <trkpt lat="47.0339" lon="5.40726">
        <ele>192</ele>
        <time>2014-06-15T16:28:49+0200</time>
      </trkpt>
      <trkpt lat="47.0339" lon="5.40726">
        <ele>192</ele>
        <time>2014-06-15T16:29:04+0200</time>
      </trkpt>
      <trkpt lat="47.03401" lon="5.40718">
        <ele>192</ele>
        <time>2014-06-15T16:29:20+0200</time>
      </trkpt>
      <trkpt lat="47.03401" lon="5.40718">
        <ele>192</ele>
        <time>2014-06-15T16:29:36+0200</time>
      </trkpt>
      <trkpt lat="47.034" lon="5.40718">
        <ele>192</ele>
        <time>2014-06-15T16:29:52+0200</time>
      </trkpt>
      <trkpt lat="47.03401" lon="5.40718">
        <ele>192</ele>
        <time>2014-06-15T16:30:08+0200</time>
      </trkpt>
      <trkpt lat="47.034" lon="5.40718">
        <ele>192</ele>
        <time>2014-06-15T16:30:23+0200</time>
      </trkpt>
      <trkpt lat="47.034" lon="5.40718">
        <ele>192</ele>
        <time>2014-06-15T16:30:39+0200</time>
      </trkpt>
      <trkpt lat="47.034" lon="5.40718">
        <ele>192</ele>
        <time>2014-06-15T16:30:55+0200</time>
      </trkpt>
      <trkpt lat="47.034" lon="5.40718">
        <ele>192</ele>
        <time>2014-06-15T16:31:10+0200</time>
      </trkpt>
      <trkpt lat="47.03401" lon="5.40718">
        <ele>192</ele>
        <time>2014-06-15T16:31:25+0200</time>
      </trkpt>
      <trkpt lat="47.034" lon="5.40718">
        <ele>192</ele>
        <time>2014-06-15T16:31:41+0200</time>
      </trkpt>
      <trkpt lat="47.034" lon="5.40718">
        <ele>192</ele>
        <time>2014-06-15T16:31:56+0200</time>
      </trkpt>
      <trkpt lat="47.034" lon="5.40718">
        <ele>192</ele>
        <time>2014-06-15T16:32:11+0200</time>
      </trkpt>
      <trkpt lat="47.034" lon="5.40718">
        <ele>192</ele>
        <time>2014-06-15T16:32:26+0200</time>
      </trkpt>
      <trkpt lat="47.034" lon="5.40718">
        <ele>192</ele>
        <time>2014-06-15T16:32:42+0200</time>
      </trkpt>
      <trkpt lat="47.03401" lon="5.40718">
        <ele>192</ele>
        <time>2014-06-15T16:32:58+0200</time>
      </trkpt>
      <trkpt lat="47.034" lon="5.40718">
        <ele>192</ele>
        <time>2014-06-15T16:33:14+0200</time>
      </trkpt>
      <trkpt lat="47.0342" lon="5.4076">
        <ele>192</ele>
        <time>2014-06-15T16:33:30+0200</time>
      </trkpt>
      <trkpt lat="47.03458" lon="5.40804">
        <ele>193</ele>
        <time>2014-06-15T16:33:46+0200</time>
      </trkpt>
      <trkpt lat="47.03494" lon="5.40852">
        <ele>193</ele>
        <time>2014-06-15T16:34:02+0200</time>
      </trkpt>
      <trkpt lat="47.03528" lon="5.40899">
        <ele>193</ele>
        <time>2014-06-15T16:34:18+0200</time>
      </trkpt>
      <trkpt lat="47.03559" lon="5.40944">
        <ele>192</ele>
        <time>2014-06-15T16:34:33+0200</time>
      </trkpt>
      <trkpt lat="47.03584" lon="5.40979">
        <ele>192</ele>
        <time>2014-06-15T16:34:48+0200</time>
      </trkpt>
      <trkpt lat="47.0362" lon="5.41015">
        <ele>192</ele>
        <time>2014-06-15T16:35:04+0200</time>
      </trkpt>
      <trkpt lat="47.03659" lon="5.41058">
        <ele>192</ele>
        <time>2014-06-15T16:35:19+0200</time>
      </trkpt>
      <trkpt lat="47.03694" lon="5.4111">
        <ele>191</ele>
        <time>2014-06-15T16:35:35+0200</time>
      </trkpt>
      <trkpt lat="47.03725" lon="5.41157">
        <ele>191</ele>
        <time>2014-06-15T16:35:51+0200</time>
      </trkpt>
      <trkpt lat="47.03764" lon="5.41213">
        <ele>192</ele>
        <time>2014-06-15T16:36:07+0200</time>
      </trkpt>
      <trkpt lat="47.03814" lon="5.4127">
        <ele>192</ele>
        <time>2014-06-15T16:36:23+0200</time>
      </trkpt>
      <trkpt lat="47.03854" lon="5.41302">
        <ele>192</ele>
        <time>2014-06-15T16:36:38+0200</time>
      </trkpt>
      <trkpt lat="47.03862" lon="5.41287">
        <ele>192</ele>
        <time>2014-06-15T16:36:54+0200</time>
      </trkpt>
      <trkpt lat="47.03883" lon="5.41273">
        <ele>192</ele>
        <time>2014-06-15T16:37:10+0200</time>
      </trkpt>
      <trkpt lat="47.03948" lon="5.41274">
        <ele>191</ele>
        <time>2014-06-15T16:37:25+0200</time>
      </trkpt>
      <trkpt lat="47.04" lon="5.41279">
        <ele>191</ele>
        <time>2014-06-15T16:37:41+0200</time>
      </trkpt>
      <trkpt lat="47.04049" lon="5.41277">
        <ele>192</ele>
        <time>2014-06-15T16:37:56+0200</time>
      </trkpt>
      <trkpt lat="47.04101" lon="5.41278">
        <ele>192</ele>
        <time>2014-06-15T16:38:12+0200</time>
      </trkpt>
      <trkpt lat="47.04144" lon="5.4128">
        <ele>192</ele>
        <time>2014-06-15T16:38:27+0200</time>
      </trkpt>
      <trkpt lat="47.04192" lon="5.4128">
        <ele>193</ele>
        <time>2014-06-15T16:38:43+0200</time>
      </trkpt>
      <trkpt lat="47.04234" lon="5.41283">
        <ele>194</ele>
        <time>2014-06-15T16:38:59+0200</time>
      </trkpt>
      <trkpt lat="47.04281" lon="5.41279">
        <ele>194</ele>
        <time>2014-06-15T16:39:14+0200</time>
      </trkpt>
      <trkpt lat="47.04329" lon="5.41285">
        <ele>193</ele>
        <time>2014-06-15T16:39:30+0200</time>
      </trkpt>
      <trkpt lat="47.04376" lon="5.41285">
        <ele>193</ele>
        <time>2014-06-15T16:39:45+0200</time>
      </trkpt>
      <trkpt lat="47.04431" lon="5.41292">
        <ele>192</ele>
        <time>2014-06-15T16:40:00+0200</time>
      </trkpt>
      <trkpt lat="47.04493" lon="5.41307">
        <ele>191</ele>
        <time>2014-06-15T16:40:16+0200</time>
      </trkpt>
      <trkpt lat="47.04547" lon="5.41322">
        <ele>191</ele>
        <time>2014-06-15T16:40:32+0200</time>
      </trkpt>
      <trkpt lat="47.04603" lon="5.41341">
        <ele>192</ele>
        <time>2014-06-15T16:40:48+0200</time>
      </trkpt>
      <trkpt lat="47.04656" lon="5.41364">
        <ele>193</ele>
        <time>2014-06-15T16:41:03+0200</time>
      </trkpt>
      <trkpt lat="47.04717" lon="5.41387">
        <ele>192</ele>
        <time>2014-06-15T16:41:19+0200</time>
      </trkpt>
      <trkpt lat="47.04768" lon="5.41398">
        <ele>192</ele>
        <time>2014-06-15T16:41:34+0200</time>
      </trkpt>
      <trkpt lat="47.04824" lon="5.41399">
        <ele>192</ele>
        <time>2014-06-15T16:41:50+0200</time>
      </trkpt>
      <trkpt lat="47.04839" lon="5.41428">
        <ele>192</ele>
        <time>2014-06-15T16:42:06+0200</time>
      </trkpt>
      <trkpt lat="47.04866" lon="5.41403">
        <ele>192</ele>
        <time>2014-06-15T16:42:21+0200</time>
      </trkpt>
      <trkpt lat="47.04925" lon="5.41398">
        <ele>192</ele>
        <time>2014-06-15T16:42:36+0200</time>
      </trkpt>
      <trkpt lat="47.04989" lon="5.41395">
        <ele>191</ele>
        <time>2014-06-15T16:42:51+0200</time>
      </trkpt>
      <trkpt lat="47.05048" lon="5.414">
        <ele>192</ele>
        <time>2014-06-15T16:43:07+0200</time>
      </trkpt>
      <trkpt lat="47.05092" lon="5.41396">
        <ele>193</ele>
        <time>2014-06-15T16:43:23+0200</time>
      </trkpt>
      <trkpt lat="47.05156" lon="5.41394">
        <ele>193</ele>
        <time>2014-06-15T16:43:38+0200</time>
      </trkpt>
      <trkpt lat="47.05211" lon="5.41399">
        <ele>193</ele>
        <time>2014-06-15T16:43:54+0200</time>
      </trkpt>
      <trkpt lat="47.05251" lon="5.41409">
        <ele>193</ele>
        <time>2014-06-15T16:44:10+0200</time>
      </trkpt>
      <trkpt lat="47.0532" lon="5.41399">
        <ele>195</ele>
        <time>2014-06-15T16:44:25+0200</time>
      </trkpt>
      <trkpt lat="47.05383" lon="5.41398">
        <ele>196</ele>
        <time>2014-06-15T16:44:41+0200</time>
      </trkpt>
      <trkpt lat="47.0545" lon="5.41397">
        <ele>196</ele>
        <time>2014-06-15T16:44:57+0200</time>
      </trkpt>
      <trkpt lat="47.05499" lon="5.41398">
        <ele>196</ele>
        <time>2014-06-15T16:45:13+0200</time>
      </trkpt>
      <trkpt lat="47.05563" lon="5.41399">
        <ele>196</ele>
        <time>2014-06-15T16:45:28+0200</time>
      </trkpt>
      <trkpt lat="47.0562" lon="5.41402">
        <ele>196</ele>
        <time>2014-06-15T16:45:44+0200</time>
      </trkpt>
      <trkpt lat="47.05656" lon="5.41429">
        <ele>195</ele>
        <time>2014-06-15T16:46:00+0200</time>
      </trkpt>
      <trkpt lat="47.05702" lon="5.41401">
        <ele>196</ele>
        <time>2014-06-15T16:46:15+0200</time>
      </trkpt>
      <trkpt lat="47.05759" lon="5.41389">
        <ele>195</ele>
        <time>2014-06-15T16:46:30+0200</time>
      </trkpt>
      <trkpt lat="47.05796" lon="5.41329">
        <ele>196</ele>
        <time>2014-06-15T16:46:46+0200</time>
      </trkpt>
      <trkpt lat="47.05844" lon="5.41284">
        <ele>196</ele>
        <time>2014-06-15T16:47:02+0200</time>
      </trkpt>
      <trkpt lat="47.05898" lon="5.41276">
        <ele>196</ele>
        <time>2014-06-15T16:47:17+0200</time>
      </trkpt>
      <trkpt lat="47.05939" lon="5.41278">
        <ele>197</ele>
        <time>2014-06-15T16:47:32+0200</time>
      </trkpt>
      <trkpt lat="47.05937" lon="5.41348">
        <ele>196</ele>
        <time>2014-06-15T16:47:47+0200</time>
      </trkpt>
      <trkpt lat="47.05939" lon="5.41363">
        <ele>197</ele>
        <time>2014-06-15T16:48:03+0200</time>
      </trkpt>
      <trkpt lat="47.05939" lon="5.41368">
        <ele>197</ele>
        <time>2014-06-15T16:48:19+0200</time>
      </trkpt>
      <trkpt lat="47.05943" lon="5.41369">
        <ele>197</ele>
        <time>2014-06-15T16:48:35+0200</time>
      </trkpt>
      <trkpt lat="47.05952" lon="5.41367">
        <ele>197</ele>
        <time>2014-06-15T16:48:51+0200</time>
      </trkpt>
      <trkpt lat="47.05947" lon="5.41371">
        <ele>197</ele>
        <time>2014-06-15T16:49:06+0200</time>
      </trkpt>
      <trkpt lat="47.05945" lon="5.41359">
        <ele>197</ele>
        <time>2014-06-15T16:49:22+0200</time>
      </trkpt>
      <trkpt lat="47.05936" lon="5.41365">
        <ele>196</ele>
        <time>2014-06-15T16:49:37+0200</time>
      </trkpt>
      <trkpt lat="47.05937" lon="5.41362">
        <ele>196</ele>
        <time>2014-06-15T16:49:53+0200</time>
      </trkpt>
      <trkpt lat="47.05937" lon="5.41363">
        <ele>196</ele>
        <time>2014-06-15T16:50:08+0200</time>
      </trkpt>
      <trkpt lat="47.05937" lon="5.41363">
        <ele>196</ele>
        <time>2014-06-15T16:50:23+0200</time>
      </trkpt>
      <trkpt lat="47.05937" lon="5.41363">
        <ele>196</ele>
        <time>2014-06-15T16:50:39+0200</time>
      </trkpt>
      <trkpt lat="47.05938" lon="5.41367">
        <ele>196</ele>
        <time>2014-06-15T16:50:54+0200</time>
      </trkpt>
      <trkpt lat="47.05938" lon="5.41368">
        <ele>196</ele>
        <time>2014-06-15T16:51:10+0200</time>
      </trkpt>
      <trkpt lat="47.05937" lon="5.41365">
        <ele>196</ele>
        <time>2014-06-15T16:51:26+0200</time>
      </trkpt>
      <trkpt lat="47.05937" lon="5.41365">
        <ele>196</ele>
        <time>2014-06-15T16:51:41+0200</time>
      </trkpt>
      <trkpt lat="47.05937" lon="5.41367">
        <ele>196</ele>
        <time>2014-06-15T16:51:56+0200</time>
      </trkpt>
      <trkpt lat="47.05937" lon="5.41367">
        <ele>196</ele>
        <time>2014-06-15T16:52:12+0200</time>
      </trkpt>
      <trkpt lat="47.05937" lon="5.41367">
        <ele>196</ele>
        <time>2014-06-15T16:52:27+0200</time>
      </trkpt>
      <trkpt lat="47.05937" lon="5.41367">
        <ele>196</ele>
        <time>2014-06-15T16:52:43+0200</time>
      </trkpt>
      <trkpt lat="47.05936" lon="5.41367">
        <ele>196</ele>
        <time>2014-06-15T16:52:58+0200</time>
      </trkpt>
      <trkpt lat="47.05936" lon="5.41368">
        <ele>196</ele>
        <time>2014-06-15T16:53:13+0200</time>
      </trkpt>
      <trkpt lat="47.05936" lon="5.41368">
        <ele>196</ele>
        <time>2014-06-15T16:53:28+0200</time>
      </trkpt>
      <trkpt lat="47.05937" lon="5.41371">
        <ele>196</ele>
        <time>2014-06-15T16:53:44+0200</time>
      </trkpt>
      <trkpt lat="47.05938" lon="5.41373">
        <ele>196</ele>
        <time>2014-06-15T16:53:59+0200</time>
      </trkpt>
      <trkpt lat="47.05937" lon="5.41366">
        <ele>196</ele>
        <time>2014-06-15T16:54:15+0200</time>
      </trkpt>
      <trkpt lat="47.05937" lon="5.41366">
        <ele>196</ele>
        <time>2014-06-15T16:54:30+0200</time>
      </trkpt>
      <trkpt lat="47.05934" lon="5.41361">
        <ele>196</ele>
        <time>2014-06-15T16:54:46+0200</time>
      </trkpt>
      <trkpt lat="47.05934" lon="5.41361">
        <ele>196</ele>
        <time>2014-06-15T16:55:01+0200</time>
      </trkpt>
      <trkpt lat="47.05934" lon="5.4136">
        <ele>196</ele>
        <time>2014-06-15T16:55:17+0200</time>
      </trkpt>
      <trkpt lat="47.05935" lon="5.41364">
        <ele>196</ele>
        <time>2014-06-15T16:55:33+0200</time>
      </trkpt>
      <trkpt lat="47.05938" lon="5.41368">
        <ele>196</ele>
        <time>2014-06-15T16:55:48+0200</time>
      </trkpt>
      <trkpt lat="47.05941" lon="5.41419">
        <ele>196</ele>
        <time>2014-06-15T16:56:04+0200</time>
      </trkpt>
      <trkpt lat="47.05942" lon="5.4152">
        <ele>198</ele>
        <time>2014-06-15T16:56:19+0200</time>
      </trkpt>
      <trkpt lat="47.05948" lon="5.41618">
        <ele>199</ele>
        <time>2014-06-15T16:56:34+0200</time>
      </trkpt>
      <trkpt lat="47.05951" lon="5.41721">
        <ele>199</ele>
        <time>2014-06-15T16:56:50+0200</time>
      </trkpt>
      <trkpt lat="47.05941" lon="5.41824">
        <ele>197</ele>
        <time>2014-06-15T16:57:05+0200</time>
      </trkpt>
      <trkpt lat="47.05961" lon="5.41932">
        <ele>197</ele>
        <time>2014-06-15T16:57:21+0200</time>
      </trkpt>
      <trkpt lat="47.05956" lon="5.42037">
        <ele>197</ele>
        <time>2014-06-15T16:57:37+0200</time>
      </trkpt>
      <trkpt lat="47.05956" lon="5.42137">
        <ele>197</ele>
        <time>2014-06-15T16:57:52+0200</time>
      </trkpt>
      <trkpt lat="47.05954" lon="5.42247">
        <ele>197</ele>
        <time>2014-06-15T16:58:08+0200</time>
      </trkpt>
      <trkpt lat="47.05955" lon="5.42354">
        <ele>198</ele>
        <time>2014-06-15T16:58:24+0200</time>
      </trkpt>
      <trkpt lat="47.05951" lon="5.42463">
        <ele>196</ele>
        <time>2014-06-15T16:58:40+0200</time>
      </trkpt>
      <trkpt lat="47.05949" lon="5.42559">
        <ele>194</ele>
        <time>2014-06-15T16:58:55+0200</time>
      </trkpt>
      <trkpt lat="47.05941" lon="5.42658">
        <ele>193</ele>
        <time>2014-06-15T16:59:11+0200</time>
      </trkpt>
      <trkpt lat="47.05955" lon="5.42669">
        <ele>193</ele>
        <time>2014-06-15T16:59:27+0200</time>
      </trkpt>
      <trkpt lat="47.05951" lon="5.42674">
        <ele>193</ele>
        <time>2014-06-15T16:59:43+0200</time>
      </trkpt>
      <trkpt lat="47.05956" lon="5.42676">
        <ele>193</ele>
        <time>2014-06-15T16:59:59+0200</time>
      </trkpt>
      <trkpt lat="47.05967" lon="5.42782">
        <ele>194</ele>
        <time>2014-06-15T17:00:15+0200</time>
      </trkpt>
      <trkpt lat="47.05969" lon="5.42901">
        <ele>195</ele>
        <time>2014-06-15T17:00:30+0200</time>
      </trkpt>
      <trkpt lat="47.05968" lon="5.43009">
        <ele>195</ele>
        <time>2014-06-15T17:00:45+0200</time>
      </trkpt>
      <trkpt lat="47.05966" lon="5.43123">
        <ele>193</ele>
        <time>2014-06-15T17:01:01+0200</time>
      </trkpt>
      <trkpt lat="47.05967" lon="5.43229">
        <ele>193</ele>
        <time>2014-06-15T17:01:17+0200</time>
      </trkpt>
      <trkpt lat="47.05971" lon="5.43343">
        <ele>194</ele>
        <time>2014-06-15T17:01:32+0200</time>
      </trkpt>
      <trkpt lat="47.05968" lon="5.43457">
        <ele>193</ele>
        <time>2014-06-15T17:01:47+0200</time>
      </trkpt>
      <trkpt lat="47.05969" lon="5.43565">
        <ele>193</ele>
        <time>2014-06-15T17:02:03+0200</time>
      </trkpt>
      <trkpt lat="47.0597" lon="5.43658">
        <ele>195</ele>
        <time>2014-06-15T17:02:18+0200</time>
      </trkpt>
      <trkpt lat="47.05969" lon="5.43721">
        <ele>196</ele>
        <time>2014-06-15T17:02:34+0200</time>
      </trkpt>
      <trkpt lat="47.0595" lon="5.43821">
        <ele>195</ele>
        <time>2014-06-15T17:02:49+0200</time>
      </trkpt>
      <trkpt lat="47.05897" lon="5.43892">
        <ele>194</ele>
        <time>2014-06-15T17:03:05+0200</time>
      </trkpt>
      <trkpt lat="47.05856" lon="5.43958">
        <ele>193</ele>
        <time>2014-06-15T17:03:20+0200</time>
      </trkpt>
      <trkpt lat="47.05809" lon="5.44021">
        <ele>194</ele>
        <time>2014-06-15T17:03:35+0200</time>
      </trkpt>
      <trkpt lat="47.05758" lon="5.44089">
        <ele>195</ele>
        <time>2014-06-15T17:03:51+0200</time>
      </trkpt>
      <trkpt lat="47.05708" lon="5.44155">
        <ele>195</ele>
        <time>2014-06-15T17:04:06+0200</time>
      </trkpt>
      <trkpt lat="47.05662" lon="5.44205">
        <ele>196</ele>
        <time>2014-06-15T17:04:22+0200</time>
      </trkpt>
      <trkpt lat="47.0562" lon="5.44253">
        <ele>196</ele>
        <time>2014-06-15T17:04:37+0200</time>
      </trkpt>
      <trkpt lat="47.05574" lon="5.44312">
        <ele>196</ele>
        <time>2014-06-15T17:04:53+0200</time>
      </trkpt>
      <trkpt lat="47.05547" lon="5.44383">
        <ele>195</ele>
        <time>2014-06-15T17:05:08+0200</time>
      </trkpt>
      <trkpt lat="47.05558" lon="5.44469">
        <ele>195</ele>
        <time>2014-06-15T17:05:24+0200</time>
      </trkpt>
      <trkpt lat="47.05586" lon="5.44546">
        <ele>195</ele>
        <time>2014-06-15T17:05:40+0200</time>
      </trkpt>
      <trkpt lat="47.05605" lon="5.44625">
        <ele>195</ele>
        <time>2014-06-15T17:05:56+0200</time>
      </trkpt>
      <trkpt lat="47.05633" lon="5.447">
        <ele>195</ele>
        <time>2014-06-15T17:06:12+0200</time>
      </trkpt>
      <trkpt lat="47.05657" lon="5.4478">
        <ele>195</ele>
        <time>2014-06-15T17:06:28+0200</time>
      </trkpt>
      <trkpt lat="47.05677" lon="5.44853">
        <ele>195</ele>
        <time>2014-06-15T17:06:43+0200</time>
      </trkpt>
      <trkpt lat="47.05703" lon="5.44933">
        <ele>196</ele>
        <time>2014-06-15T17:06:59+0200</time>
      </trkpt>
      <trkpt lat="47.05732" lon="5.4501">
        <ele>196</ele>
        <time>2014-06-15T17:07:14+0200</time>
      </trkpt>
      <trkpt lat="47.05753" lon="5.45095">
        <ele>196</ele>
        <time>2014-06-15T17:07:30+0200</time>
      </trkpt>
      <trkpt lat="47.05778" lon="5.45177">
        <ele>197</ele>
        <time>2014-06-15T17:07:46+0200</time>
      </trkpt>
      <trkpt lat="47.05808" lon="5.45256">
        <ele>198</ele>
        <time>2014-06-15T17:08:01+0200</time>
      </trkpt>
      <trkpt lat="47.05836" lon="5.45347">
        <ele>199</ele>
        <time>2014-06-15T17:08:17+0200</time>
      </trkpt>
      <trkpt lat="47.05865" lon="5.45441">
        <ele>198</ele>
        <time>2014-06-15T17:08:33+0200</time>
      </trkpt>
      <trkpt lat="47.05893" lon="5.45532">
        <ele>197</ele>
        <time>2014-06-15T17:08:49+0200</time>
      </trkpt>
      <trkpt lat="47.05923" lon="5.45623">
        <ele>197</ele>
        <time>2014-06-15T17:09:05+0200</time>
      </trkpt>
      <trkpt lat="47.05952" lon="5.45717">
        <ele>197</ele>
        <time>2014-06-15T17:09:21+0200</time>
      </trkpt>
      <trkpt lat="47.05983" lon="5.45805">
        <ele>196</ele>
        <time>2014-06-15T17:09:36+0200</time>
      </trkpt>
      <trkpt lat="47.06007" lon="5.45904">
        <ele>198</ele>
        <time>2014-06-15T17:09:52+0200</time>
      </trkpt>
      <trkpt lat="47.06036" lon="5.45997">
        <ele>198</ele>
        <time>2014-06-15T17:10:08+0200</time>
      </trkpt>
      <trkpt lat="47.06068" lon="5.46072">
        <ele>199</ele>
        <time>2014-06-15T17:10:23+0200</time>
      </trkpt>
      <trkpt lat="47.06114" lon="5.46117">
        <ele>199</ele>
        <time>2014-06-15T17:10:39+0200</time>
      </trkpt>
      <trkpt lat="47.06166" lon="5.46154">
        <ele>200</ele>
        <time>2014-06-15T17:10:54+0200</time>
      </trkpt>
      <trkpt lat="47.06221" lon="5.46191">
        <ele>199</ele>
        <time>2014-06-15T17:11:09+0200</time>
      </trkpt>
      <trkpt lat="47.06283" lon="5.46228">
        <ele>198</ele>
        <time>2014-06-15T17:11:25+0200</time>
      </trkpt>
      <trkpt lat="47.0634" lon="5.46278">
        <ele>197</ele>
        <time>2014-06-15T17:11:41+0200</time>
      </trkpt>
      <trkpt lat="47.06401" lon="5.46328">
        <ele>197</ele>
        <time>2014-06-15T17:11:57+0200</time>
      </trkpt>
      <trkpt lat="47.06462" lon="5.46374">
        <ele>197</ele>
        <time>2014-06-15T17:12:13+0200</time>
      </trkpt>
      <trkpt lat="47.06521" lon="5.46422">
        <ele>197</ele>
        <time>2014-06-15T17:12:29+0200</time>
      </trkpt>
      <trkpt lat="47.06577" lon="5.46469">
        <ele>198</ele>
        <time>2014-06-15T17:12:45+0200</time>
      </trkpt>
      <trkpt lat="47.06634" lon="5.46514">
        <ele>199</ele>
        <time>2014-06-15T17:13:00+0200</time>
      </trkpt>
      <trkpt lat="47.06699" lon="5.46561">
        <ele>198</ele>
        <time>2014-06-15T17:13:16+0200</time>
      </trkpt>
      <trkpt lat="47.06754" lon="5.46605">
        <ele>197</ele>
        <time>2014-06-15T17:13:32+0200</time>
      </trkpt>
      <trkpt lat="47.06811" lon="5.46641">
        <ele>198</ele>
        <time>2014-06-15T17:13:47+0200</time>
      </trkpt>
      <trkpt lat="47.06869" lon="5.46687">
        <ele>200</ele>
        <time>2014-06-15T17:14:03+0200</time>
      </trkpt>
      <trkpt lat="47.0693" lon="5.46729">
        <ele>204</ele>
        <time>2014-06-15T17:14:19+0200</time>
      </trkpt>
      <trkpt lat="47.06986" lon="5.46773">
        <ele>203</ele>
        <time>2014-06-15T17:14:34+0200</time>
      </trkpt>
      <trkpt lat="47.0704" lon="5.46821">
        <ele>205</ele>
        <time>2014-06-15T17:14:50+0200</time>
      </trkpt>
      <trkpt lat="47.07096" lon="5.46865">
        <ele>207</ele>
        <time>2014-06-15T17:15:05+0200</time>
      </trkpt>
      <trkpt lat="47.07155" lon="5.46912">
        <ele>207</ele>
        <time>2014-06-15T17:15:21+0200</time>
      </trkpt>
      <trkpt lat="47.07205" lon="5.46969">
        <ele>204</ele>
        <time>2014-06-15T17:15:37+0200</time>
      </trkpt>
      <trkpt lat="47.07257" lon="5.47014">
        <ele>203</ele>
        <time>2014-06-15T17:15:52+0200</time>
      </trkpt>
      <trkpt lat="47.07312" lon="5.47051">
        <ele>204</ele>
        <time>2014-06-15T17:16:07+0200</time>
      </trkpt>
      <trkpt lat="47.07373" lon="5.47093">
        <ele>203</ele>
        <time>2014-06-15T17:16:23+0200</time>
      </trkpt>
      <trkpt lat="47.07427" lon="5.47139">
        <ele>206</ele>
        <time>2014-06-15T17:16:38+0200</time>
      </trkpt>
      <trkpt lat="47.07487" lon="5.47183">
        <ele>204</ele>
        <time>2014-06-15T17:16:54+0200</time>
      </trkpt>
      <trkpt lat="47.07544" lon="5.47227">
        <ele>207</ele>
        <time>2014-06-15T17:17:10+0200</time>
      </trkpt>
      <trkpt lat="47.07594" lon="5.47273">
        <ele>207</ele>
        <time>2014-06-15T17:17:25+0200</time>
      </trkpt>
      <trkpt lat="47.07642" lon="5.47342">
        <ele>202</ele>
        <time>2014-06-15T17:17:41+0200</time>
      </trkpt>
      <trkpt lat="47.07683" lon="5.47416">
        <ele>201</ele>
        <time>2014-06-15T17:17:56+0200</time>
      </trkpt>
      <trkpt lat="47.07723" lon="5.47487">
        <ele>197</ele>
        <time>2014-06-15T17:18:12+0200</time>
      </trkpt>
      <trkpt lat="47.07768" lon="5.4755">
        <ele>198</ele>
        <time>2014-06-15T17:18:27+0200</time>
      </trkpt>
      <trkpt lat="47.07815" lon="5.47622">
        <ele>197</ele>
        <time>2014-06-15T17:18:43+0200</time>
      </trkpt>
      <trkpt lat="47.0786" lon="5.47685">
        <ele>199</ele>
        <time>2014-06-15T17:18:58+0200</time>
      </trkpt>
      <trkpt lat="47.079" lon="5.47745">
        <ele>199</ele>
        <time>2014-06-15T17:19:13+0200</time>
      </trkpt>
      <trkpt lat="47.07941" lon="5.47814">
        <ele>200</ele>
        <time>2014-06-15T17:19:29+0200</time>
      </trkpt>
      <trkpt lat="47.0798" lon="5.47874">
        <ele>200</ele>
        <time>2014-06-15T17:19:44+0200</time>
      </trkpt>
      <trkpt lat="47.08021" lon="5.47931">
        <ele>200</ele>
        <time>2014-06-15T17:19:59+0200</time>
      </trkpt>
      <trkpt lat="47.08054" lon="5.47979">
        <ele>200</ele>
        <time>2014-06-15T17:20:14+0200</time>
      </trkpt>
      <trkpt lat="47.081" lon="5.48022">
        <ele>202</ele>
        <time>2014-06-15T17:20:30+0200</time>
      </trkpt>
      <trkpt lat="47.08135" lon="5.48066">
        <ele>203</ele>
        <time>2014-06-15T17:20:46+0200</time>
      </trkpt>
      <trkpt lat="47.08171" lon="5.48095">
        <ele>205</ele>
        <time>2014-06-15T17:21:01+0200</time>
      </trkpt>
      <trkpt lat="47.08203" lon="5.48141">
        <ele>206</ele>
        <time>2014-06-15T17:21:17+0200</time>
      </trkpt>
      <trkpt lat="47.08232" lon="5.48193">
        <ele>202</ele>
        <time>2014-06-15T17:21:32+0200</time>
      </trkpt>
      <trkpt lat="47.0827" lon="5.48253">
        <ele>201</ele>
        <time>2014-06-15T17:21:48+0200</time>
      </trkpt>
      <trkpt lat="47.08315" lon="5.4831">
        <ele>202</ele>
        <time>2014-06-15T17:22:04+0200</time>
      </trkpt>
      <trkpt lat="47.08363" lon="5.48366">
        <ele>205</ele>
        <time>2014-06-15T17:22:20+0200</time>
      </trkpt>
      <trkpt lat="47.08402" lon="5.48428">
        <ele>204</ele>
        <time>2014-06-15T17:22:35+0200</time>
      </trkpt>
      <trkpt lat="47.08441" lon="5.48496">
        <ele>208</ele>
        <time>2014-06-15T17:22:51+0200</time>
      </trkpt>
      <trkpt lat="47.08482" lon="5.48561">
        <ele>207</ele>
        <time>2014-06-15T17:23:06+0200</time>
      </trkpt>
      <trkpt lat="47.08522" lon="5.48633">
        <ele>206</ele>
        <time>2014-06-15T17:23:21+0200</time>
      </trkpt>
      <trkpt lat="47.08573" lon="5.48709">
        <ele>205</ele>
        <time>2014-06-15T17:23:37+0200</time>
      </trkpt>
      <trkpt lat="47.08611" lon="5.48788">
        <ele>210</ele>
        <time>2014-06-15T17:23:52+0200</time>
      </trkpt>
      <trkpt lat="47.08647" lon="5.48862">
        <ele>208</ele>
        <time>2014-06-15T17:24:07+0200</time>
      </trkpt>
      <trkpt lat="47.08681" lon="5.48951">
        <ele>208</ele>
        <time>2014-06-15T17:24:23+0200</time>
      </trkpt>
      <trkpt lat="47.08715" lon="5.49026">
        <ele>208</ele>
        <time>2014-06-15T17:24:38+0200</time>
      </trkpt>
      <trkpt lat="47.08748" lon="5.49104">
        <ele>207</ele>
        <time>2014-06-15T17:24:53+0200</time>
      </trkpt>
      <trkpt lat="47.08799" lon="5.49156">
        <ele>209</ele>
        <time>2014-06-15T17:25:09+0200</time>
      </trkpt>
      <trkpt lat="47.08848" lon="5.49183">
        <ele>207</ele>
        <time>2014-06-15T17:25:25+0200</time>
      </trkpt>
      <trkpt lat="47.0888" lon="5.49202">
        <ele>207</ele>
        <time>2014-06-15T17:25:40+0200</time>
      </trkpt>
      <trkpt lat="47.08896" lon="5.49238">
        <ele>205</ele>
        <time>2014-06-15T17:25:56+0200</time>
      </trkpt>
      <trkpt lat="47.08896" lon="5.49238">
        <ele>205</ele>
        <time>2014-06-15T17:26:12+0200</time>
      </trkpt>
      <trkpt lat="47.08895" lon="5.49238">
        <ele>205</ele>
        <time>2014-06-15T17:26:28+0200</time>
      </trkpt>
      <trkpt lat="47.08895" lon="5.49238">
        <ele>205</ele>
        <time>2014-06-15T17:26:43+0200</time>
      </trkpt>
      <trkpt lat="47.089" lon="5.4924">
        <ele>204</ele>
        <time>2014-06-15T17:26:59+0200</time>
      </trkpt>
      <trkpt lat="47.089" lon="5.4924">
        <ele>204</ele>
        <time>2014-06-15T17:27:14+0200</time>
      </trkpt>
      <trkpt lat="47.089" lon="5.49242">
        <ele>204</ele>
        <time>2014-06-15T17:27:30+0200</time>
      </trkpt>
      <trkpt lat="47.08899" lon="5.49241">
        <ele>204</ele>
        <time>2014-06-15T17:27:45+0200</time>
      </trkpt>
      <trkpt lat="47.08899" lon="5.49241">
        <ele>204</ele>
        <time>2014-06-15T17:28:01+0200</time>
      </trkpt>
      <trkpt lat="47.08899" lon="5.49241">
        <ele>204</ele>
        <time>2014-06-15T17:28:16+0200</time>
      </trkpt>
      <trkpt lat="47.08901" lon="5.49245">
        <ele>204</ele>
        <time>2014-06-15T17:28:32+0200</time>
      </trkpt>
      <trkpt lat="47.08901" lon="5.49245">
        <ele>204</ele>
        <time>2014-06-15T17:28:48+0200</time>
      </trkpt>
      <trkpt lat="47.08905" lon="5.49244">
        <ele>204</ele>
        <time>2014-06-15T17:29:03+0200</time>
      </trkpt>
      <trkpt lat="47.08904" lon="5.49238">
        <ele>204</ele>
        <time>2014-06-15T17:29:19+0200</time>
      </trkpt>
      <trkpt lat="47.08901" lon="5.49238">
        <ele>204</ele>
        <time>2014-06-15T17:29:34+0200</time>
      </trkpt>
      <trkpt lat="47.08901" lon="5.49237">
        <ele>204</ele>
        <time>2014-06-15T17:29:49+0200</time>
      </trkpt>
      <trkpt lat="47.089" lon="5.49238">
        <ele>204</ele>
        <time>2014-06-15T17:30:05+0200</time>
      </trkpt>
      <trkpt lat="47.08896" lon="5.4924">
        <ele>205</ele>
        <time>2014-06-15T17:30:21+0200</time>
      </trkpt>
      <trkpt lat="47.08896" lon="5.4924">
        <ele>205</ele>
        <time>2014-06-15T17:30:37+0200</time>
      </trkpt>
      <trkpt lat="47.08896" lon="5.4924">
        <ele>205</ele>
        <time>2014-06-15T17:30:53+0200</time>
      </trkpt>
      <trkpt lat="47.08896" lon="5.4924">
        <ele>205</ele>
        <time>2014-06-15T17:31:08+0200</time>
      </trkpt>
      <trkpt lat="47.08896" lon="5.4924">
        <ele>205</ele>
        <time>2014-06-15T17:31:24+0200</time>
      </trkpt>
      <trkpt lat="47.08896" lon="5.4924">
        <ele>205</ele>
        <time>2014-06-15T17:31:40+0200</time>
      </trkpt>
      <trkpt lat="47.08896" lon="5.4924">
        <ele>205</ele>
        <time>2014-06-15T17:31:56+0200</time>
      </trkpt>
      <trkpt lat="47.08896" lon="5.4924">
        <ele>205</ele>
        <time>2014-06-15T17:32:12+0200</time>
      </trkpt>
      <trkpt lat="47.08896" lon="5.4924">
        <ele>205</ele>
        <time>2014-06-15T17:32:28+0200</time>
      </trkpt>
      <trkpt lat="47.08896" lon="5.49235">
        <ele>205</ele>
        <time>2014-06-15T17:32:44+0200</time>
      </trkpt>
      <trkpt lat="47.08897" lon="5.49233">
        <ele>205</ele>
        <time>2014-06-15T17:33:00+0200</time>
      </trkpt>
      <trkpt lat="47.08897" lon="5.49233">
        <ele>205</ele>
        <time>2014-06-15T17:33:15+0200</time>
      </trkpt>
      <trkpt lat="47.08897" lon="5.49233">
        <ele>205</ele>
        <time>2014-06-15T17:33:31+0200</time>
      </trkpt>
      <trkpt lat="47.08897" lon="5.49236">
        <ele>205</ele>
        <time>2014-06-15T17:33:46+0200</time>
      </trkpt>
      <trkpt lat="47.08897" lon="5.49236">
        <ele>205</ele>
        <time>2014-06-15T17:34:02+0200</time>
      </trkpt>
      <trkpt lat="47.08897" lon="5.49236">
        <ele>205</ele>
        <time>2014-06-15T17:34:18+0200</time>
      </trkpt>
      <trkpt lat="47.08897" lon="5.49236">
        <ele>205</ele>
        <time>2014-06-15T17:34:34+0200</time>
      </trkpt>
      <trkpt lat="47.08897" lon="5.49236">
        <ele>205</ele>
        <time>2014-06-15T17:34:49+0200</time>
      </trkpt>
      <trkpt lat="47.08897" lon="5.49236">
        <ele>205</ele>
        <time>2014-06-15T17:35:04+0200</time>
      </trkpt>
      <trkpt lat="47.08897" lon="5.49236">
        <ele>205</ele>
        <time>2014-06-15T17:35:20+0200</time>
      </trkpt>
      <trkpt lat="47.08897" lon="5.49236">
        <ele>205</ele>
        <time>2014-06-15T17:35:35+0200</time>
      </trkpt>
      <trkpt lat="47.08897" lon="5.49236">
        <ele>205</ele>
        <time>2014-06-15T17:35:51+0200</time>
      </trkpt>
      <trkpt lat="47.08897" lon="5.49236">
        <ele>205</ele>
        <time>2014-06-15T17:36:06+0200</time>
      </trkpt>
      <trkpt lat="47.08897" lon="5.49238">
        <ele>205</ele>
        <time>2014-06-15T17:36:22+0200</time>
      </trkpt>
      <trkpt lat="47.08897" lon="5.4924">
        <ele>204</ele>
        <time>2014-06-15T17:36:37+0200</time>
      </trkpt>
      <trkpt lat="47.08913" lon="5.49262">
        <ele>202</ele>
        <time>2014-06-15T17:36:53+0200</time>
      </trkpt>
      <trkpt lat="47.08937" lon="5.49268">
        <ele>203</ele>
        <time>2014-06-15T17:37:09+0200</time>
      </trkpt>
      <trkpt lat="47.08963" lon="5.49289">
        <ele>203</ele>
        <time>2014-06-15T17:37:25+0200</time>
      </trkpt>
      <trkpt lat="47.08994" lon="5.49322">
        <ele>203</ele>
        <time>2014-06-15T17:37:40+0200</time>
      </trkpt>
      <trkpt lat="47.09002" lon="5.49352">
        <ele>204</ele>
        <time>2014-06-15T17:37:56+0200</time>
      </trkpt>
      <trkpt lat="47.09017" lon="5.49363">
        <ele>204</ele>
        <time>2014-06-15T17:38:11+0200</time>
      </trkpt>
      <trkpt lat="47.0904" lon="5.49365">
        <ele>205</ele>
        <time>2014-06-15T17:38:26+0200</time>
      </trkpt>
      <trkpt lat="47.09053" lon="5.49398">
        <ele>205</ele>
        <time>2014-06-15T17:38:41+0200</time>
      </trkpt>
      <trkpt lat="47.09061" lon="5.49406">
        <ele>205</ele>
        <time>2014-06-15T17:38:57+0200</time>
      </trkpt>
      <trkpt lat="47.09047" lon="5.49361">
        <ele>205</ele>
        <time>2014-06-15T17:39:13+0200</time>
      </trkpt>
      <trkpt lat="47.09071" lon="5.49348">
        <ele>207</ele>
        <time>2014-06-15T17:39:29+0200</time>
      </trkpt>
      <trkpt lat="47.09071" lon="5.49348">
        <ele>207</ele>
        <time>2014-06-15T17:39:44+0200</time>
      </trkpt>
      <trkpt lat="47.09075" lon="5.49348">
        <ele>207</ele>
        <time>2014-06-15T17:40:00+0200</time>
      </trkpt>
      <trkpt lat="47.0908" lon="5.49349">
        <ele>208</ele>
        <time>2014-06-15T17:40:16+0200</time>
      </trkpt>
      <trkpt lat="47.09096" lon="5.49358">
        <ele>210</ele>
        <time>2014-06-15T17:40:31+0200</time>
      </trkpt>
      <trkpt lat="47.09106" lon="5.49386">
        <ele>210</ele>
        <time>2014-06-15T17:40:46+0200</time>
      </trkpt>
      <trkpt lat="47.0912" lon="5.49407">
        <ele>210</ele>
        <time>2014-06-15T17:41:02+0200</time>
      </trkpt>
      <trkpt lat="47.09124" lon="5.49404">
        <ele>210</ele>
        <time>2014-06-15T17:41:18+0200</time>
      </trkpt>
      <trkpt lat="47.09124" lon="5.49404">
        <ele>210</ele>
        <time>2014-06-15T17:41:34+0200</time>
      </trkpt>
      <trkpt lat="47.09124" lon="5.49404">
        <ele>210</ele>
        <time>2014-06-15T17:41:50+0200</time>
      </trkpt>
      <trkpt lat="47.09125" lon="5.49405">
        <ele>210</ele>
        <time>2014-06-15T17:42:06+0200</time>
      </trkpt>
      <trkpt lat="47.09125" lon="5.49405">
        <ele>210</ele>
        <time>2014-06-15T17:42:21+0200</time>
      </trkpt>
      <trkpt lat="47.09125" lon="5.49405">
        <ele>210</ele>
        <time>2014-06-15T17:42:37+0200</time>
      </trkpt>
      <trkpt lat="47.0912" lon="5.49404">
        <ele>210</ele>
        <time>2014-06-15T17:42:52+0200</time>
      </trkpt>
      <trkpt lat="47.09124" lon="5.49401">
        <ele>210</ele>
        <time>2014-06-15T17:43:08+0200</time>
      </trkpt>
      <trkpt lat="47.09128" lon="5.49403">
        <ele>210</ele>
        <time>2014-06-15T17:43:23+0200</time>
      </trkpt>
      <trkpt lat="47.09129" lon="5.49404">
        <ele>210</ele>
        <time>2014-06-15T17:43:39+0200</time>
      </trkpt>
      <trkpt lat="47.09126" lon="5.49404">
        <ele>210</ele>
        <time>2014-06-15T17:43:54+0200</time>
      </trkpt>
      <trkpt lat="47.09125" lon="5.49405">
        <ele>210</ele>
        <time>2014-06-15T17:44:10+0200</time>
      </trkpt>
      <trkpt lat="47.09121" lon="5.4941">
        <ele>210</ele>
        <time>2014-06-15T17:44:26+0200</time>
      </trkpt>
      <trkpt lat="47.09121" lon="5.4941">
        <ele>210</ele>
        <time>2014-06-15T17:44:41+0200</time>
      </trkpt>
      <trkpt lat="47.09121" lon="5.4941">
        <ele>210</ele>
        <time>2014-06-15T17:44:57+0200</time>
      </trkpt>
      <trkpt lat="47.09121" lon="5.4941">
        <ele>210</ele>
        <time>2014-06-15T17:45:13+0200</time>
      </trkpt>
      <trkpt lat="47.09121" lon="5.4941">
        <ele>210</ele>
        <time>2014-06-15T17:45:29+0200</time>
      </trkpt>
      <trkpt lat="47.09121" lon="5.4941">
        <ele>210</ele>
        <time>2014-06-15T17:45:44+0200</time>
      </trkpt>
      <trkpt lat="47.09121" lon="5.4941">
        <ele>210</ele>
        <time>2014-06-15T17:45:59+0200</time>
      </trkpt>
      <trkpt lat="47.09121" lon="5.4941">
        <ele>210</ele>
        <time>2014-06-15T17:46:15+0200</time>
      </trkpt>
      <trkpt lat="47.09121" lon="5.4941">
        <ele>210</ele>
        <time>2014-06-15T17:46:30+0200</time>
      </trkpt>
      <trkpt lat="47.09121" lon="5.4941">
        <ele>210</ele>
        <time>2014-06-15T17:46:46+0200</time>
      </trkpt>
      <trkpt lat="47.0912" lon="5.49412">
        <ele>210</ele>
        <time>2014-06-15T17:47:02+0200</time>
      </trkpt>
      <trkpt lat="47.0912" lon="5.49411">
        <ele>210</ele>
        <time>2014-06-15T17:47:18+0200</time>
      </trkpt>
      <trkpt lat="47.0912" lon="5.49411">
        <ele>210</ele>
        <time>2014-06-15T17:47:34+0200</time>
      </trkpt>
      <trkpt lat="47.0912" lon="5.49411">
        <ele>210</ele>
        <time>2014-06-15T17:47:50+0200</time>
      </trkpt>
      <trkpt lat="47.0912" lon="5.4941">
        <ele>210</ele>
        <time>2014-06-15T17:48:06+0200</time>
      </trkpt>
      <trkpt lat="47.0912" lon="5.4941">
        <ele>210</ele>
        <time>2014-06-15T17:48:21+0200</time>
      </trkpt>
      <trkpt lat="47.0912" lon="5.4941">
        <ele>210</ele>
        <time>2014-06-15T17:48:37+0200</time>
      </trkpt>
      <trkpt lat="47.0912" lon="5.4941">
        <ele>210</ele>
        <time>2014-06-15T17:48:52+0200</time>
      </trkpt>
      <trkpt lat="47.09114" lon="5.4941">
        <ele>209</ele>
        <time>2014-06-15T17:49:08+0200</time>
      </trkpt>
      <trkpt lat="47.09114" lon="5.4941">
        <ele>209</ele>
        <time>2014-06-15T17:49:23+0200</time>
      </trkpt>
      <trkpt lat="47.09114" lon="5.4941">
        <ele>209</ele>
        <time>2014-06-15T17:49:39+0200</time>
      </trkpt>
      <trkpt lat="47.09114" lon="5.4941">
        <ele>209</ele>
        <time>2014-06-15T17:49:55+0200</time>
      </trkpt>
      <trkpt lat="47.09114" lon="5.4941">
        <ele>209</ele>
        <time>2014-06-15T17:50:10+0200</time>
      </trkpt>
      <trkpt lat="47.09114" lon="5.4941">
        <ele>209</ele>
        <time>2014-06-15T17:50:26+0200</time>
      </trkpt>
      <trkpt lat="47.09114" lon="5.4941">
        <ele>209</ele>
        <time>2014-06-15T17:50:41+0200</time>
      </trkpt>
      <trkpt lat="47.09114" lon="5.4941">
        <ele>209</ele>
        <time>2014-06-15T17:50:57+0200</time>
      </trkpt>
      <trkpt lat="47.09114" lon="5.4941">
        <ele>209</ele>
        <time>2014-06-15T17:51:13+0200</time>
      </trkpt>
      <trkpt lat="47.09114" lon="5.4941">
        <ele>209</ele>
        <time>2014-06-15T17:51:28+0200</time>
      </trkpt>
      <trkpt lat="47.09114" lon="5.4941">
        <ele>209</ele>
        <time>2014-06-15T17:51:44+0200</time>
      </trkpt>
      <trkpt lat="47.09114" lon="5.4941">
        <ele>209</ele>
        <time>2014-06-15T17:51:59+0200</time>
      </trkpt>
      <trkpt lat="47.09114" lon="5.4941">
        <ele>209</ele>
        <time>2014-06-15T17:52:14+0200</time>
      </trkpt>
      <trkpt lat="47.09114" lon="5.4941">
        <ele>209</ele>
        <time>2014-06-15T17:52:30+0200</time>
      </trkpt>
      <trkpt lat="47.09114" lon="5.4941">
        <ele>209</ele>
        <time>2014-06-15T17:52:45+0200</time>
      </trkpt>
      <trkpt lat="47.09114" lon="5.4941">
        <ele>209</ele>
        <time>2014-06-15T17:53:01+0200</time>
      </trkpt>
      <trkpt lat="47.09114" lon="5.4941">
        <ele>209</ele>
        <time>2014-06-15T17:53:16+0200</time>
      </trkpt>
      <trkpt lat="47.09114" lon="5.4941">
        <ele>209</ele>
        <time>2014-06-15T17:53:32+0200</time>
      </trkpt>
      <trkpt lat="47.09114" lon="5.4941">
        <ele>209</ele>
        <time>2014-06-15T17:53:47+0200</time>
      </trkpt>
      <trkpt lat="47.09114" lon="5.4941">
        <ele>209</ele>
        <time>2014-06-15T17:54:03+0200</time>
      </trkpt>
      <trkpt lat="47.09114" lon="5.4941">
        <ele>209</ele>
        <time>2014-06-15T17:54:19+0200</time>
      </trkpt>
      <trkpt lat="47.09114" lon="5.4941">
        <ele>209</ele>
        <time>2014-06-15T17:54:34+0200</time>
      </trkpt>
      <trkpt lat="47.09114" lon="5.4941">
        <ele>209</ele>
        <time>2014-06-15T17:54:50+0200</time>
      </trkpt>
      <trkpt lat="47.09114" lon="5.4941">
        <ele>209</ele>
        <time>2014-06-15T17:55:05+0200</time>
      </trkpt>
      <trkpt lat="47.09114" lon="5.4941">
        <ele>209</ele>
        <time>2014-06-15T17:55:21+0200</time>
      </trkpt>
      <trkpt lat="47.09114" lon="5.4941">
        <ele>209</ele>
        <time>2014-06-15T17:55:36+0200</time>
      </trkpt>
      <trkpt lat="47.09114" lon="5.4941">
        <ele>209</ele>
        <time>2014-06-15T17:55:52+0200</time>
      </trkpt>
      <trkpt lat="47.09114" lon="5.4941">
        <ele>209</ele>
        <time>2014-06-15T17:56:08+0200</time>
      </trkpt>
      <trkpt lat="47.09114" lon="5.4941">
        <ele>209</ele>
        <time>2014-06-15T17:56:23+0200</time>
      </trkpt>
      <trkpt lat="47.09114" lon="5.4941">
        <ele>209</ele>
        <time>2014-06-15T17:56:39+0200</time>
      </trkpt>
      <trkpt lat="47.09114" lon="5.4941">
        <ele>209</ele>
        <time>2014-06-15T17:56:54+0200</time>
      </trkpt>
      <trkpt lat="47.09114" lon="5.4941">
        <ele>209</ele>
        <time>2014-06-15T17:57:10+0200</time>
      </trkpt>
      <trkpt lat="47.09114" lon="5.4941">
        <ele>209</ele>
        <time>2014-06-15T17:57:25+0200</time>
      </trkpt>
      <trkpt lat="47.09114" lon="5.4941">
        <ele>209</ele>
        <time>2014-06-15T17:57:41+0200</time>
      </trkpt>
      <trkpt lat="47.09114" lon="5.4941">
        <ele>209</ele>
        <time>2014-06-15T17:57:57+0200</time>
      </trkpt>
      <trkpt lat="47.09114" lon="5.4941">
        <ele>209</ele>
        <time>2014-06-15T17:58:13+0200</time>
      </trkpt>
      <trkpt lat="47.09114" lon="5.4941">
        <ele>209</ele>
        <time>2014-06-15T17:58:29+0200</time>
      </trkpt>
      <trkpt lat="47.09114" lon="5.4941">
        <ele>209</ele>
        <time>2014-06-15T17:58:45+0200</time>
      </trkpt>
      <trkpt lat="47.09114" lon="5.4941">
        <ele>209</ele>
        <time>2014-06-15T17:59:01+0200</time>
      </trkpt>
      <trkpt lat="47.09114" lon="5.4941">
        <ele>209</ele>
        <time>2014-06-15T17:59:16+0200</time>
      </trkpt>
      <trkpt lat="47.09114" lon="5.4941">
        <ele>209</ele>
        <time>2014-06-15T17:59:31+0200</time>
      </trkpt>
      <trkpt lat="47.09114" lon="5.4941">
        <ele>209</ele>
        <time>2014-06-15T17:59:46+0200</time>
      </trkpt>
      <trkpt lat="47.09114" lon="5.4941">
        <ele>209</ele>
        <time>2014-06-15T18:00:02+0200</time>
      </trkpt>
      <trkpt lat="47.09123" lon="5.49416">
        <ele>210</ele>
        <time>2014-06-15T18:00:18+0200</time>
      </trkpt>
      <trkpt lat="47.09123" lon="5.49416">
        <ele>210</ele>
        <time>2014-06-15T18:00:33+0200</time>
      </trkpt>
      <trkpt lat="47.09123" lon="5.49416">
        <ele>210</ele>
        <time>2014-06-15T18:00:49+0200</time>
      </trkpt>
      <trkpt lat="47.09123" lon="5.49416">
        <ele>210</ele>
        <time>2014-06-15T18:01:04+0200</time>
      </trkpt>
      <trkpt lat="47.09123" lon="5.49416">
        <ele>210</ele>
        <time>2014-06-15T18:01:20+0200</time>
      </trkpt>
      <trkpt lat="47.09123" lon="5.49416">
        <ele>210</ele>
        <time>2014-06-15T18:01:35+0200</time>
      </trkpt>
      <trkpt lat="47.09123" lon="5.49416">
        <ele>210</ele>
        <time>2014-06-15T18:01:51+0200</time>
      </trkpt>
      <trkpt lat="47.09123" lon="5.49416">
        <ele>210</ele>
        <time>2014-06-15T18:02:06+0200</time>
      </trkpt>
      <trkpt lat="47.09123" lon="5.49416">
        <ele>210</ele>
        <time>2014-06-15T18:02:22+0200</time>
      </trkpt>
      <trkpt lat="47.09123" lon="5.49416">
        <ele>210</ele>
        <time>2014-06-15T18:02:37+0200</time>
      </trkpt>
      <trkpt lat="47.09123" lon="5.49416">
        <ele>210</ele>
        <time>2014-06-15T18:02:53+0200</time>
      </trkpt>
      <trkpt lat="47.09123" lon="5.49416">
        <ele>210</ele>
        <time>2014-06-15T18:03:08+0200</time>
      </trkpt>
      <trkpt lat="47.09123" lon="5.49416">
        <ele>210</ele>
        <time>2014-06-15T18:03:24+0200</time>
      </trkpt>
      <trkpt lat="47.09123" lon="5.49416">
        <ele>210</ele>
        <time>2014-06-15T18:03:39+0200</time>
      </trkpt>
      <trkpt lat="47.09123" lon="5.49416">
        <ele>210</ele>
        <time>2014-06-15T18:03:55+0200</time>
      </trkpt>
      <trkpt lat="47.09123" lon="5.49416">
        <ele>210</ele>
        <time>2014-06-15T18:04:10+0200</time>
      </trkpt>
      <trkpt lat="47.09123" lon="5.49416">
        <ele>210</ele>
        <time>2014-06-15T18:04:26+0200</time>
      </trkpt>
      <trkpt lat="47.09123" lon="5.49416">
        <ele>210</ele>
        <time>2014-06-15T18:04:42+0200</time>
      </trkpt>
      <trkpt lat="47.09123" lon="5.49416">
        <ele>210</ele>
        <time>2014-06-15T18:04:57+0200</time>
      </trkpt>
      <trkpt lat="47.09123" lon="5.49416">
        <ele>210</ele>
        <time>2014-06-15T18:05:13+0200</time>
      </trkpt>
      <trkpt lat="47.09123" lon="5.49416">
        <ele>210</ele>
        <time>2014-06-15T18:05:28+0200</time>
      </trkpt>
      <trkpt lat="47.09123" lon="5.49416">
        <ele>210</ele>
        <time>2014-06-15T18:05:44+0200</time>
      </trkpt>
      <trkpt lat="47.09123" lon="5.49416">
        <ele>210</ele>
        <time>2014-06-15T18:05:59+0200</time>
      </trkpt>
      <trkpt lat="47.09123" lon="5.49416">
        <ele>210</ele>
        <time>2014-06-15T18:06:15+0200</time>
      </trkpt>
      <trkpt lat="47.09123" lon="5.49416">
        <ele>210</ele>
        <time>2014-06-15T18:06:30+0200</time>
      </trkpt>
      <trkpt lat="47.09123" lon="5.49416">
        <ele>210</ele>
        <time>2014-06-15T18:06:45+0200</time>
      </trkpt>
      <trkpt lat="47.09123" lon="5.49416">
        <ele>210</ele>
        <time>2014-06-15T18:07:00+0200</time>
      </trkpt>
      <trkpt lat="47.09123" lon="5.49416">
        <ele>210</ele>
        <time>2014-06-15T18:07:16+0200</time>
      </trkpt>
      <trkpt lat="47.09123" lon="5.49416">
        <ele>210</ele>
        <time>2014-06-15T18:07:31+0200</time>
      </trkpt>
      <trkpt lat="47.09123" lon="5.49416">
        <ele>210</ele>
        <time>2014-06-15T18:07:47+0200</time>
      </trkpt>
      <trkpt lat="47.09123" lon="5.49416">
        <ele>210</ele>
        <time>2014-06-15T18:08:03+0200</time>
      </trkpt>
      <trkpt lat="47.09123" lon="5.49416">
        <ele>210</ele>
        <time>2014-06-15T18:08:18+0200</time>
      </trkpt>
      <trkpt lat="47.09123" lon="5.49416">
        <ele>210</ele>
        <time>2014-06-15T18:08:33+0200</time>
      </trkpt>
      <trkpt lat="47.09123" lon="5.49416">
        <ele>210</ele>
        <time>2014-06-15T18:08:49+0200</time>
      </trkpt>
      <trkpt lat="47.09123" lon="5.49416">
        <ele>210</ele>
        <time>2014-06-15T18:09:04+0200</time>
      </trkpt>
      <trkpt lat="47.09123" lon="5.49416">
        <ele>210</ele>
        <time>2014-06-15T18:09:20+0200</time>
      </trkpt>
      <trkpt lat="47.09123" lon="5.49416">
        <ele>210</ele>
        <time>2014-06-15T18:09:35+0200</time>
      </trkpt>
      <trkpt lat="47.09123" lon="5.49416">
        <ele>210</ele>
        <time>2014-06-15T18:09:51+0200</time>
      </trkpt>
      <trkpt lat="47.09123" lon="5.49416">
        <ele>210</ele>
        <time>2014-06-15T18:10:07+0200</time>
      </trkpt>
      <trkpt lat="47.09123" lon="5.49416">
        <ele>210</ele>
        <time>2014-06-15T18:10:22+0200</time>
      </trkpt>
      <trkpt lat="47.09123" lon="5.49416">
        <ele>210</ele>
        <time>2014-06-15T18:10:38+0200</time>
      </trkpt>
      <trkpt lat="47.09123" lon="5.49416">
        <ele>210</ele>
        <time>2014-06-15T18:10:54+0200</time>
      </trkpt>
      <trkpt lat="47.09123" lon="5.49416">
        <ele>210</ele>
        <time>2014-06-15T18:11:09+0200</time>
      </trkpt>
      <trkpt lat="47.09123" lon="5.49416">
        <ele>210</ele>
        <time>2014-06-15T18:11:25+0200</time>
      </trkpt>
      <trkpt lat="47.09123" lon="5.49416">
        <ele>210</ele>
        <time>2014-06-15T18:11:40+0200</time>
      </trkpt>
      <trkpt lat="47.09123" lon="5.49416">
        <ele>210</ele>
        <time>2014-06-15T18:11:56+0200</time>
      </trkpt>
      <trkpt lat="47.09123" lon="5.49416">
        <ele>210</ele>
        <time>2014-06-15T18:12:11+0200</time>
      </trkpt>
      <trkpt lat="47.09123" lon="5.49416">
        <ele>210</ele>
        <time>2014-06-15T18:12:27+0200</time>
      </trkpt>
      <trkpt lat="47.09123" lon="5.49416">
        <ele>210</ele>
        <time>2014-06-15T18:12:42+0200</time>
      </trkpt>
      <trkpt lat="47.09123" lon="5.49416">
        <ele>210</ele>
        <time>2014-06-15T18:12:57+0200</time>
      </trkpt>
      <trkpt lat="47.09123" lon="5.49416">
        <ele>210</ele>
        <time>2014-06-15T18:13:13+0200</time>
      </trkpt>
      <trkpt lat="47.09123" lon="5.49416">
        <ele>210</ele>
        <time>2014-06-15T18:13:28+0200</time>
      </trkpt>
      <trkpt lat="47.09123" lon="5.49416">
        <ele>210</ele>
        <time>2014-06-15T18:13:43+0200</time>
      </trkpt>
      <trkpt lat="47.09123" lon="5.49416">
        <ele>210</ele>
        <time>2014-06-15T18:13:59+0200</time>
      </trkpt>
      <trkpt lat="47.09123" lon="5.49416">
        <ele>210</ele>
        <time>2014-06-15T18:14:14+0200</time>
      </trkpt>
      <trkpt lat="47.09123" lon="5.49416">
        <ele>210</ele>
        <time>2014-06-15T18:14:30+0200</time>
      </trkpt>
      <trkpt lat="47.09123" lon="5.49416">
        <ele>210</ele>
        <time>2014-06-15T18:14:45+0200</time>
      </trkpt>
      <trkpt lat="47.09123" lon="5.49416">
        <ele>210</ele>
        <time>2014-06-15T18:15:01+0200</time>
      </trkpt>
      <trkpt lat="47.09123" lon="5.49416">
        <ele>210</ele>
        <time>2014-06-15T18:15:16+0200</time>
      </trkpt>
      <trkpt lat="47.09123" lon="5.49416">
        <ele>210</ele>
        <time>2014-06-15T18:15:32+0200</time>
      </trkpt>
      <trkpt lat="47.09123" lon="5.49416">
        <ele>210</ele>
        <time>2014-06-15T18:15:48+0200</time>
      </trkpt>
      <trkpt lat="47.09123" lon="5.49416">
        <ele>210</ele>
        <time>2014-06-15T18:16:03+0200</time>
      </trkpt>
      <trkpt lat="47.09123" lon="5.49416">
        <ele>210</ele>
        <time>2014-06-15T18:16:19+0200</time>
      </trkpt>
      <trkpt lat="47.09123" lon="5.49416">
        <ele>210</ele>
        <time>2014-06-15T18:16:35+0200</time>
      </trkpt>
      <trkpt lat="47.09123" lon="5.49416">
        <ele>210</ele>
        <time>2014-06-15T18:16:50+0200</time>
      </trkpt>
      <trkpt lat="47.09123" lon="5.49416">
        <ele>210</ele>
        <time>2014-06-15T18:17:06+0200</time>
      </trkpt>
      <trkpt lat="47.09123" lon="5.49416">
        <ele>210</ele>
        <time>2014-06-15T18:17:21+0200</time>
      </trkpt>
      <trkpt lat="47.09123" lon="5.49416">
        <ele>210</ele>
        <time>2014-06-15T18:17:37+0200</time>
      </trkpt>
      <trkpt lat="47.09123" lon="5.49416">
        <ele>210</ele>
        <time>2014-06-15T18:17:53+0200</time>
      </trkpt>
      <trkpt lat="47.09123" lon="5.49416">
        <ele>210</ele>
        <time>2014-06-15T18:18:08+0200</time>
      </trkpt>
      <trkpt lat="47.09123" lon="5.49416">
        <ele>210</ele>
        <time>2014-06-15T18:18:24+0200</time>
      </trkpt>
      <trkpt lat="47.09123" lon="5.49416">
        <ele>210</ele>
        <time>2014-06-15T18:18:39+0200</time>
      </trkpt>
      <trkpt lat="47.09123" lon="5.49416">
        <ele>210</ele>
        <time>2014-06-15T18:18:55+0200</time>
      </trkpt>
      <trkpt lat="47.09123" lon="5.49416">
        <ele>210</ele>
        <time>2014-06-15T18:19:10+0200</time>
      </trkpt>
      <trkpt lat="47.09123" lon="5.49416">
        <ele>210</ele>
        <time>2014-06-15T18:19:26+0200</time>
      </trkpt>
      <trkpt lat="47.09123" lon="5.49416">
        <ele>210</ele>
        <time>2014-06-15T18:19:42+0200</time>
      </trkpt>
      <trkpt lat="47.09123" lon="5.49416">
        <ele>210</ele>
        <time>2014-06-15T18:19:57+0200</time>
      </trkpt>
      <trkpt lat="47.09123" lon="5.49416">
        <ele>210</ele>
        <time>2014-06-15T18:20:13+0200</time>
      </trkpt>
      <trkpt lat="47.09123" lon="5.49416">
        <ele>210</ele>
        <time>2014-06-15T18:20:28+0200</time>
      </trkpt>
      <trkpt lat="47.09123" lon="5.49416">
        <ele>210</ele>
        <time>2014-06-15T18:20:43+0200</time>
      </trkpt>
      <trkpt lat="47.09123" lon="5.49416">
        <ele>210</ele>
        <time>2014-06-15T18:20:58+0200</time>
      </trkpt>
      <trkpt lat="47.09123" lon="5.49416">
        <ele>210</ele>
        <time>2014-06-15T18:21:14+0200</time>
      </trkpt>
      <trkpt lat="47.09121" lon="5.49408">
        <ele>210</ele>
        <time>2014-06-15T18:21:30+0200</time>
      </trkpt>
      <trkpt lat="47.09129" lon="5.49408">
        <ele>210</ele>
        <time>2014-06-15T18:21:46+0200</time>
      </trkpt>
      <trkpt lat="47.09131" lon="5.49413">
        <ele>211</ele>
        <time>2014-06-15T18:22:02+0200</time>
      </trkpt>
      <trkpt lat="47.09131" lon="5.49413">
        <ele>211</ele>
        <time>2014-06-15T18:22:18+0200</time>
      </trkpt>
      <trkpt lat="47.09136" lon="5.49415">
        <ele>211</ele>
        <time>2014-06-15T18:22:33+0200</time>
      </trkpt>
      <trkpt lat="47.09101" lon="5.49463">
        <ele>206</ele>
        <time>2014-06-15T18:22:48+0200</time>
      </trkpt>
      <trkpt lat="47.09076" lon="5.49526">
        <ele>202</ele>
        <time>2014-06-15T18:23:04+0200</time>
      </trkpt>
      <trkpt lat="47.09102" lon="5.49591">
        <ele>203</ele>
        <time>2014-06-15T18:23:20+0200</time>
      </trkpt>
      <trkpt lat="47.09067" lon="5.49683">
        <ele>201</ele>
        <time>2014-06-15T18:23:36+0200</time>
      </trkpt>
      <trkpt lat="47.09046" lon="5.49677">
        <ele>201</ele>
        <time>2014-06-15T18:23:52+0200</time>
      </trkpt>
      <trkpt lat="47.09043" lon="5.49691">
        <ele>201</ele>
        <time>2014-06-15T18:24:07+0200</time>
      </trkpt>
      <trkpt lat="47.09038" lon="5.49687">
        <ele>201</ele>
        <time>2014-06-15T18:24:22+0200</time>
      </trkpt>
      <trkpt lat="47.09071" lon="5.49695">
        <ele>201</ele>
        <time>2014-06-15T18:24:38+0200</time>
      </trkpt>
      <trkpt lat="47.09076" lon="5.49693">
        <ele>201</ele>
        <time>2014-06-15T18:24:53+0200</time>
      </trkpt>
      <trkpt lat="47.09076" lon="5.49693">
        <ele>201</ele>
        <time>2014-06-15T18:25:09+0200</time>
      </trkpt>
      <trkpt lat="47.09076" lon="5.49693">
        <ele>201</ele>
        <time>2014-06-15T18:25:25+0200</time>
      </trkpt>
      <trkpt lat="47.09073" lon="5.49695">
        <ele>201</ele>
        <time>2014-06-15T18:25:40+0200</time>
      </trkpt>
      <trkpt lat="47.09078" lon="5.49704">
        <ele>201</ele>
        <time>2014-06-15T18:25:55+0200</time>
      </trkpt>
      <trkpt lat="47.09102" lon="5.49707">
        <ele>201</ele>
        <time>2014-06-15T18:26:11+0200</time>
      </trkpt>
      <trkpt lat="47.09132" lon="5.49714">
        <ele>202</ele>
        <time>2014-06-15T18:26:27+0200</time>
      </trkpt>
      <trkpt lat="47.09183" lon="5.49755">
        <ele>202</ele>
        <time>2014-06-15T18:26:42+0200</time>
      </trkpt>
      <trkpt lat="47.09226" lon="5.4979">
        <ele>203</ele>
        <time>2014-06-15T18:26:58+0200</time>
      </trkpt>
      <trkpt lat="47.0927" lon="5.49828">
        <ele>205</ele>
        <time>2014-06-15T18:27:13+0200</time>
      </trkpt>
      <trkpt lat="47.09306" lon="5.49884">
        <ele>205</ele>
        <time>2014-06-15T18:27:28+0200</time>
      </trkpt>
      <trkpt lat="47.09324" lon="5.49937">
        <ele>204</ele>
        <time>2014-06-15T18:27:44+0200</time>
      </trkpt>
      <trkpt lat="47.09323" lon="5.5">
        <ele>202</ele>
        <time>2014-06-15T18:28:00+0200</time>
      </trkpt>
      <trkpt lat="47.09322" lon="5.50011">
        <ele>202</ele>
        <time>2014-06-15T18:28:16+0200</time>
      </trkpt>
      <trkpt lat="47.09321" lon="5.50013">
        <ele>202</ele>
        <time>2014-06-15T18:28:31+0200</time>
      </trkpt>
      <trkpt lat="47.09316" lon="5.50032">
        <ele>203</ele>
        <time>2014-06-15T18:28:47+0200</time>
      </trkpt>
      <trkpt lat="47.09276" lon="5.50095">
        <ele>202</ele>
        <time>2014-06-15T18:29:03+0200</time>
      </trkpt>
      <trkpt lat="47.09224" lon="5.50167">
        <ele>202</ele>
        <time>2014-06-15T18:29:19+0200</time>
      </trkpt>
      <trkpt lat="47.09171" lon="5.50207">
        <ele>203</ele>
        <time>2014-06-15T18:29:34+0200</time>
      </trkpt>
      <trkpt lat="47.09122" lon="5.50254">
        <ele>201</ele>
        <time>2014-06-15T18:29:50+0200</time>
      </trkpt>
      <trkpt lat="47.09069" lon="5.50301">
        <ele>200</ele>
        <time>2014-06-15T18:30:05+0200</time>
      </trkpt>
      <trkpt lat="47.08985" lon="5.50349">
        <ele>201</ele>
        <time>2014-06-15T18:30:21+0200</time>
      </trkpt>
      <trkpt lat="47.08937" lon="5.50321">
        <ele>201</ele>
        <time>2014-06-15T18:30:37+0200</time>
      </trkpt>
      <trkpt lat="47.0895" lon="5.5034">
        <ele>201</ele>
        <time>2014-06-15T18:30:52+0200</time>
      </trkpt>
      <trkpt lat="47.08962" lon="5.50348">
        <ele>201</ele>
        <time>2014-06-15T18:31:08+0200</time>
      </trkpt>
      <trkpt lat="47.08961" lon="5.50349">
        <ele>201</ele>
        <time>2014-06-15T18:31:23+0200</time>
      </trkpt>
      <trkpt lat="47.08961" lon="5.50349">
        <ele>201</ele>
        <time>2014-06-15T18:31:39+0200</time>
      </trkpt>
      <trkpt lat="47.08961" lon="5.50349">
        <ele>201</ele>
        <time>2014-06-15T18:31:54+0200</time>
      </trkpt>
      <trkpt lat="47.08961" lon="5.50349">
        <ele>201</ele>
        <time>2014-06-15T18:32:09+0200</time>
      </trkpt>
      <trkpt lat="47.08961" lon="5.50349">
        <ele>201</ele>
        <time>2014-06-15T18:32:25+0200</time>
      </trkpt>
      <trkpt lat="47.08961" lon="5.50349">
        <ele>201</ele>
        <time>2014-06-15T18:32:40+0200</time>
      </trkpt>
      <trkpt lat="47.08961" lon="5.50349">
        <ele>201</ele>
        <time>2014-06-15T18:32:56+0200</time>
      </trkpt>
      <trkpt lat="47.08961" lon="5.50349">
        <ele>201</ele>
        <time>2014-06-15T18:33:11+0200</time>
      </trkpt>
      <trkpt lat="47.08961" lon="5.50349">
        <ele>201</ele>
        <time>2014-06-15T18:33:27+0200</time>
      </trkpt>
      <trkpt lat="47.08961" lon="5.50349">
        <ele>201</ele>
        <time>2014-06-15T18:33:42+0200</time>
      </trkpt>
      <trkpt lat="47.08961" lon="5.50349">
        <ele>201</ele>
        <time>2014-06-15T18:33:57+0200</time>
      </trkpt>
      <trkpt lat="47.08961" lon="5.50349">
        <ele>201</ele>
        <time>2014-06-15T18:34:13+0200</time>
      </trkpt>
      <trkpt lat="47.08961" lon="5.50349">
        <ele>201</ele>
        <time>2014-06-15T18:34:29+0200</time>
      </trkpt>
      <trkpt lat="47.08961" lon="5.50349">
        <ele>201</ele>
        <time>2014-06-15T18:34:44+0200</time>
      </trkpt>
      <trkpt lat="47.08961" lon="5.50349">
        <ele>201</ele>
        <time>2014-06-15T18:34:59+0200</time>
      </trkpt>
      <trkpt lat="47.08961" lon="5.50349">
        <ele>201</ele>
        <time>2014-06-15T18:35:15+0200</time>
      </trkpt>
      <trkpt lat="47.08961" lon="5.50349">
        <ele>201</ele>
        <time>2014-06-15T18:35:30+0200</time>
      </trkpt>
      <trkpt lat="47.08961" lon="5.50349">
        <ele>201</ele>
        <time>2014-06-15T18:35:46+0200</time>
      </trkpt>
      <trkpt lat="47.08961" lon="5.50349">
        <ele>201</ele>
        <time>2014-06-15T18:36:01+0200</time>
      </trkpt>
      <trkpt lat="47.08961" lon="5.50349">
        <ele>201</ele>
        <time>2014-06-15T18:36:17+0200</time>
      </trkpt>
      <trkpt lat="47.08961" lon="5.50349">
        <ele>201</ele>
        <time>2014-06-15T18:36:33+0200</time>
      </trkpt>
      <trkpt lat="47.08961" lon="5.50349">
        <ele>201</ele>
        <time>2014-06-15T18:36:48+0200</time>
      </trkpt>
      <trkpt lat="47.08961" lon="5.50349">
        <ele>201</ele>
        <time>2014-06-15T18:37:03+0200</time>
      </trkpt>
      <trkpt lat="47.08961" lon="5.50349">
        <ele>201</ele>
        <time>2014-06-15T18:37:19+0200</time>
      </trkpt>
      <trkpt lat="47.08961" lon="5.50349">
        <ele>201</ele>
        <time>2014-06-15T18:37:34+0200</time>
      </trkpt>
      <trkpt lat="47.08961" lon="5.50349">
        <ele>201</ele>
        <time>2014-06-15T18:37:50+0200</time>
      </trkpt>
      <trkpt lat="47.08961" lon="5.50349">
        <ele>201</ele>
        <time>2014-06-15T18:38:06+0200</time>
      </trkpt>
      <trkpt lat="47.08961" lon="5.50349">
        <ele>201</ele>
        <time>2014-06-15T18:38:22+0200</time>
      </trkpt>
      <trkpt lat="47.08961" lon="5.50349">
        <ele>201</ele>
        <time>2014-06-15T18:38:38+0200</time>
      </trkpt>
      <trkpt lat="47.08961" lon="5.50349">
        <ele>201</ele>
        <time>2014-06-15T18:38:53+0200</time>
      </trkpt>
      <trkpt lat="47.08961" lon="5.50349">
        <ele>201</ele>
        <time>2014-06-15T18:39:08+0200</time>
      </trkpt>
      <trkpt lat="47.08961" lon="5.50349">
        <ele>201</ele>
        <time>2014-06-15T18:39:24+0200</time>
      </trkpt>
      <trkpt lat="47.08961" lon="5.50349">
        <ele>201</ele>
        <time>2014-06-15T18:39:40+0200</time>
      </trkpt>
      <trkpt lat="47.08961" lon="5.50349">
        <ele>201</ele>
        <time>2014-06-15T18:39:56+0200</time>
      </trkpt>
      <trkpt lat="47.08961" lon="5.50349">
        <ele>201</ele>
        <time>2014-06-15T18:40:12+0200</time>
      </trkpt>
      <trkpt lat="47.08961" lon="5.50349">
        <ele>201</ele>
        <time>2014-06-15T18:40:28+0200</time>
      </trkpt>
      <trkpt lat="47.08961" lon="5.50349">
        <ele>201</ele>
        <time>2014-06-15T18:40:44+0200</time>
      </trkpt>
      <trkpt lat="47.08961" lon="5.50349">
        <ele>201</ele>
        <time>2014-06-15T18:40:59+0200</time>
      </trkpt>
      <trkpt lat="47.08961" lon="5.50349">
        <ele>201</ele>
        <time>2014-06-15T18:41:14+0200</time>
      </trkpt>
      <trkpt lat="47.08961" lon="5.50349">
        <ele>201</ele>
        <time>2014-06-15T18:41:30+0200</time>
      </trkpt>
      <trkpt lat="47.08961" lon="5.50349">
        <ele>201</ele>
        <time>2014-06-15T18:41:46+0200</time>
      </trkpt>
      <trkpt lat="47.08961" lon="5.50349">
        <ele>201</ele>
        <time>2014-06-15T18:42:01+0200</time>
      </trkpt>
      <trkpt lat="47.08961" lon="5.50349">
        <ele>201</ele>
        <time>2014-06-15T18:42:17+0200</time>
      </trkpt>
      <trkpt lat="47.08961" lon="5.50349">
        <ele>201</ele>
        <time>2014-06-15T18:42:32+0200</time>
      </trkpt>
      <trkpt lat="47.08961" lon="5.50349">
        <ele>201</ele>
        <time>2014-06-15T18:42:48+0200</time>
      </trkpt>
      <trkpt lat="47.08961" lon="5.50349">
        <ele>201</ele>
        <time>2014-06-15T18:43:04+0200</time>
      </trkpt>
      <trkpt lat="47.08961" lon="5.50349">
        <ele>201</ele>
        <time>2014-06-15T18:43:19+0200</time>
      </trkpt>
      <trkpt lat="47.08961" lon="5.50349">
        <ele>201</ele>
        <time>2014-06-15T18:43:35+0200</time>
      </trkpt>
      <trkpt lat="47.08961" lon="5.50349">
        <ele>201</ele>
        <time>2014-06-15T18:43:51+0200</time>
      </trkpt>
      <trkpt lat="47.08961" lon="5.50349">
        <ele>201</ele>
        <time>2014-06-15T18:44:07+0200</time>
      </trkpt>
      <trkpt lat="47.08961" lon="5.50349">
        <ele>201</ele>
        <time>2014-06-15T18:44:23+0200</time>
      </trkpt>
      <trkpt lat="47.08961" lon="5.50349">
        <ele>201</ele>
        <time>2014-06-15T18:44:39+0200</time>
      </trkpt>
      <trkpt lat="47.08961" lon="5.50349">
        <ele>201</ele>
        <time>2014-06-15T18:44:55+0200</time>
      </trkpt>
      <trkpt lat="47.08961" lon="5.50349">
        <ele>201</ele>
        <time>2014-06-15T18:45:11+0200</time>
      </trkpt>
      <trkpt lat="47.08961" lon="5.50349">
        <ele>201</ele>
        <time>2014-06-15T18:45:27+0200</time>
      </trkpt>
      <trkpt lat="47.08961" lon="5.50349">
        <ele>201</ele>
        <time>2014-06-15T18:45:42+0200</time>
      </trkpt>
      <trkpt lat="47.08961" lon="5.50349">
        <ele>201</ele>
        <time>2014-06-15T18:45:58+0200</time>
      </trkpt>
      <trkpt lat="47.08961" lon="5.50349">
        <ele>201</ele>
        <time>2014-06-15T18:46:14+0200</time>
      </trkpt>
      <trkpt lat="47.08961" lon="5.50349">
        <ele>201</ele>
        <time>2014-06-15T18:46:30+0200</time>
      </trkpt>
      <trkpt lat="47.08961" lon="5.50349">
        <ele>201</ele>
        <time>2014-06-15T18:46:46+0200</time>
      </trkpt>
      <trkpt lat="47.08961" lon="5.50349">
        <ele>201</ele>
        <time>2014-06-15T18:47:02+0200</time>
      </trkpt>
      <trkpt lat="47.08961" lon="5.50349">
        <ele>201</ele>
        <time>2014-06-15T18:47:17+0200</time>
      </trkpt>
      <trkpt lat="47.08961" lon="5.50349">
        <ele>201</ele>
        <time>2014-06-15T18:47:32+0200</time>
      </trkpt>
      <trkpt lat="47.08961" lon="5.50349">
        <ele>201</ele>
        <time>2014-06-15T18:47:47+0200</time>
      </trkpt>
      <trkpt lat="47.08961" lon="5.50349">
        <ele>201</ele>
        <time>2014-06-15T18:48:03+0200</time>
      </trkpt>
      <trkpt lat="47.08961" lon="5.50349">
        <ele>201</ele>
        <time>2014-06-15T18:48:18+0200</time>
      </trkpt>
      <trkpt lat="47.08961" lon="5.50349">
        <ele>201</ele>
        <time>2014-06-15T18:48:33+0200</time>
      </trkpt>
      <trkpt lat="47.08959" lon="5.50348">
        <ele>201</ele>
        <time>2014-06-15T18:48:49+0200</time>
      </trkpt>
      <trkpt lat="47.08959" lon="5.50348">
        <ele>201</ele>
        <time>2014-06-15T18:49:05+0200</time>
      </trkpt>
      <trkpt lat="47.08959" lon="5.50348">
        <ele>201</ele>
        <time>2014-06-15T18:49:21+0200</time>
      </trkpt>
      <trkpt lat="47.08959" lon="5.50348">
        <ele>201</ele>
        <time>2014-06-15T18:49:36+0200</time>
      </trkpt>
      <trkpt lat="47.08959" lon="5.50348">
        <ele>201</ele>
        <time>2014-06-15T18:49:51+0200</time>
      </trkpt>
      <trkpt lat="47.08959" lon="5.50348">
        <ele>201</ele>
        <time>2014-06-15T18:50:06+0200</time>
      </trkpt>
      <trkpt lat="47.08959" lon="5.50348">
        <ele>201</ele>
        <time>2014-06-15T18:50:22+0200</time>
      </trkpt>
      <trkpt lat="47.08959" lon="5.50348">
        <ele>201</ele>
        <time>2014-06-15T18:50:38+0200</time>
      </trkpt>
      <trkpt lat="47.08959" lon="5.50348">
        <ele>201</ele>
        <time>2014-06-15T18:50:54+0200</time>
      </trkpt>
    </trkseg>
  </trk>
</gpx>